GFSNE_700_temp_000.txt.gz
Temp
-4 -5 -5 -6 -6 -7 -8 -9 -10 -10 -9 -5 -7 -6 -9 -8 -8 -7 -5 -4 -4 -4 -4 -4 -5 -4 -3 -2 -2 -2 -2 -2 -2 -2 -1 -0 -0 0
-5 -6 -7 -7 -8 -9 -10 -11 -12 -13 -13 -10 -10 -10 -9 -10 -10 -9 -8 -7 -5 -4 -4 -5 -5 -4 -4 -3 -2 -2 -2 -2 -2 -2 -2 -1 -1 -0
-6 -7 -8 -9 -10 -11 -11 -12 -12 -13 -14 -12 -12 -11 -11 -12 -11 -11 -11 -10 -8 -6 -5 -5 -4 -3 -3 -3 -2 -2 -2 -2 -2 -2 -2 -2 -2 -2
-7 -8 -9 -10 -11 -12 -12 -12 -12 -13 -16 -15 -13 -13 -12 -13 -14 -14 -12 -12 -11 -9 -8 -6 -5 -4 -4 -3 -3 -2 -3 -3 -2 -2 -2 -3 -2 -2
-8 -9 -10 -11 -11 -12 -12 -13 -13 -15 -15 -15 -15 -15 -15 -15 -15 -15 -15 -14 -13 -12 -11 -9 -8 -8 -7 -6 -5 -4 -4 -3 -3 -3 -3 -3 -3 -3
-9 -10 -11 -12 -12 -12 -13 -14 -15 -16 -16 -16 -15 -15 -15 -15 -15 -15 -14 -14 -14 -14 -13 -12 -12 -11 -10 -9 -8 -7 -7 -5 -3 -3 -3 -2 -2 -3
-9 -10 -11 -12 -12 -13 -14 -14 -15 -16 -16 -16 -16 -16 -16 -15 -15 -15 -15 -15 -14 -14 -14 -13 -12 -11 -11 -11 -10 -9 -8 -7 -5 -4 -4 -3 -2 -3
-10 -11 -12 -12 -13 -14 -15 -16 -16 -17 -17 -17 -17 -17 -16 -16 -15 -16 -16 -16 -15 -14 -14 -13 -13 -12 -11 -11 -11 -10 -9 -8 -6 -5 -4 -3 -3 -3
-11 -12 -12 -13 -14 -15 -15 -16 -17 -17 -17 -18 -18 -17 -16 -15 -16 -16 -16 -16 -15 -14 -15 -13 -12 -12 -11 -11 -11 -10 -10 -8 -7 -5 -4 -3 -4 -3
-13 -13 -14 -14 -15 -16 -16 -17 -17 -16 -17 -18 -17 -16 -16 -16 -17 -16 -16 -15 -15 -15 -15 -13 -12 -12 -12 -10 -10 -10 -9 -9 -7 -6 -5 -4 -4 -2
-13 -14 -14 -15 -16 -17 -17 -18 -17 -16 -16 -16 -16 -16 -16 -16 -16 -16 -15 -15 -14 -14 -14 -13 -13 -12 -11 -11 -10 -9 -9 -8 -7 -6 -5 -4 -4 -3
-14 -14 -15 -16 -16 -18 -18 -19 -17 -16 -15 -15 -15 -15 -15 -15 -15 -16 -15 -15 -14 -13 -13 -14 -13 -12 -10 -10 -10 -9 -8 -8 -7 -6 -5 -4 -4 -3
-14 -15 -16 -16 -18 -17 -17 -18 -17 -17 -16 -16 -15 -15 -15 -15 -15 -15 -14 -14 -13 -12 -13 -13 -12 -11 -11 -8 -9 -9 -8 -8 -8 -7 -5 -5 -5 -4
-15 -16 -17 -17 -18 -18 -18 -17 -17 -17 -16 -16 -16 -15 -15 -14 -14 -14 -14 -13 -13 -12 -12 -13 -12 -11 -10 -9 -8 -9 -9 -8 -8 -7 -6 -6 -5 -4
-17 -18 -17 -18 -18 -17 -17 -17 -17 -17 -17 -16 -16 -15 -15 -15 -14 -14 -14 -14 -13 -13 -13 -13 -13 -12 -11 -10 -9 -9 -9 -9 -9 -8 -7 -6 -6 -5
-18 -18 -18 -18 -18 -18 -17 -17 -17 -17 -17 -17 -16 -16 -16 -16 -15 -16 -15 -15 -14 -14 -14 -14 -13 -13 -12 -11 -10 -10 -10 -10 -9 -9 -8 -8 -7 -6
-18 -18 -17 -18 -18 -17 -17 -17 -17 -17 -17 -16 -16 -17 -16 -16 -16 -16 -16 -15 -15 -14 -14 -13 -13 -13 -12 -11 -11 -10 -10 -10 -10 -10 -9 -8 -8 -7
-18 -18 -18 -18 -18 -17 -17 -16 -17 -17 -16 -17 -17 -17 -16 -16 -16 -16 -15 -15 -15 -14 -14 -13 -13 -13 -12 -12 -11 -11 -11 -11 -11 -10 -10 -9 -9 -9
-18 -18 -18 -18 -17 -17 -17 -17 -16 -17 -17 -17 -16 -16 -16 -16 -16 -16 -15 -15 -14 -14 -14 -14 -13 -13 -13 -12 -12 -12 -12 -12 -12 -11 -10 -10 -10 -10
-18 -18 -18 -18 -17 -17 -17 -17 -16 -17 -17 -16 -16 -16 -16 -15 -15 -15 -15 -15 -14 -14 -13 -13 -13 -14 -13 -12 -12 -13 -13 -12 -12 -12 -11 -12 -11 -11
-18 -18 -18 -17 -17 -17 -17 -17 -17 -16 -16 -16 -15 -15 -15 -15 -15 -14 -14 -14 -13 -13 -13 -13 -14 -13 -13 -13 -12 -12 -13 -13 -13 -12 -12 -11 -11 -11
-18 -18 -17 -17 -17 -17 -17 -16 -16 -15 -15 -15 -15 -15 -15 -15 -15 -14 -14 -14 -14 -13 -13 -13 -13 -13 -13 -13 -13 -12 -11 -11 -11 -11 -11 -11 -11 -10
-18 -17 -17 -17 -17 -17 -16 -16 -15 -15 -14 -14 -15 -14 -13 -13 -13 -13 -13 -13 -13 -13 -13 -13 -12 -12 -12 -12 -12 -12 -12 -12 -12 -12 -12 -12 -12 -12

GFSNE_700_temp_003.txt.gz
Temp
-3 -3 -4 -4 -5 -5 -7 -8 -10 -10 -7 -7 -9 -9 -10 -11 -12 -11 -12 -12 -12 -11 -10 -9 -8 -7 -5 -6 -5 -4 -4 -4 -5 -5 -4 -2 -1 -1
-4 -4 -5 -5 -6 -7 -8 -9 -11 -13 -13 -9 -10 -10 -11 -12 -12 -13 -12 -12 -12 -12 -12 -12 -10 -8 -7 -6 -6 -5 -5 -4 -4 -4 -4 -4 -4 -3
-5 -5 -5 -6 -7 -8 -9 -10 -11 -13 -15 -11 -13 -11 -12 -12 -13 -13 -14 -14 -14 -13 -13 -14 -13 -12 -9 -8 -7 -6 -5 -5 -4 -3 -3 -3 -3 -3
-5 -6 -6 -7 -8 -9 -10 -11 -12 -13 -15 -15 -13 -13 -14 -14 -14 -15 -15 -15 -15 -15 -15 -16 -15 -13 -12 -11 -9 -9 -7 -6 -5 -4 -3 -3 -2 -2
-6 -7 -7 -8 -9 -10 -11 -12 -13 -14 -15 -17 -15 -15 -15 -15 -15 -15 -15 -15 -15 -15 -15 -15 -15 -15 -14 -12 -12 -10 -10 -8 -5 -4 -4 -4 -3 -2
-6 -7 -8 -9 -10 -11 -12 -13 -15 -15 -16 -17 -17 -16 -16 -15 -16 -16 -15 -15 -14 -15 -15 -15 -15 -15 -14 -13 -12 -11 -11 -9 -8 -5 -5 -4 -3 -3
-7 -8 -9 -10 -11 -12 -14 -15 -16 -17 -17 -17 -17 -17 -16 -16 -16 -16 -16 -15 -14 -15 -15 -15 -15 -15 -14 -14 -14 -13 -12 -11 -10 -8 -6 -5 -5 -3
-8 -8 -9 -11 -12 -13 -14 -15 -18 -18 -17 -18 -18 -18 -17 -17 -16 -16 -16 -16 -15 -15 -16 -15 -15 -15 -14 -14 -13 -13 -12 -12 -11 -10 -10 -8 -6 -4
-9 -10 -11 -12 -13 -14 -14 -15 -17 -18 -18 -18 -18 -17 -18 -17 -17 -16 -16 -16 -16 -15 -16 -15 -16 -15 -15 -14 -13 -12 -12 -11 -11 -10 -10 -10 -8 -6
-10 -11 -12 -13 -14 -15 -16 -17 -18 -17 -17 -18 -18 -17 -17 -17 -17 -17 -16 -16 -16 -15 -16 -16 -15 -14 -14 -13 -13 -13 -12 -10 -10 -10 -10 -9 -8 -6
-11 -13 -14 -14 -15 -17 -18 -18 -17 -16 -17 -17 -17 -17 -17 -17 -17 -17 -16 -16 -15 -15 -15 -15 -14 -14 -14 -12 -12 -11 -11 -10 -10 -10 -9 -9 -8 -6
-12 -13 -14 -15 -17 -18 -19 -18 -17 -17 -16 -16 -16 -16 -17 -17 -17 -17 -16 -16 -15 -15 -14 -15 -14 -14 -12 -12 -12 -11 -10 -9 -9 -9 -8 -8 -8 -7
-13 -14 -15 -16 -18 -19 -19 -18 -18 -18 -17 -17 -16 -16 -16 -16 -16 -16 -16 -16 -15 -15 -15 -15 -13 -13 -13 -11 -11 -11 -10 -9 -9 -8 -8 -8 -7 -6
-14 -15 -16 -18 -18 -18 -18 -18 -18 -18 -17 -17 -17 -16 -16 -16 -15 -16 -16 -16 -16 -16 -15 -15 -14 -13 -13 -11 -11 -10 -9 -9 -8 -8 -8 -8 -7 -6
-16 -17 -17 -18 -18 -18 -18 -18 -18 -18 -17 -17 -17 -16 -16 -16 -17 -17 -16 -16 -16 -16 -15 -15 -15 -14 -14 -12 -11 -10 -10 -9 -8 -8 -8 -7 -7 -7
-17 -17 -18 -18 -18 -18 -17 -17 -18 -18 -18 -18 -17 -17 -17 -17 -17 -17 -17 -17 -16 -16 -16 -15 -15 -15 -14 -13 -11 -11 -10 -9 -9 -9 -8 -8 -7 -6
-18 -18 -18 -18 -18 -17 -17 -17 -17 -17 -17 -17 -17 -17 -17 -17 -17 -17 -17 -16 -16 -16 -15 -15 -14 -14 -14 -13 -12 -11 -10 -10 -10 -9 -9 -8 -8 -7
-18 -18 -18 -18 -18 -18 -17 -17 -17 -17 -17 -17 -17 -17 -17 -17 -17 -16 -16 -16 -16 -15 -15 -14 -14 -14 -14 -13 -13 -12 -11 -11 -10 -10 -9 -9 -8 -8
-19 -19 -18 -18 -18 -18 -17 -17 -17 -17 -17 -17 -17 -17 -17 -16 -16 -16 -16 -16 -15 -15 -14 -15 -15 -14 -14 -13 -13 -12 -12 -12 -11 -10 -10 -9 -8 -8
-19 -18 -18 -18 -18 -17 -17 -17 -17 -17 -16 -16 -16 -16 -15 -15 -15 -15 -15 -14 -14 -14 -14 -14 -14 -14 -14 -13 -13 -13 -12 -12 -12 -11 -11 -10 -10 -10
-19 -18 -18 -18 -18 -17 -17 -17 -17 -16 -16 -16 -16 -15 -15 -15 -14 -14 -14 -14 -14 -14 -14 -14 -13 -14 -14 -13 -13 -13 -13 -13 -12 -12 -11 -12 -11 -11
-19 -18 -18 -18 -17 -17 -17 -16 -16 -16 -16 -15 -15 -15 -14 -14 -14 -14 -14 -14 -13 -13 -13 -13 -13 -13 -13 -14 -13 -13 -13 -13 -13 -13 -12 -12 -12 -12
-18 -18 -18 -17 -17 -17 -16 -15 -15 -15 -15 -14 -15 -14 -14 -14 -14 -14 -13 -13 -13 -13 -13 -13 -13 -13 -13 -13 -14 -14 -13 -13 -13 -13 -13 -13 -13 -13

GFSNE_700_temp_006.txt.gz
Temp
-3 -3 -4 -4 -4 -5 -5 -6 -7 -6 -4 -4 -6 -7 -9 -11 -11 -13 -13 -11 -11 -11 -11 -11 -11 -11 -11 -11 -11 -9 -8 -7 -6 -6 -5 -5 -5 -4
-4 -4 -4 -4 -5 -5 -6 -6 -8 -10 -9 -6 -7 -9 -10 -11 -12 -14 -14 -13 -13 -13 -14 -14 -14 -14 -14 -14 -14 -13 -10 -8 -8 -7 -6 -6 -5 -5
-4 -5 -5 -5 -6 -6 -7 -7 -8 -10 -12 -8 -10 -10 -11 -12 -13 -13 -15 -15 -15 -14 -14 -14 -14 -14 -15 -15 -13 -13 -12 -12 -10 -9 -7 -6 -6 -5
-5 -5 -6 -6 -7 -7 -8 -8 -10 -11 -13 -13 -11 -12 -13 -13 -14 -14 -14 -15 -16 -15 -15 -14 -14 -14 -14 -14 -14 -13 -13 -12 -11 -10 -10 -8 -6 -5
-6 -7 -7 -7 -8 -8 -9 -9 -11 -11 -13 -15 -14 -14 -14 -15 -15 -14 -15 -15 -15 -16 -15 -14 -14 -15 -14 -14 -14 -13 -13 -13 -12 -11 -10 -8 -6 -5
-7 -8 -8 -8 -9 -9 -10 -11 -12 -14 -15 -16 -17 -17 -17 -16 -17 -17 -16 -15 -15 -15 -14 -15 -15 -15 -15 -15 -15 -14 -14 -14 -13 -12 -11 -9 -7 -6
-8 -8 -9 -9 -10 -11 -13 -14 -15 -16 -17 -18 -18 -18 -17 -17 -17 -17 -17 -16 -14 -15 -15 -15 -15 -15 -15 -15 -15 -15 -14 -14 -13 -13 -12 -10 -7 -6
-9 -9 -10 -10 -11 -12 -13 -15 -17 -17 -18 -18 -18 -18 -18 -18 -17 -17 -17 -16 -14 -16 -16 -14 -15 -14 -15 -15 -15 -15 -15 -14 -14 -14 -13 -11 -9 -6
-10 -10 -10 -12 -13 -13 -14 -15 -18 -18 -19 -19 -19 -18 -18 -18 -19 -18 -17 -17 -16 -15 -16 -15 -15 -14 -15 -14 -15 -15 -14 -14 -14 -13 -13 -11 -9 -7
-11 -12 -12 -12 -14 -15 -16 -18 -18 -19 -18 -18 -18 -19 -19 -19 -18 -18 -18 -17 -16 -16 -16 -15 -15 -14 -14 -14 -14 -14 -15 -15 -14 -13 -12 -11 -8 -6
-12 -12 -14 -14 -15 -18 -18 -18 -19 -18 -18 -18 -17 -17 -18 -18 -18 -18 -17 -17 -15 -15 -15 -16 -15 -14 -14 -14 -14 -14 -15 -14 -13 -12 -11 -11 -10 -8
-12 -13 -15 -16 -17 -18 -19 -19 -19 -18 -18 -17 -17 -17 -17 -17 -17 -17 -17 -18 -16 -15 -16 -16 -15 -15 -13 -13 -13 -14 -13 -13 -12 -11 -10 -9 -9 -9
-14 -15 -15 -16 -18 -19 -20 -19 -19 -20 -17 -18 -17 -17 -17 -16 -17 -17 -17 -18 -18 -17 -17 -17 -16 -15 -15 -13 -12 -13 -12 -11 -11 -10 -9 -9 -8 -9
-16 -16 -16 -17 -18 -18 -18 -18 -18 -18 -18 -17 -17 -16 -17 -17 -17 -17 -17 -18 -18 -17 -17 -17 -17 -16 -15 -13 -12 -12 -12 -11 -10 -9 -9 -8 -8 -8
-17 -17 -17 -18 -18 -18 -18 -18 -18 -18 -18 -17 -17 -17 -17 -17 -17 -17 -17 -17 -17 -17 -17 -16 -16 -15 -15 -14 -12 -11 -11 -10 -10 -9 -9 -8 -8 -7
-18 -18 -18 -18 -18 -19 -18 -18 -18 -18 -18 -17 -17 -17 -17 -17 -17 -17 -17 -17 -16 -16 -17 -16 -15 -15 -15 -14 -13 -12 -11 -10 -9 -9 -8 -8 -7 -7
-19 -18 -18 -18 -18 -18 -17 -18 -18 -17 -17 -17 -17 -17 -17 -16 -16 -17 -16 -16 -16 -16 -16 -15 -15 -14 -14 -14 -12 -12 -11 -10 -10 -10 -9 -9 -8 -7
-18 -18 -19 -18 -18 -18 -18 -17 -17 -17 -17 -17 -16 -16 -16 -16 -16 -16 -16 -16 -16 -16 -15 -15 -15 -15 -14 -14 -13 -12 -11 -10 -10 -10 -10 -9 -8 -8
-18 -18 -18 -18 -18 -18 -18 -18 -17 -17 -17 -16 -16 -15 -16 -15 -15 -15 -15 -15 -15 -15 -15 -15 -15 -14 -14 -13 -13 -12 -12 -11 -11 -10 -10 -9 -9 -9
-18 -18 -18 -18 -18 -18 -18 -17 -17 -16 -16 -16 -15 -15 -15 -15 -14 -14 -14 -14 -14 -14 -14 -15 -14 -14 -14 -13 -12 -12 -12 -12 -11 -11 -10 -9 -8 -9
-18 -18 -18 -18 -18 -18 -17 -17 -16 -16 -16 -16 -15 -15 -15 -15 -14 -14 -14 -14 -14 -14 -14 -14 -14 -14 -14 -13 -13 -13 -13 -13 -12 -11 -11 -10 -10 -10
-18 -18 -18 -18 -18 -17 -16 -16 -16 -16 -15 -15 -16 -15 -15 -15 -14 -14 -14 -14 -14 -13 -13 -13 -14 -13 -14 -13 -13 -13 -13 -13 -13 -13 -12 -12 -11 -10
-17 -17 -17 -17 -17 -16 -16 -15 -15 -15 -15 -16 -15 -15 -14 -14 -14 -14 -14 -14 -14 -13 -13 -13 -13 -13 -14 -14 -14 -13 -13 -13 -13 -13 -13 -13 -13 -12

GFSNE_700_temp_009.txt.gz
Temp
-3 -3 -3 -4 -4 -5 -6 -6 -7 -5 -5 -5 -5 -6 -7 -8 -9 -11 -11 -11 -11 -12 -12 -13 -16 -16 -16 -15 -15 -15 -15 -14 -14 -14 -13 -11 -7 -6
-4 -4 -4 -5 -5 -6 -6 -7 -7 -8 -7 -6 -6 -7 -8 -9 -10 -12 -13 -13 -13 -13 -14 -14 -16 -16 -14 -14 -16 -15 -15 -15 -15 -14 -13 -11 -11 -9
-4 -5 -5 -6 -6 -7 -7 -8 -8 -9 -10 -7 -8 -8 -9 -10 -10 -12 -13 -14 -15 -14 -15 -14 -14 -14 -14 -14 -13 -13 -14 -15 -16 -15 -14 -12 -11 -10
-5 -5 -6 -7 -7 -7 -8 -9 -9 -10 -11 -11 -9 -10 -11 -11 -12 -13 -15 -15 -16 -17 -17 -16 -15 -15 -14 -14 -14 -14 -14 -15 -14 -14 -13 -12 -12 -11
-6 -7 -7 -7 -8 -8 -9 -10 -10 -11 -12 -13 -13 -13 -14 -16 -16 -16 -16 -17 -17 -16 -16 -16 -16 -15 -15 -15 -14 -14 -14 -15 -14 -13 -13 -13 -13 -11
-7 -8 -8 -8 -9 -10 -10 -11 -12 -13 -13 -15 -16 -17 -18 -17 -18 -18 -16 -16 -16 -16 -16 -16 -16 -16 -15 -15 -15 -15 -15 -14 -15 -15 -14 -13 -13 -12
-8 -8 -9 -9 -10 -11 -12 -13 -13 -14 -15 -17 -18 -18 -17 -17 -18 -17 -17 -16 -15 -16 -16 -15 -16 -16 -15 -15 -15 -15 -15 -15 -15 -15 -14 -14 -13 -12
-8 -9 -10 -10 -11 -12 -13 -15 -15 -17 -18 -18 -18 -18 -18 -18 -18 -18 -18 -17 -16 -17 -17 -14 -16 -14 -15 -15 -15 -15 -15 -15 -15 -15 -15 -14 -13 -13
-9 -10 -10 -12 -13 -14 -14 -15 -16 -18 -18 -19 -19 -19 -18 -18 -20 -19 -18 -17 -17 -16 -17 -14 -16 -14 -14 -14 -14 -14 -14 -14 -14 -14 -15 -14 -13 -13
-10 -11 -12 -13 -14 -15 -16 -17 -19 -19 -19 -19 -19 -18 -19 -19 -18 -18 -18 -18 -17 -17 -18 -16 -16 -15 -15 -14 -14 -14 -14 -14 -14 -15 -15 -14 -14 -12
-12 -13 -14 -15 -16 -17 -18 -19 -19 -18 -18 -18 -17 -18 -18 -18 -18 -19 -18 -18 -17 -17 -17 -17 -16 -15 -15 -13 -13 -14 -14 -15 -15 -15 -15 -14 -13 -12
-13 -14 -15 -17 -17 -18 -19 -19 -18 -18 -18 -17 -17 -17 -18 -18 -18 -18 -18 -18 -18 -17 -18 -18 -17 -17 -13 -12 -12 -14 -14 -14 -14 -13 -13 -13 -12 -11
-15 -15 -15 -17 -18 -19 -19 -19 -19 -18 -18 -18 -17 -17 -17 -17 -17 -18 -18 -18 -18 -18 -18 -18 -17 -17 -16 -14 -12 -13 -13 -12 -12 -12 -11 -11 -10 -10
-16 -16 -17 -18 -18 -18 -18 -19 -18 -18 -18 -18 -17 -17 -17 -17 -17 -17 -17 -17 -18 -18 -18 -17 -17 -16 -16 -14 -13 -13 -12 -11 -11 -11 -10 -10 -9 -9
-17 -17 -18 -18 -18 -18 -18 -18 -18 -18 -18 -17 -17 -17 -17 -17 -17 -17 -17 -17 -17 -17 -17 -17 -16 -16 -15 -14 -13 -12 -11 -11 -11 -10 -10 -9 -9 -8
-17 -17 -18 -18 -18 -18 -18 -18 -18 -18 -18 -17 -17 -17 -16 -16 -16 -16 -16 -16 -16 -16 -16 -16 -16 -15 -15 -14 -13 -12 -11 -10 -10 -9 -9 -8 -8 -8
-17 -17 -18 -18 -17 -17 -17 -18 -18 -17 -17 -17 -16 -16 -16 -15 -15 -15 -15 -15 -15 -15 -15 -15 -15 -15 -14 -14 -13 -12 -11 -10 -10 -10 -9 -8 -8 -7
-17 -18 -18 -17 -17 -17 -18 -17 -17 -17 -16 -16 -16 -16 -15 -15 -15 -15 -15 -15 -15 -15 -15 -15 -15 -14 -14 -13 -12 -11 -11 -11 -11 -10 -10 -9 -8 -7
-17 -17 -17 -17 -17 -18 -17 -17 -16 -16 -16 -16 -16 -16 -16 -15 -15 -14 -14 -14 -14 -15 -15 -14 -14 -14 -13 -12 -12 -12 -12 -11 -11 -10 -9 -10 -9 -8
-17 -17 -17 -17 -17 -17 -17 -16 -16 -16 -16 -16 -16 -16 -16 -15 -15 -14 -14 -14 -14 -14 -14 -14 -14 -14 -13 -13 -12 -12 -12 -12 -11 -10 -9 -9 -9 -9
-17 -17 -17 -17 -17 -16 -16 -16 -16 -16 -16 -16 -16 -16 -15 -15 -15 -14 -15 -14 -14 -14 -14 -14 -13 -13 -13 -13 -13 -13 -13 -12 -11 -11 -10 -10 -9 -9
-16 -17 -17 -17 -16 -16 -16 -15 -15 -16 -16 -16 -16 -15 -15 -15 -14 -14 -14 -14 -14 -14 -14 -14 -14 -14 -14 -13 -13 -13 -13 -13 -13 -12 -11 -11 -9 -9
-16 -16 -16 -16 -16 -16 -15 -15 -15 -16 -16 -16 -16 -15 -15 -14 -15 -15 -14 -14 -14 -14 -14 -14 -14 -14 -14 -14 -14 -13 -14 -13 -13 -13 -12 -12 -11 -10

GFSNE_700_temp_012.txt.gz
Temp
-2 -2 -2 -3 -4 -4 -5 -6 -6 -5 -4 -5 -6 -7 -8 -8 -9 -10 -10 -10 -10 -10 -11 -12 -12 -12 -13 -15 -15 -14 -14 -15 -14 -15 -15 -14 -13 -13
-3 -3 -4 -4 -5 -6 -6 -7 -7 -8 -7 -7 -7 -8 -8 -9 -10 -11 -11 -11 -11 -12 -13 -13 -13 -15 -17 -16 -17 -17 -16 -17 -16 -16 -15 -15 -14 -14
-4 -4 -5 -5 -6 -6 -7 -8 -8 -9 -10 -7 -8 -8 -9 -10 -10 -11 -12 -14 -15 -15 -15 -14 -14 -17 -16 -16 -17 -18 -18 -17 -16 -15 -15 -14 -14 -14
-5 -5 -6 -6 -7 -8 -8 -8 -9 -10 -12 -12 -9 -10 -10 -11 -11 -11 -12 -14 -16 -16 -15 -15 -16 -15 -15 -15 -15 -15 -17 -16 -16 -15 -15 -14 -14 -13
-6 -6 -7 -8 -8 -8 -9 -10 -11 -11 -12 -14 -13 -12 -13 -15 -14 -14 -15 -15 -16 -15 -15 -16 -16 -16 -16 -15 -17 -17 -16 -15 -14 -15 -15 -14 -14 -14
-7 -8 -8 -8 -8 -9 -10 -12 -13 -14 -14 -15 -16 -15 -17 -17 -17 -17 -16 -16 -15 -15 -15 -15 -15 -15 -16 -16 -15 -15 -15 -14 -14 -14 -14 -15 -14 -14
-8 -8 -8 -9 -10 -12 -13 -14 -15 -15 -16 -18 -18 -18 -18 -18 -18 -18 -17 -16 -15 -16 -16 -15 -16 -15 -15 -15 -15 -15 -15 -15 -14 -14 -15 -15 -15 -15
-8 -8 -9 -10 -11 -13 -14 -15 -16 -18 -19 -19 -19 -19 -18 -18 -18 -17 -17 -17 -15 -16 -16 -15 -16 -15 -15 -15 -14 -14 -14 -14 -14 -14 -14 -14 -15 -15
-9 -9 -10 -12 -13 -14 -14 -15 -16 -18 -19 -19 -19 -19 -18 -18 -18 -18 -17 -17 -17 -16 -17 -16 -17 -16 -16 -16 -15 -14 -14 -13 -14 -14 -14 -14 -14 -14
-10 -11 -12 -13 -14 -15 -16 -17 -19 -18 -18 -18 -18 -18 -18 -18 -18 -18 -18 -18 -17 -17 -18 -18 -17 -16 -17 -16 -15 -15 -14 -14 -14 -14 -15 -15 -15 -15
-11 -12 -14 -15 -15 -16 -18 -18 -17 -17 -17 -17 -17 -17 -18 -18 -18 -19 -18 -18 -17 -16 -17 -18 -17 -16 -16 -14 -14 -15 -15 -15 -15 -15 -15 -15 -16 -15
-11 -13 -14 -16 -16 -18 -18 -17 -17 -17 -17 -16 -16 -17 -18 -18 -18 -18 -18 -18 -17 -16 -17 -18 -17 -17 -16 -14 -14 -14 -13 -13 -14 -14 -14 -14 -15 -15
-13 -14 -15 -16 -17 -17 -17 -17 -17 -18 -17 -17 -17 -17 -17 -17 -17 -17 -17 -17 -17 -16 -17 -17 -17 -17 -17 -14 -13 -13 -12 -12 -12 -12 -12 -13 -13 -14
-15 -15 -16 -17 -17 -17 -17 -17 -17 -17 -17 -17 -17 -16 -16 -16 -16 -16 -16 -16 -16 -17 -17 -17 -16 -17 -16 -14 -14 -13 -12 -12 -11 -11 -11 -11 -11 -11
-15 -16 -16 -17 -17 -17 -17 -18 -18 -17 -17 -16 -16 -16 -16 -16 -16 -15 -15 -15 -15 -16 -16 -16 -16 -16 -16 -14 -13 -12 -11 -11 -11 -11 -10 -10 -10 -10
-15 -16 -16 -17 -17 -17 -17 -17 -17 -17 -17 -16 -16 -16 -16 -15 -15 -15 -15 -15 -14 -15 -15 -16 -16 -15 -14 -13 -12 -12 -11 -10 -10 -11 -10 -10 -9 -9
-16 -16 -16 -16 -16 -16 -17 -17 -17 -16 -16 -16 -16 -16 -15 -15 -15 -15 -15 -15 -14 -14 -14 -15 -14 -14 -13 -13 -12 -11 -11 -11 -11 -12 -11 -9 -9 -8
-16 -16 -16 -16 -16 -16 -16 -16 -16 -16 -16 -16 -16 -16 -16 -15 -15 -15 -15 -14 -14 -14 -14 -14 -14 -13 -13 -12 -11 -11 -11 -11 -11 -11 -10 -9 -8 -8
-16 -16 -16 -16 -16 -16 -16 -16 -15 -15 -16 -16 -16 -16 -16 -16 -15 -15 -14 -14 -14 -14 -14 -14 -13 -13 -13 -12 -12 -12 -12 -11 -11 -10 -10 -9 -7 -7
-16 -16 -16 -16 -16 -16 -16 -15 -15 -15 -16 -16 -16 -16 -16 -16 -15 -15 -14 -14 -14 -14 -14 -13 -13 -13 -13 -13 -13 -12 -12 -12 -11 -10 -10 -10 -9 -7
-16 -16 -16 -16 -16 -15 -15 -15 -15 -16 -16 -16 -17 -16 -16 -15 -15 -15 -15 -15 -14 -14 -14 -13 -13 -13 -14 -13 -13 -13 -12 -12 -12 -11 -10 -10 -10 -8
-16 -16 -16 -16 -15 -15 -15 -15 -16 -16 -16 -16 -16 -16 -16 -15 -15 -15 -15 -15 -14 -14 -14 -14 -13 -14 -14 -13 -13 -13 -13 -12 -12 -11 -10 -10 -10 -10
-16 -16 -16 -15 -15 -15 -15 -15 -16 -16 -16 -16 -16 -16 -15 -15 -15 -15 -15 -15 -14 -14 -14 -14 -14 -14 -14 -14 -13 -13 -13 -13 -12 -11 -11 -11 -11 -11

GFSNE_700_temp_015.txt.gz
Temp
-2 -2 -2 -3 -3 -4 -5 -6 -6 -4 -1 -3 -5 -7 -8 -8 -9 -9 -10 -10 -11 -11 -10 -10 -10 -10 -10 -10 -10 -9 -11 -13 -14 -13 -13 -13 -13 -13
-3 -3 -3 -3 -4 -5 -6 -7 -7 -8 -6 -6 -7 -8 -9 -10 -11 -11 -12 -12 -13 -13 -13 -13 -13 -13 -12 -12 -12 -13 -14 -15 -15 -15 -15 -14 -14 -15
-4 -4 -4 -4 -5 -6 -7 -7 -8 -9 -9 -7 -8 -9 -9 -11 -12 -13 -14 -15 -16 -15 -16 -15 -15 -14 -14 -16 -17 -17 -17 -16 -16 -16 -17 -16 -15 -14
-4 -4 -5 -6 -6 -7 -7 -8 -9 -10 -11 -11 -9 -10 -12 -13 -14 -14 -15 -16 -18 -18 -17 -16 -15 -15 -15 -16 -15 -15 -16 -16 -16 -16 -15 -15 -15 -14
-5 -6 -6 -7 -7 -8 -8 -9 -10 -10 -12 -14 -13 -13 -14 -15 -15 -15 -16 -17 -18 -18 -16 -17 -16 -16 -16 -15 -15 -15 -16 -16 -17 -16 -16 -15 -14 -14
-7 -7 -7 -8 -8 -9 -9 -10 -12 -13 -14 -15 -15 -16 -17 -17 -18 -18 -17 -18 -17 -16 -16 -16 -16 -16 -16 -16 -15 -15 -15 -15 -15 -15 -15 -15 -14 -14
-7 -8 -8 -9 -9 -10 -11 -12 -13 -15 -15 -16 -16 -18 -18 -18 -18 -18 -17 -16 -16 -16 -17 -16 -17 -16 -15 -16 -16 -15 -15 -15 -14 -14 -14 -14 -14 -14
-8 -8 -9 -9 -10 -12 -13 -14 -15 -17 -17 -19 -19 -18 -18 -18 -17 -17 -17 -17 -15 -16 -17 -15 -17 -16 -16 -16 -16 -16 -16 -15 -14 -14 -14 -14 -14 -15
-9 -9 -9 -10 -12 -13 -13 -15 -17 -16 -18 -19 -18 -17 -17 -17 -17 -17 -17 -17 -16 -16 -18 -16 -17 -16 -16 -16 -16 -16 -16 -15 -14 -13 -14 -13 -13 -14
-10 -10 -11 -12 -13 -14 -15 -16 -16 -16 -17 -17 -17 -17 -18 -18 -18 -17 -17 -17 -16 -16 -18 -17 -16 -15 -16 -15 -16 -17 -16 -14 -14 -13 -13 -13 -14 -14
-10 -11 -12 -13 -14 -15 -16 -16 -16 -16 -16 -16 -17 -17 -17 -17 -17 -17 -17 -16 -15 -15 -16 -17 -16 -16 -15 -15 -15 -16 -15 -14 -13 -12 -12 -13 -14 -15
-10 -12 -13 -14 -15 -15 -16 -16 -15 -16 -15 -15 -16 -16 -17 -17 -16 -17 -16 -16 -16 -14 -16 -16 -16 -16 -15 -14 -15 -15 -13 -12 -12 -12 -12 -12 -13 -14
-12 -12 -13 -14 -15 -15 -16 -16 -16 -16 -16 -16 -16 -16 -15 -15 -16 -16 -16 -16 -16 -15 -16 -17 -16 -16 -17 -14 -14 -14 -13 -12 -12 -12 -12 -13 -13 -13
-13 -13 -14 -14 -15 -15 -16 -16 -16 -16 -16 -16 -15 -15 -15 -15 -15 -15 -15 -15 -15 -16 -16 -16 -16 -16 -15 -14 -13 -13 -13 -12 -12 -12 -12 -12 -12 -13
-14 -14 -15 -15 -15 -15 -16 -16 -16 -16 -16 -15 -15 -15 -15 -15 -15 -14 -15 -15 -15 -15 -15 -15 -15 -15 -15 -14 -12 -12 -11 -11 -11 -11 -11 -11 -11 -11
-14 -15 -15 -15 -16 -16 -16 -16 -16 -16 -15 -15 -15 -15 -16 -15 -15 -15 -14 -14 -14 -14 -15 -15 -14 -14 -13 -13 -12 -12 -12 -11 -11 -11 -11 -11 -11 -10
-15 -15 -15 -15 -15 -16 -16 -16 -16 -15 -15 -16 -16 -15 -15 -15 -15 -15 -15 -14 -14 -14 -14 -14 -14 -13 -13 -13 -12 -12 -11 -12 -12 -11 -11 -10 -10 -9
-15 -15 -15 -16 -15 -15 -15 -15 -15 -15 -16 -16 -16 -16 -15 -15 -15 -15 -15 -14 -14 -14 -14 -14 -13 -13 -13 -13 -12 -12 -12 -12 -12 -11 -11 -10 -9 -8
-16 -16 -16 -15 -15 -15 -15 -15 -15 -16 -16 -17 -17 -16 -16 -16 -15 -15 -14 -14 -14 -14 -14 -14 -13 -13 -13 -13 -13 -12 -12 -12 -12 -12 -11 -10 -8 -9
-16 -16 -15 -15 -15 -15 -15 -15 -16 -16 -16 -17 -17 -17 -16 -16 -15 -15 -15 -14 -14 -14 -14 -14 -13 -13 -13 -13 -13 -12 -12 -12 -11 -12 -11 -9 -8 -8
-15 -16 -15 -15 -15 -15 -15 -16 -16 -16 -16 -17 -17 -17 -16 -16 -15 -15 -15 -15 -14 -14 -14 -14 -13 -13 -14 -13 -13 -13 -12 -12 -11 -11 -10 -8 -8 -8
-16 -15 -15 -15 -15 -15 -16 -16 -16 -16 -16 -16 -16 -16 -16 -16 -15 -15 -15 -14 -14 -14 -14 -14 -14 -14 -14 -13 -13 -13 -13 -12 -11 -11 -11 -10 -8 -8
-15 -15 -15 -15 -15 -15 -15 -15 -15 -15 -16 -16 -16 -15 -15 -15 -15 -15 -15 -15 -14 -14 -14 -14 -14 -14 -14 -14 -14 -14 -14 -13 -12 -11 -11 -11 -10 -9

GFSNE_700_temp_021.txt.gz
Temp
-1 -1 -2 -3 -3 -3 -3 -4 -4 -1 -0 -2 -4 -6 -6 -7 -8 -8 -9 -10 -11 -12 -11 -11 -11 -11 -11 -11 -12 -13 -15 -15 -15 -14 -14 -15 -14 -13
-2 -2 -3 -3 -4 -4 -5 -5 -6 -6 -3 -5 -5 -7 -8 -9 -9 -11 -12 -13 -13 -13 -13 -13 -13 -13 -13 -14 -14 -14 -15 -15 -16 -16 -16 -14 -14 -14
-3 -3 -4 -4 -5 -5 -6 -7 -7 -8 -7 -4 -7 -8 -9 -10 -11 -13 -14 -14 -13 -13 -13 -13 -13 -14 -14 -14 -14 -14 -15 -16 -16 -16 -16 -15 -15 -14
-4 -4 -5 -5 -6 -6 -7 -8 -8 -9 -9 -8 -8 -9 -10 -11 -12 -12 -13 -14 -14 -14 -14 -14 -14 -14 -14 -15 -15 -15 -15 -15 -17 -17 -17 -16 -16 -15
-5 -5 -5 -6 -6 -7 -8 -8 -9 -9 -10 -10 -10 -11 -11 -12 -12 -13 -13 -13 -14 -14 -14 -15 -15 -15 -15 -15 -15 -15 -15 -15 -16 -16 -15 -15 -16 -16
-5 -6 -6 -7 -7 -8 -9 -9 -9 -10 -11 -12 -12 -12 -12 -13 -14 -14 -13 -13 -13 -14 -14 -14 -14 -14 -14 -15 -15 -15 -15 -15 -15 -16 -15 -15 -15 -14
-6 -7 -7 -8 -9 -9 -10 -10 -11 -12 -13 -13 -13 -13 -14 -14 -14 -14 -13 -13 -12 -14 -13 -13 -14 -13 -14 -14 -15 -15 -16 -16 -16 -16 -15 -15 -15 -15
-6 -7 -8 -9 -9 -10 -10 -12 -13 -13 -14 -14 -14 -14 -15 -15 -14 -14 -13 -13 -11 -13 -14 -12 -14 -13 -14 -15 -15 -15 -15 -15 -15 -15 -15 -15 -15 -15
-8 -8 -9 -9 -10 -10 -11 -12 -12 -13 -15 -15 -14 -15 -15 -15 -14 -14 -13 -14 -13 -13 -15 -12 -13 -13 -14 -15 -16 -15 -15 -15 -14 -14 -14 -14 -14 -14
-9 -9 -10 -10 -11 -11 -12 -12 -13 -14 -14 -14 -15 -15 -15 -15 -15 -15 -14 -14 -13 -14 -16 -13 -14 -13 -13 -14 -15 -15 -15 -14 -14 -14 -14 -13 -13 -13
-9 -10 -10 -11 -12 -13 -13 -13 -13 -14 -14 -15 -15 -15 -15 -15 -15 -15 -15 -15 -13 -13 -15 -13 -13 -12 -12 -13 -13 -13 -13 -14 -13 -13 -12 -12 -12 -12
-9 -10 -12 -12 -13 -13 -13 -14 -13 -14 -14 -13 -13 -14 -15 -15 -16 -16 -16 -15 -15 -13 -15 -13 -13 -13 -10 -12 -13 -13 -12 -12 -12 -12 -12 -12 -12 -12
-11 -12 -13 -13 -13 -14 -14 -14 -14 -14 -14 -14 -13 -14 -15 -15 -16 -16 -16 -16 -15 -15 -15 -14 -13 -14 -14 -12 -12 -12 -12 -12 -12 -12 -12 -12 -12 -12
-12 -13 -13 -13 -14 -14 -14 -14 -14 -14 -14 -14 -14 -15 -15 -15 -16 -16 -16 -16 -16 -16 -15 -14 -14 -14 -13 -13 -12 -12 -12 -12 -12 -12 -12 -12 -12 -12
-13 -13 -14 -14 -14 -14 -15 -15 -15 -15 -14 -14 -14 -15 -15 -16 -15 -15 -15 -15 -15 -15 -15 -14 -14 -14 -14 -13 -13 -12 -12 -11 -12 -12 -12 -12 -11 -11
-13 -13 -14 -14 -15 -15 -15 -15 -15 -15 -15 -15 -15 -15 -16 -16 -16 -15 -15 -14 -14 -14 -15 -14 -14 -14 -13 -14 -13 -13 -12 -12 -12 -12 -11 -10 -10 -9
-13 -14 -14 -14 -15 -15 -15 -16 -15 -15 -15 -15 -16 -16 -16 -16 -16 -15 -15 -15 -14 -14 -13 -14 -14 -14 -14 -14 -13 -12 -12 -12 -12 -11 -9 -10 -10 -10
-14 -14 -14 -15 -15 -15 -15 -15 -15 -15 -15 -16 -16 -16 -16 -15 -15 -15 -15 -15 -14 -14 -14 -13 -13 -12 -13 -13 -13 -12 -12 -12 -12 -10 -10 -9 -10 -10
-14 -14 -15 -15 -15 -15 -15 -15 -15 -15 -16 -16 -16 -16 -16 -15 -15 -15 -15 -15 -15 -15 -14 -14 -14 -13 -13 -12 -12 -14 -12 -12 -11 -10 -9 -10 -10 -11
-15 -15 -15 -15 -15 -15 -15 -15 -15 -16 -16 -16 -15 -15 -15 -15 -15 -15 -15 -15 -15 -14 -14 -14 -14 -14 -14 -13 -13 -13 -13 -12 -11 -10 -10 -10 -10 -10
-15 -15 -15 -15 -15 -15 -15 -15 -16 -15 -15 -15 -15 -15 -15 -15 -15 -15 -15 -15 -15 -15 -14 -14 -14 -14 -14 -14 -14 -13 -13 -12 -12 -11 -10 -10 -10 -10
-15 -15 -15 -15 -15 -15 -15 -15 -15 -15 -15 -15 -15 -15 -15 -15 -15 -15 -15 -15 -15 -15 -14 -14 -14 -14 -14 -14 -13 -13 -12 -12 -12 -11 -10 -10 -9 -10
-15 -15 -15 -15 -15 -15 -15 -15 -15 -15 -15 -15 -15 -15 -15 -15 -15 -15 -15 -15 -15 -15 -14 -14 -14 -14 -14 -13 -13 -13 -13 -11 -11 -11 -10 -9 -9 -9

GFSNE_700_temp_024.txt.gz
Temp
-1 -1 -1 -1 -2 -2 -2 -2 -2 -1 -1 -2 -4 -5 -6 -6 -6 -7 -7 -8 -9 -9 -10 -10 -11 -11 -11 -11 -11 -11 -12 -12 -13 -14 -14 -13 -13 -13
-1 -1 -2 -2 -3 -3 -3 -3 -3 -3 -2 -4 -5 -7 -7 -8 -8 -9 -10 -10 -10 -10 -11 -12 -12 -12 -12 -12 -12 -12 -12 -12 -12 -13 -14 -14 -13 -13
-2 -2 -3 -3 -3 -4 -4 -4 -5 -5 -4 -4 -6 -7 -8 -9 -9 -11 -12 -11 -11 -11 -11 -12 -12 -12 -12 -12 -12 -12 -12 -12 -12 -12 -13 -15 -15 -14
-2 -3 -3 -4 -4 -5 -5 -5 -6 -7 -7 -5 -7 -8 -9 -10 -11 -12 -12 -12 -12 -11 -12 -12 -12 -12 -13 -12 -13 -13 -12 -13 -13 -13 -13 -13 -15 -15
-3 -4 -4 -5 -5 -6 -6 -7 -7 -8 -8 -8 -7 -9 -9 -11 -12 -12 -12 -12 -12 -12 -12 -13 -12 -13 -13 -13 -13 -13 -13 -13 -13 -14 -13 -13 -14 -14
-4 -5 -5 -5 -6 -7 -7 -8 -8 -9 -10 -10 -11 -10 -11 -12 -13 -13 -12 -13 -12 -13 -12 -13 -13 -13 -12 -13 -13 -13 -13 -14 -14 -14 -14 -14 -14 -14
-5 -6 -6 -6 -7 -8 -8 -9 -10 -10 -11 -12 -12 -12 -12 -13 -13 -13 -13 -12 -12 -13 -13 -11 -13 -12 -13 -13 -13 -14 -13 -13 -14 -14 -14 -14 -14 -14
-6 -6 -6 -7 -8 -8 -9 -10 -11 -12 -12 -13 -13 -13 -13 -14 -14 -13 -13 -12 -11 -12 -14 -11 -13 -12 -13 -13 -13 -12 -13 -13 -13 -14 -14 -15 -14 -14
-6 -7 -8 -8 -8 -9 -10 -11 -12 -12 -13 -13 -13 -14 -14 -14 -14 -14 -13 -13 -13 -13 -15 -11 -13 -12 -13 -13 -13 -13 -13 -13 -13 -13 -13 -13 -13 -14
-7 -8 -8 -9 -10 -10 -11 -11 -12 -13 -14 -14 -14 -14 -15 -15 -15 -15 -14 -14 -13 -13 -16 -13 -13 -12 -12 -13 -13 -13 -13 -13 -13 -13 -13 -13 -13 -12
-8 -9 -9 -10 -10 -11 -12 -12 -13 -13 -14 -14 -15 -15 -15 -15 -15 -15 -15 -15 -14 -13 -15 -14 -13 -12 -12 -12 -13 -13 -12 -13 -12 -12 -12 -12 -12 -12
-9 -9 -10 -11 -11 -12 -13 -13 -13 -13 -13 -14 -14 -14 -15 -15 -15 -16 -17 -16 -15 -13 -15 -14 -13 -13 -10 -11 -12 -13 -12 -12 -12 -12 -12 -12 -13 -13
-9 -10 -11 -12 -12 -13 -14 -14 -14 -14 -13 -14 -14 -14 -14 -15 -16 -17 -17 -17 -16 -15 -15 -15 -13 -13 -14 -12 -11 -12 -12 -12 -12 -12 -12 -12 -12 -13
-10 -11 -12 -13 -13 -13 -14 -14 -14 -14 -14 -14 -14 -15 -15 -15 -16 -16 -17 -16 -16 -16 -15 -15 -14 -14 -14 -13 -12 -12 -12 -12 -12 -12 -12 -11 -12 -12
-11 -12 -13 -13 -13 -14 -14 -14 -14 -14 -14 -14 -15 -15 -15 -15 -16 -16 -15 -15 -15 -16 -15 -15 -15 -14 -14 -14 -14 -12 -12 -12 -12 -12 -11 -10 -11 -10
-12 -13 -13 -13 -14 -14 -14 -15 -15 -15 -15 -15 -15 -15 -15 -15 -15 -16 -15 -15 -14 -14 -15 -15 -14 -14 -14 -14 -14 -13 -13 -12 -11 -12 -11 -10 -11 -11
-13 -13 -13 -14 -14 -14 -14 -15 -15 -15 -15 -15 -15 -15 -15 -15 -15 -15 -15 -15 -14 -14 -14 -14 -14 -14 -14 -14 -14 -13 -12 -12 -12 -11 -10 -10 -10 -10
-13 -14 -14 -14 -14 -14 -14 -15 -15 -15 -15 -15 -15 -15 -15 -15 -15 -15 -15 -15 -15 -15 -14 -14 -13 -13 -13 -13 -14 -13 -12 -12 -11 -11 -11 -10 -10 -10
-14 -14 -14 -14 -14 -15 -15 -15 -15 -15 -15 -15 -15 -15 -15 -15 -15 -15 -15 -15 -15 -15 -15 -14 -14 -14 -13 -12 -12 -14 -12 -12 -11 -11 -10 -10 -11 -11
-14 -14 -14 -14 -15 -15 -15 -15 -15 -15 -15 -15 -15 -15 -15 -15 -15 -15 -15 -15 -15 -15 -14 -15 -14 -14 -14 -14 -12 -13 -13 -12 -12 -11 -10 -10 -11 -11
-14 -15 -15 -15 -15 -15 -15 -15 -15 -15 -15 -15 -15 -15 -15 -15 -15 -15 -15 -15 -15 -15 -14 -14 -14 -14 -14 -14 -13 -12 -12 -12 -12 -11 -10 -10 -10 -10
-14 -15 -15 -15 -15 -15 -15 -15 -15 -15 -15 -15 -15 -15 -15 -15 -15 -15 -15 -15 -15 -15 -14 -14 -14 -14 -14 -14 -13 -12 -11 -11 -12 -10 -10 -10 -10 -9
-14 -14 -15 -15 -15 -14 -14 -15 -15 -15 -15 -15 -15 -15 -15 -15 -15 -15 -15 -15 -15 -15 -15 -14 -14 -14 -14 -14 -13 -12 -12 -11 -10 -10 -10 -10 -9 -10

GFSNE_700_temp_027.txt.gz
Temp
-0 -0 -1 -1 -1 -1 -2 -2 -2 -2 -1 -2 -3 -3 -4 -4 -4 -4 -5 -5 -7 -7 -8 -8 -8 -9 -9 -9 -9 -9 -9 -9 -9 -10 -10 -11 -11 -13
-1 -1 -1 -1 -2 -2 -3 -3 -3 -3 -2 -3 -4 -5 -5 -6 -6 -7 -7 -8 -9 -9 -10 -10 -11 -10 -10 -10 -10 -10 -10 -10 -10 -10 -10 -12 -13 -13
-1 -1 -2 -2 -3 -3 -3 -3 -4 -4 -4 -4 -5 -6 -7 -7 -8 -9 -10 -10 -10 -10 -11 -11 -11 -12 -11 -11 -11 -11 -11 -11 -11 -11 -11 -11 -12 -14
-2 -2 -2 -3 -3 -4 -4 -4 -4 -5 -5 -5 -6 -7 -8 -9 -10 -10 -11 -11 -11 -11 -11 -12 -12 -12 -12 -12 -11 -11 -11 -11 -11 -11 -11 -11 -11 -12
-2 -3 -3 -4 -4 -4 -5 -5 -5 -6 -6 -6 -6 -8 -10 -11 -10 -12 -12 -12 -12 -12 -12 -12 -12 -12 -12 -12 -12 -12 -12 -12 -12 -12 -12 -13 -13 -12
-3 -4 -4 -4 -5 -5 -6 -6 -6 -7 -7 -8 -9 -10 -11 -11 -12 -13 -12 -12 -12 -12 -12 -12 -12 -12 -12 -12 -12 -12 -12 -11 -12 -12 -12 -12 -13 -13
-4 -4 -5 -5 -5 -6 -6 -6 -7 -8 -9 -10 -11 -11 -10 -12 -13 -13 -13 -12 -12 -12 -12 -12 -12 -12 -12 -13 -13 -12 -12 -11 -12 -12 -12 -12 -13 -13
-4 -5 -6 -6 -6 -6 -7 -8 -9 -10 -11 -12 -11 -12 -12 -13 -13 -14 -13 -13 -12 -12 -13 -12 -13 -12 -12 -13 -12 -13 -12 -12 -12 -12 -12 -12 -12 -13
-5 -6 -6 -6 -7 -8 -8 -9 -10 -11 -12 -13 -12 -13 -13 -14 -14 -14 -13 -13 -12 -13 -14 -14 -13 -12 -12 -12 -13 -13 -13 -12 -12 -13 -13 -13 -13 -12
-6 -6 -7 -7 -8 -9 -10 -10 -11 -12 -13 -13 -13 -14 -14 -14 -15 -15 -14 -14 -12 -13 -15 -15 -13 -12 -12 -12 -13 -13 -13 -13 -13 -12 -12 -12 -12 -13
-6 -7 -8 -8 -9 -10 -11 -11 -12 -12 -13 -14 -14 -14 -14 -15 -15 -15 -15 -15 -14 -12 -14 -15 -13 -12 -11 -11 -13 -13 -13 -13 -13 -12 -12 -13 -12 -13
-7 -8 -9 -10 -10 -11 -12 -12 -12 -13 -13 -13 -14 -14 -14 -14 -15 -15 -16 -16 -16 -13 -15 -15 -13 -14 -11 -11 -11 -12 -12 -12 -12 -12 -12 -12 -13 -13
-8 -9 -10 -11 -11 -12 -13 -13 -13 -13 -13 -13 -14 -14 -14 -15 -15 -16 -16 -17 -17 -15 -16 -15 -14 -14 -14 -12 -11 -12 -12 -12 -12 -11 -12 -12 -12 -12
-9 -10 -11 -11 -12 -13 -13 -13 -14 -14 -14 -14 -14 -14 -15 -15 -15 -16 -16 -16 -16 -16 -15 -16 -15 -15 -14 -13 -12 -11 -12 -12 -12 -12 -12 -12 -11 -11
-11 -11 -12 -12 -13 -13 -14 -14 -14 -14 -14 -14 -15 -15 -15 -15 -15 -15 -15 -15 -15 -15 -16 -16 -15 -15 -15 -14 -13 -12 -13 -12 -12 -12 -12 -11 -11 -10
-11 -12 -12 -13 -13 -13 -14 -14 -14 -15 -15 -15 -15 -15 -15 -15 -15 -15 -14 -15 -14 -14 -15 -16 -15 -15 -15 -14 -14 -13 -13 -13 -12 -12 -12 -11 -10 -10
-12 -12 -13 -13 -13 -14 -14 -14 -15 -15 -15 -15 -15 -15 -15 -14 -14 -15 -15 -15 -15 -15 -14 -15 -15 -15 -14 -14 -14 -14 -13 -12 -12 -12 -12 -10 -10 -10
-12 -13 -13 -13 -14 -14 -14 -14 -15 -15 -15 -15 -15 -15 -15 -14 -14 -15 -15 -15 -15 -15 -15 -15 -14 -13 -13 -13 -14 -14 -13 -12 -12 -12 -11 -10 -9 -10
-14 -14 -14 -14 -14 -14 -15 -15 -15 -15 -15 -15 -15 -15 -15 -15 -15 -15 -15 -15 -15 -15 -15 -15 -14 -14 -13 -12 -13 -14 -14 -13 -11 -10 -11 -10 -10 -10
-14 -14 -14 -14 -14 -15 -15 -15 -15 -15 -15 -15 -15 -15 -15 -15 -15 -15 -15 -15 -15 -15 -14 -15 -15 -14 -14 -14 -12 -13 -13 -12 -11 -10 -9 -9 -10 -10
-14 -14 -14 -14 -15 -15 -15 -15 -15 -15 -15 -15 -15 -15 -15 -15 -15 -15 -15 -16 -15 -15 -14 -14 -14 -14 -14 -13 -13 -12 -12 -12 -12 -11 -9 -9 -9 -9
-14 -14 -15 -15 -15 -15 -15 -15 -15 -15 -15 -15 -15 -15 -15 -15 -15 -15 -15 -16 -15 -15 -14 -15 -14 -14 -14 -14 -13 -12 -12 -11 -11 -11 -11 -11 -11 -9
-14 -15 -15 -15 -14 -14 -14 -14 -15 -15 -15 -14 -14 -15 -15 -15 -15 -15 -15 -15 -15 -15 -15 -14 -14 -14 -14 -14 -14 -13 -12 -11 -11 -10 -10 -10 -11 -11

GFSNE_700_temp_030.txt.gz
Temp
0 0 -0 -0 -1 -1 -1 -1 -2 -1 -1 -1 -1 -2 -2 -3 -3 -3 -3 -4 -4 -5 -6 -7 -7 -8 -8 -8 -9 -9 -10 -10 -10 -10 -10 -10 -10 -11
0 -0 -0 -1 -1 -1 -2 -2 -3 -3 -2 -2 -2 -3 -3 -4 -4 -5 -5 -6 -7 -8 -8 -9 -9 -10 -10 -10 -10 -10 -10 -10 -10 -10 -10 -10 -10 -11
-0 -1 -1 -1 -1 -2 -3 -3 -3 -4 -3 -3 -3 -4 -4 -5 -6 -6 -7 -8 -9 -9 -10 -10 -11 -11 -11 -11 -11 -11 -11 -10 -10 -10 -10 -10 -10 -10
-1 -1 -2 -2 -2 -3 -3 -4 -4 -4 -4 -4 -4 -5 -6 -7 -8 -8 -9 -10 -10 -10 -11 -11 -12 -12 -12 -12 -11 -11 -11 -11 -11 -10 -10 -11 -11 -10
-1 -2 -2 -3 -3 -4 -4 -4 -4 -5 -5 -6 -6 -7 -8 -9 -9 -10 -11 -11 -11 -11 -12 -12 -12 -12 -12 -12 -12 -12 -11 -11 -11 -11 -11 -11 -11 -11
-2 -2 -3 -3 -4 -4 -4 -5 -5 -6 -6 -7 -7 -9 -10 -10 -11 -11 -11 -12 -11 -12 -12 -12 -12 -12 -12 -12 -13 -12 -12 -12 -11 -11 -11 -11 -11 -11
-3 -3 -4 -4 -4 -5 -5 -5 -6 -6 -7 -8 -9 -10 -11 -11 -12 -12 -12 -12 -11 -12 -12 -12 -12 -12 -12 -13 -13 -13 -13 -12 -12 -11 -11 -11 -11 -11
-4 -4 -4 -5 -5 -6 -6 -7 -8 -8 -9 -10 -11 -11 -12 -13 -13 -13 -13 -12 -11 -12 -12 -12 -13 -12 -13 -13 -13 -13 -13 -12 -12 -12 -12 -12 -12 -11
-4 -4 -5 -6 -6 -6 -7 -7 -9 -10 -11 -12 -12 -12 -12 -13 -13 -13 -14 -13 -13 -13 -14 -12 -14 -13 -12 -12 -13 -14 -13 -13 -13 -12 -12 -12 -12 -12
-5 -5 -6 -6 -6 -7 -8 -8 -9 -11 -12 -12 -12 -13 -13 -13 -14 -14 -14 -13 -13 -14 -15 -13 -14 -12 -12 -12 -13 -13 -14 -14 -13 -13 -13 -12 -13 -12
-6 -6 -7 -7 -8 -8 -9 -10 -11 -11 -12 -13 -13 -14 -14 -14 -14 -14 -14 -13 -13 -13 -14 -14 -13 -12 -11 -11 -12 -13 -13 -14 -14 -13 -13 -13 -13 -12
-6 -7 -8 -9 -9 -10 -11 -11 -11 -12 -12 -13 -13 -14 -14 -14 -15 -15 -15 -14 -14 -12 -15 -15 -14 -14 -11 -11 -11 -13 -13 -13 -13 -13 -13 -13 -13 -12
-7 -8 -9 -10 -10 -11 -12 -12 -13 -13 -13 -13 -13 -14 -14 -14 -14 -15 -15 -15 -14 -14 -15 -16 -14 -14 -15 -12 -11 -13 -13 -13 -13 -12 -13 -13 -12 -12
-8 -9 -10 -11 -12 -12 -13 -13 -13 -13 -14 -14 -14 -14 -14 -14 -14 -15 -14 -15 -15 -15 -15 -16 -15 -15 -15 -14 -13 -12 -13 -13 -13 -12 -12 -12 -12 -12
-9 -10 -11 -12 -13 -13 -13 -13 -14 -14 -14 -14 -14 -14 -14 -14 -14 -14 -15 -15 -15 -15 -15 -16 -16 -16 -15 -15 -14 -13 -13 -12 -13 -12 -12 -12 -12 -12
-10 -12 -12 -13 -13 -13 -14 -14 -14 -14 -14 -14 -14 -15 -15 -15 -15 -15 -14 -15 -14 -14 -15 -16 -16 -16 -15 -15 -15 -14 -14 -13 -12 -12 -12 -11 -11 -12
-11 -12 -13 -13 -13 -14 -14 -14 -15 -15 -14 -15 -15 -15 -15 -15 -15 -15 -15 -15 -15 -15 -14 -15 -15 -15 -15 -15 -14 -14 -14 -13 -13 -12 -12 -11 -11 -12
-12 -13 -13 -13 -14 -14 -14 -14 -15 -15 -15 -15 -15 -15 -15 -15 -15 -15 -15 -15 -15 -15 -15 -15 -15 -14 -13 -13 -15 -14 -14 -13 -12 -12 -12 -12 -10 -11
-13 -14 -14 -14 -14 -14 -14 -14 -14 -15 -15 -15 -15 -15 -15 -15 -15 -15 -15 -15 -15 -15 -15 -15 -15 -15 -14 -12 -13 -14 -14 -13 -12 -12 -11 -11 -10 -10
-14 -14 -14 -14 -14 -14 -15 -15 -15 -15 -15 -15 -15 -15 -15 -15 -15 -15 -15 -15 -15 -15 -15 -15 -15 -15 -15 -14 -13 -12 -13 -13 -12 -11 -10 -10 -10 -9
-14 -14 -14 -14 -14 -14 -14 -14 -15 -15 -15 -15 -15 -15 -15 -15 -15 -15 -15 -15 -16 -15 -15 -15 -15 -15 -15 -14 -13 -12 -12 -12 -12 -12 -11 -10 -9 -8
-15 -14 -14 -14 -14 -14 -14 -14 -14 -14 -14 -14 -14 -15 -15 -15 -15 -15 -15 -15 -15 -15 -15 -14 -15 -14 -14 -14 -14 -13 -12 -11 -12 -12 -12 -12 -11 -10
-15 -15 -15 -14 -14 -14 -14 -14 -14 -14 -14 -14 -14 -14 -14 -14 -15 -15 -15 -15 -15 -14 -15 -14 -14 -14 -14 -14 -13 -13 -12 -12 -11 -11 -11 -11 -11 -12

GFSNE_700_temp_033.txt.gz
Temp
0 -0 -0 -0 -0 -0 -0 -1 -0 0 0 -0 -0 -1 -1 -1 -2 -2 -2 -3 -3 -4 -4 -5 -5 -6 -7 -8 -8 -9 -9 -9 -10 -10 -10 -10 -10 -10
-0 -0 -0 -1 -1 -1 -1 -1 -1 -1 -1 -1 -1 -2 -2 -2 -3 -3 -3 -4 -5 -6 -6 -7 -8 -8 -9 -9 -10 -10 -10 -11 -11 -10 -10 -11 -11 -11
-1 -1 -1 -1 -1 -1 -2 -2 -2 -2 -2 -2 -3 -3 -3 -3 -3 -4 -5 -5 -6 -7 -8 -9 -9 -10 -10 -10 -11 -11 -11 -11 -11 -11 -11 -10 -10 -10
-2 -2 -2 -2 -2 -2 -2 -2 -3 -3 -3 -3 -3 -3 -4 -5 -5 -6 -6 -7 -8 -9 -10 -10 -10 -11 -11 -11 -11 -11 -11 -11 -11 -10 -10 -10 -11 -10
-2 -2 -2 -2 -2 -3 -3 -3 -3 -4 -4 -4 -4 -5 -5 -6 -6 -7 -8 -9 -10 -10 -11 -11 -11 -11 -12 -12 -12 -11 -11 -11 -11 -11 -11 -11 -11 -11
-2 -3 -3 -3 -3 -3 -3 -4 -4 -4 -5 -5 -5 -6 -7 -7 -8 -9 -9 -10 -10 -11 -11 -11 -11 -11 -12 -12 -12 -12 -12 -13 -12 -12 -11 -11 -11 -11
-3 -3 -3 -3 -4 -4 -4 -5 -5 -5 -6 -6 -7 -7 -8 -9 -10 -10 -10 -10 -10 -11 -11 -11 -11 -12 -12 -12 -12 -13 -13 -14 -13 -12 -12 -12 -11 -11
-3 -3 -4 -4 -5 -5 -6 -6 -6 -7 -8 -8 -9 -9 -10 -11 -11 -11 -11 -11 -10 -12 -11 -11 -12 -12 -12 -12 -12 -13 -13 -14 -13 -12 -12 -12 -12 -12
-4 -4 -5 -5 -5 -5 -6 -6 -7 -8 -9 -10 -10 -11 -12 -13 -12 -12 -12 -12 -12 -12 -12 -11 -12 -11 -12 -12 -13 -13 -14 -14 -14 -12 -12 -12 -12 -12
-4 -5 -5 -5 -6 -6 -6 -7 -8 -9 -10 -11 -12 -12 -13 -13 -13 -13 -13 -13 -12 -13 -14 -12 -12 -11 -12 -12 -13 -13 -14 -14 -14 -13 -13 -12 -12 -12
-5 -6 -6 -6 -6 -7 -8 -9 -9 -10 -11 -12 -13 -13 -14 -14 -14 -14 -14 -13 -12 -13 -13 -14 -12 -12 -12 -12 -13 -13 -14 -14 -14 -14 -13 -13 -12 -12
-6 -6 -7 -7 -8 -8 -9 -10 -10 -11 -12 -12 -13 -14 -14 -14 -15 -15 -15 -14 -14 -13 -14 -14 -13 -14 -11 -11 -12 -13 -13 -14 -14 -14 -13 -13 -13 -13
-6 -7 -7 -8 -9 -10 -10 -11 -12 -12 -12 -13 -13 -14 -14 -14 -15 -15 -15 -15 -14 -14 -15 -15 -14 -14 -15 -13 -12 -13 -13 -14 -14 -13 -13 -13 -13 -13
-7 -8 -9 -9 -10 -11 -12 -12 -13 -13 -13 -13 -13 -14 -14 -14 -14 -15 -15 -15 -15 -15 -15 -16 -15 -15 -15 -14 -13 -13 -13 -14 -13 -13 -13 -13 -13 -13
-8 -9 -10 -11 -11 -12 -13 -13 -13 -14 -14 -14 -14 -14 -14 -14 -14 -15 -15 -15 -15 -15 -15 -16 -16 -16 -15 -15 -14 -13 -14 -13 -14 -13 -13 -12 -12 -12
-10 -10 -11 -12 -13 -13 -13 -14 -14 -14 -14 -14 -14 -14 -14 -15 -15 -15 -15 -15 -14 -15 -15 -16 -16 -16 -15 -15 -15 -14 -14 -14 -14 -13 -13 -12 -12 -12
-11 -12 -12 -13 -13 -14 -14 -14 -15 -15 -14 -14 -14 -14 -14 -15 -15 -15 -15 -15 -15 -15 -14 -15 -15 -15 -15 -15 -15 -14 -14 -14 -13 -13 -12 -11 -11 -11
-12 -13 -13 -13 -13 -14 -14 -14 -15 -14 -14 -14 -14 -15 -14 -14 -14 -15 -15 -15 -15 -15 -15 -15 -15 -14 -14 -14 -15 -14 -13 -13 -12 -12 -12 -11 -9 -11
-14 -14 -14 -14 -14 -14 -14 -14 -14 -14 -14 -14 -14 -14 -15 -14 -15 -15 -15 -15 -15 -15 -15 -15 -15 -15 -14 -12 -13 -14 -14 -13 -13 -12 -12 -11 -10 -10
-14 -14 -14 -14 -14 -14 -14 -14 -14 -14 -14 -14 -14 -14 -15 -15 -15 -15 -15 -15 -15 -15 -14 -15 -15 -15 -15 -14 -12 -12 -14 -13 -13 -12 -11 -11 -11 -10
-15 -15 -14 -14 -14 -14 -14 -14 -13 -13 -14 -14 -14 -14 -14 -15 -15 -15 -15 -15 -15 -15 -14 -14 -14 -15 -14 -14 -13 -12 -12 -13 -13 -13 -12 -12 -11 -11
-14 -14 -14 -14 -14 -13 -13 -13 -13 -13 -14 -14 -14 -14 -14 -14 -15 -15 -15 -15 -15 -15 -14 -14 -14 -14 -14 -14 -13 -13 -12 -12 -12 -13 -13 -13 -13 -13
-14 -14 -14 -14 -13 -13 -13 -13 -13 -13 -13 -14 -14 -14 -14 -14 -14 -14 -14 -14 -14 -14 -14 -14 -13 -14 -14 -14 -14 -13 -12 -12 -12 -11 -12 -12 -13 -13

GFSNE_700_temp_039.txt.gz
Temp
0 1 0 -0 -1 -2 -2 -2 -1 -1 -0 -1 -0 -0 -0 -1 -1 -1 -1 -1 -1 -1 -1 -1 -1 -1 -1 -1 -1 -1 -1 -2 -3 -4 -5 -5 -6 -6
1 0 -0 -0 -1 -2 -3 -2 -2 -2 -1 -1 -1 -1 -1 -1 -2 -2 -2 -1 -2 -2 -2 -2 -2 -2 -2 -3 -3 -4 -4 -5 -6 -7 -7 -7 -8 -8
1 1 -1 -0 -1 -2 -4 -3 -2 -2 -2 -1 -2 -2 -2 -2 -2 -3 -3 -3 -3 -3 -3 -3 -3 -4 -4 -4 -5 -6 -7 -8 -8 -8 -8 -9 -9 -9
1 -1 -1 -1 -1 -3 -4 -3 -3 -3 -2 -2 -2 -2 -3 -3 -3 -3 -3 -4 -4 -5 -5 -6 -6 -6 -7 -8 -9 -9 -9 -9 -9 -9 -9 -9 -9 -10
-1 -1 -1 -2 -3 -4 -4 -3 -3 -3 -3 -3 -3 -3 -3 -3 -3 -3 -4 -4 -5 -6 -7 -7 -8 -9 -10 -10 -10 -10 -10 -10 -9 -10 -10 -10 -10 -10
-1 -2 -4 -4 -3 -3 -3 -3 -4 -3 -3 -4 -4 -4 -4 -4 -4 -5 -4 -6 -6 -8 -9 -9 -10 -11 -11 -11 -11 -11 -10 -10 -10 -10 -10 -10 -10 -10
-3 -4 -3 -4 -4 -3 -5 -4 -4 -4 -4 -4 -4 -4 -5 -5 -6 -6 -7 -7 -8 -9 -10 -11 -11 -11 -12 -12 -12 -12 -11 -11 -11 -11 -11 -11 -11 -11
-3 -3 -4 -4 -4 -4 -5 -4 -5 -4 -5 -5 -5 -6 -6 -7 -8 -8 -9 -9 -9 -11 -12 -11 -11 -11 -12 -12 -12 -12 -12 -12 -12 -12 -12 -12 -12 -11
-4 -4 -4 -4 -5 -5 -5 -5 -5 -5 -6 -7 -7 -8 -9 -10 -10 -10 -10 -11 -12 -12 -13 -10 -12 -12 -12 -12 -12 -12 -13 -13 -13 -12 -12 -12 -12 -12
-4 -3 -4 -5 -5 -5 -5 -5 -6 -6 -7 -9 -9 -10 -10 -11 -11 -11 -11 -12 -11 -12 -14 -11 -13 -13 -13 -13 -13 -13 -14 -14 -13 -13 -13 -13 -13 -13
-4 -5 -5 -5 -5 -6 -6 -7 -7 -9 -9 -10 -11 -11 -12 -12 -13 -13 -13 -13 -12 -13 -14 -14 -13 -13 -13 -12 -13 -14 -14 -14 -14 -14 -14 -14 -14 -14
-5 -5 -5 -6 -6 -7 -8 -8 -8 -9 -10 -11 -12 -13 -13 -14 -14 -14 -14 -14 -14 -13 -14 -14 -14 -14 -12 -12 -12 -13 -14 -14 -15 -14 -14 -14 -14 -14
-5 -6 -6 -7 -8 -8 -9 -10 -10 -11 -11 -12 -12 -13 -13 -14 -14 -14 -15 -14 -14 -14 -15 -15 -14 -14 -15 -13 -12 -13 -14 -14 -14 -14 -14 -14 -14 -14
-5 -6 -7 -8 -9 -9 -10 -11 -12 -12 -12 -12 -13 -13 -13 -14 -14 -14 -14 -15 -14 -14 -15 -16 -15 -15 -15 -14 -13 -13 -14 -14 -14 -14 -14 -14 -14 -14
-7 -8 -9 -10 -11 -11 -12 -13 -13 -13 -13 -13 -13 -13 -13 -13 -14 -14 -14 -14 -14 -15 -15 -15 -16 -16 -15 -15 -15 -14 -14 -14 -14 -14 -14 -13 -13 -14
-9 -10 -11 -11 -12 -12 -13 -13 -12 -12 -13 -12 -13 -13 -13 -13 -14 -14 -14 -14 -14 -14 -15 -16 -15 -15 -15 -15 -15 -14 -14 -14 -14 -14 -14 -13 -13 -13
-10 -11 -12 -12 -13 -13 -13 -13 -13 -13 -13 -13 -13 -13 -13 -13 -14 -14 -14 -14 -14 -14 -14 -15 -15 -15 -15 -15 -15 -14 -14 -14 -14 -14 -14 -13 -13 -13
-12 -13 -13 -13 -13 -13 -13 -13 -13 -13 -13 -13 -13 -13 -13 -13 -13 -13 -14 -14 -14 -14 -14 -14 -14 -14 -14 -14 -14 -14 -13 -13 -13 -13 -13 -12 -11 -12
-13 -13 -12 -13 -13 -13 -13 -13 -13 -13 -12 -12 -13 -13 -13 -13 -13 -14 -14 -14 -14 -14 -14 -14 -14 -14 -14 -13 -13 -14 -15 -14 -14 -13 -13 -13 -12 -12
-12 -12 -12 -12 -12 -13 -12 -12 -12 -12 -12 -12 -13 -13 -13 -13 -14 -14 -14 -14 -14 -14 -14 -14 -14 -14 -14 -14 -13 -13 -14 -13 -14 -13 -13 -13 -13 -13
-12 -12 -12 -12 -12 -12 -12 -12 -12 -12 -12 -12 -13 -13 -13 -13 -14 -14 -14 -14 -14 -14 -13 -13 -14 -14 -14 -14 -13 -12 -13 -13 -13 -13 -14 -14 -14 -13
-12 -12 -12 -12 -12 -12 -12 -12 -12 -12 -12 -13 -13 -13 -13 -13 -14 -14 -14 -14 -14 -14 -13 -13 -14 -14 -14 -14 -13 -13 -13 -12 -13 -13 -14 -14 -14 -14
-11 -12 -12 -12 -12 -12 -12 -12 -12 -12 -12 -12 -13 -13 -13 -13 -13 -13 -13 -13 -13 -13 -14 -13 -13 -13 -14 -14 -14 -13 -13 -12 -12 -11 -12 -13 -14 -14

GFSNE_700_temp_042.txt.gz
Temp
1 1 1 0 0 -0 -0 -0 -0 -1 -2 -1 -3 -2 -2 -2 -2 -2 -1 -1 -1 -1 -1 -1 -1 -1 -1 -1 -1 -1 -1 -1 -1 -1 -1 -1 -2 -2
0 1 1 0 0 0 -0 -1 -1 -2 -2 -2 -3 -3 -3 -3 -2 -2 -2 -2 -2 -2 -2 -2 -2 -2 -2 -2 -2 -2 -2 -2 -2 -3 -3 -4 -5 -5
1 1 0 1 -0 -0 -1 -1 -1 -2 -3 -3 -3 -3 -3 -3 -3 -3 -3 -3 -3 -3 -3 -3 -3 -3 -3 -3 -3 -4 -4 -5 -6 -6 -7 -8 -8 -8
1 0 0 -0 -0 -0 -1 -1 -2 -4 -4 -3 -3 -3 -3 -3 -3 -3 -3 -3 -3 -4 -4 -4 -4 -4 -4 -5 -6 -6 -7 -8 -9 -9 -9 -9 -9 -9
0 -0 -0 -1 -1 -1 -3 -4 -4 -4 -4 -3 -3 -3 -3 -4 -4 -4 -4 -4 -4 -4 -5 -6 -6 -7 -8 -8 -8 -9 -10 -10 -10 -10 -10 -10 -10 -10
-1 -0 -1 -1 -3 -3 -3 -4 -4 -4 -4 -4 -4 -4 -4 -5 -5 -5 -4 -5 -5 -6 -7 -8 -8 -9 -10 -11 -11 -11 -11 -11 -11 -11 -11 -11 -11 -10
-1 -1 -2 -3 -3 -3 -4 -4 -4 -4 -5 -5 -4 -4 -5 -5 -6 -6 -6 -6 -6 -8 -9 -10 -11 -12 -12 -13 -12 -13 -12 -12 -12 -12 -12 -12 -11 -11
-2 -3 -3 -4 -4 -4 -4 -4 -4 -5 -5 -5 -5 -5 -6 -7 -7 -7 -8 -8 -8 -10 -11 -11 -12 -11 -13 -12 -13 -13 -13 -13 -13 -12 -12 -12 -12 -12
-4 -4 -4 -4 -4 -4 -5 -5 -5 -6 -6 -6 -6 -7 -8 -9 -9 -10 -10 -10 -11 -11 -12 -10 -12 -12 -12 -12 -13 -13 -13 -13 -13 -13 -13 -13 -12 -12
-4 -4 -4 -4 -4 -4 -5 -5 -6 -7 -8 -8 -8 -9 -10 -11 -11 -11 -11 -11 -11 -12 -14 -11 -12 -12 -12 -12 -13 -14 -14 -14 -14 -14 -13 -13 -13 -13
-4 -4 -4 -4 -5 -5 -6 -6 -7 -7 -8 -9 -10 -11 -12 -12 -12 -12 -12 -12 -12 -12 -13 -13 -13 -12 -12 -12 -13 -13 -14 -14 -14 -14 -14 -14 -14 -13
-4 -4 -4 -5 -6 -6 -6 -7 -8 -9 -10 -11 -12 -12 -12 -12 -13 -13 -13 -12 -13 -12 -13 -14 -13 -14 -12 -12 -12 -13 -14 -14 -14 -14 -14 -14 -14 -14
-4 -5 -6 -6 -7 -8 -8 -9 -10 -10 -11 -11 -12 -12 -13 -13 -13 -13 -13 -13 -13 -13 -14 -15 -14 -14 -14 -13 -12 -13 -13 -13 -14 -14 -14 -14 -14 -14
-5 -6 -7 -7 -8 -9 -10 -10 -11 -11 -11 -12 -12 -12 -12 -12 -13 -13 -13 -13 -14 -14 -15 -15 -14 -15 -14 -14 -13 -13 -14 -14 -14 -13 -13 -14 -14 -14
-7 -7 -8 -9 -10 -11 -11 -11 -11 -11 -12 -12 -12 -12 -12 -12 -12 -12 -13 -13 -14 -14 -15 -15 -15 -15 -14 -14 -13 -13 -14 -13 -14 -14 -13 -13 -13 -14
-9 -10 -10 -11 -11 -11 -11 -11 -11 -12 -11 -11 -11 -11 -12 -12 -13 -13 -13 -13 -13 -13 -14 -15 -15 -15 -14 -14 -14 -14 -14 -14 -14 -14 -14 -13 -13 -13
-10 -11 -11 -11 -11 -11 -11 -11 -11 -11 -11 -11 -11 -12 -12 -12 -13 -13 -13 -13 -13 -13 -13 -14 -14 -14 -14 -14 -14 -14 -14 -14 -14 -13 -13 -13 -13 -13
-11 -11 -11 -11 -11 -11 -11 -11 -11 -11 -11 -11 -12 -12 -12 -12 -12 -13 -13 -13 -13 -13 -14 -14 -14 -14 -13 -13 -14 -13 -13 -13 -13 -13 -13 -13 -12 -12
-11 -11 -11 -11 -11 -11 -11 -11 -11 -11 -12 -12 -12 -12 -12 -12 -12 -13 -13 -13 -13 -13 -13 -14 -14 -14 -13 -12 -12 -14 -14 -14 -14 -13 -14 -13 -12 -12
-10 -10 -10 -11 -11 -11 -11 -11 -11 -12 -12 -12 -12 -12 -12 -12 -13 -13 -13 -13 -13 -13 -13 -14 -14 -14 -14 -14 -13 -13 -14 -14 -14 -13 -13 -12 -13 -13
-10 -10 -11 -11 -11 -11 -11 -11 -11 -11 -12 -12 -12 -12 -13 -13 -13 -13 -13 -13 -13 -13 -13 -13 -14 -14 -14 -14 -13 -12 -13 -14 -14 -14 -13 -13 -13 -12
-10 -11 -11 -11 -11 -11 -11 -11 -12 -12 -12 -12 -12 -13 -13 -13 -13 -13 -13 -13 -13 -13 -13 -13 -13 -13 -14 -14 -13 -13 -13 -12 -13 -13 -13 -13 -13 -13
-10 -11 -11 -11 -11 -11 -11 -11 -12 -12 -12 -12 -12 -13 -13 -13 -13 -13 -13 -13 -13 -13 -12 -13 -13 -13 -14 -14 -14 -14 -13 -13 -12 -12 -13 -13 -13 -13

GFSNE_700_temp_045.txt.gz
Temp
1 1 1 1 1 1 1 0 0 -1 -0 -1 -1 -2 -1 -1 -1 -2 -2 -2 -3 -2 -2 -2 -2 -2 -2 -2 -2 -2 -2 -1 -1 -1 -1 -1 -1 -1
1 1 0 0 0 1 1 -1 -0 -1 -1 -1 -1 -1 -2 -2 -3 -3 -3 -2 -3 -3 -2 -2 -2 -1 -2 -2 -2 -2 -2 -2 -2 -2 -2 -2 -3 -3
1 1 0 -0 0 0 0 -0 0 -1 -2 -2 -2 -2 -3 -4 -3 -3 -3 -3 -3 -3 -3 -3 -3 -3 -2 -3 -3 -3 -3 -3 -3 -4 -4 -5 -6 -6
2 1 0 0 1 -0 -1 -1 -1 -3 -2 -3 -3 -3 -4 -4 -4 -4 -4 -4 -4 -4 -4 -4 -4 -4 -4 -4 -4 -4 -5 -5 -6 -7 -7 -8 -8 -9
1 0 0 1 -0 -1 -1 -2 -4 -3 -4 -4 -4 -4 -4 -4 -5 -4 -4 -4 -4 -5 -5 -6 -6 -5 -6 -6 -6 -7 -8 -8 -8 -9 -9 -10 -10 -10
-0 -1 -1 -1 -1 -1 -2 -4 -4 -4 -4 -4 -4 -4 -4 -5 -4 -4 -5 -5 -5 -6 -7 -7 -7 -7 -9 -10 -10 -10 -10 -10 -10 -11 -11 -11 -11 -11
-0 -1 -2 -1 -3 -3 -3 -4 -4 -4 -4 -4 -5 -5 -5 -5 -5 -5 -5 -5 -6 -7 -8 -9 -10 -11 -12 -12 -12 -12 -12 -12 -12 -12 -12 -12 -12 -11
-1 -2 -2 -3 -4 -5 -4 -4 -4 -5 -5 -5 -5 -5 -5 -5 -6 -7 -7 -8 -8 -9 -10 -10 -11 -11 -12 -12 -12 -12 -12 -12 -12 -12 -13 -13 -13 -12
-2 -3 -4 -4 -4 -4 -4 -4 -5 -5 -5 -6 -6 -6 -7 -7 -8 -9 -9 -10 -10 -11 -11 -9 -12 -11 -11 -12 -12 -13 -13 -13 -13 -13 -13 -13 -13 -13
-4 -4 -4 -3 -3 -4 -4 -4 -5 -7 -7 -7 -8 -8 -9 -9 -10 -10 -10 -10 -11 -11 -11 -10 -11 -11 -11 -12 -13 -13 -13 -14 -14 -13 -13 -13 -13 -13
-3 -4 -4 -4 -4 -4 -4 -6 -7 -8 -8 -9 -9 -9 -10 -10 -11 -11 -11 -11 -11 -11 -12 -11 -11 -11 -11 -11 -12 -13 -14 -14 -14 -14 -14 -14 -13 -13
-3 -3 -3 -4 -5 -7 -7 -8 -8 -8 -9 -10 -10 -11 -11 -11 -11 -11 -11 -11 -11 -11 -12 -11 -11 -12 -10 -11 -12 -13 -13 -13 -14 -14 -14 -14 -14 -13
-3 -4 -5 -6 -7 -7 -8 -9 -9 -10 -10 -11 -11 -11 -11 -11 -12 -12 -12 -12 -12 -12 -13 -13 -12 -12 -12 -11 -11 -12 -13 -13 -13 -13 -14 -14 -14 -14
-4 -5 -6 -8 -8 -9 -10 -10 -10 -10 -11 -11 -11 -11 -11 -12 -12 -12 -12 -12 -13 -13 -13 -14 -13 -13 -13 -12 -11 -12 -13 -13 -13 -13 -13 -13 -13 -14
-6 -7 -9 -9 -10 -10 -10 -10 -10 -11 -11 -11 -11 -11 -11 -11 -11 -12 -12 -13 -13 -14 -14 -14 -14 -14 -13 -13 -12 -12 -13 -12 -13 -13 -13 -13 -13 -13
-9 -10 -10 -10 -10 -10 -10 -10 -11 -10 -10 -11 -11 -11 -11 -11 -12 -12 -12 -12 -12 -13 -14 -14 -14 -13 -13 -13 -13 -13 -13 -13 -13 -13 -13 -13 -13 -13
-10 -10 -10 -10 -10 -10 -10 -10 -10 -10 -10 -10 -10 -11 -11 -11 -12 -12 -12 -12 -12 -12 -13 -13 -14 -13 -13 -13 -13 -13 -13 -13 -13 -13 -13 -12 -13 -13
-9 -9 -9 -10 -10 -10 -10 -10 -10 -10 -10 -11 -11 -11 -11 -12 -12 -12 -12 -12 -12 -12 -13 -13 -13 -13 -13 -13 -14 -13 -13 -13 -13 -13 -13 -12 -11 -12
-9 -9 -9 -10 -10 -11 -11 -11 -11 -11 -11 -11 -11 -11 -12 -12 -12 -12 -12 -12 -12 -12 -12 -13 -13 -13 -12 -12 -12 -14 -13 -13 -13 -13 -14 -13 -12 -12
-9 -10 -10 -10 -10 -10 -10 -11 -11 -11 -11 -11 -12 -12 -12 -12 -12 -12 -12 -12 -12 -12 -12 -13 -13 -13 -13 -12 -11 -12 -14 -14 -14 -13 -13 -12 -12 -12
-10 -10 -10 -10 -10 -10 -11 -11 -11 -11 -11 -11 -12 -12 -12 -12 -12 -12 -12 -12 -12 -12 -12 -12 -13 -13 -13 -13 -12 -12 -13 -14 -14 -14 -14 -13 -12 -11
-10 -10 -10 -11 -11 -11 -11 -11 -11 -11 -11 -12 -12 -12 -12 -12 -12 -12 -12 -12 -12 -12 -12 -12 -12 -12 -13 -13 -13 -12 -12 -13 -14 -14 -14 -14 -14 -12
-10 -10 -10 -11 -11 -11 -11 -11 -11 -12 -12 -12 -12 -12 -12 -12 -12 -12 -12 -12 -12 -12 -12 -11 -12 -12 -13 -13 -13 -13 -13 -12 -13 -12 -13 -14 -14 -13

GFSNE_700_temp_048.txt.gz
Temp
2 2 1 1 1 1 1 1 1 1 -0 0 -0 -1 -1 -1 -1 -1 -1 -1 -2 -2 -2 -2 -2 -2 -2 -2 -2 -1 -1 -2 -2 -2 -1 -1 -1 -1
2 2 1 1 1 1 1 1 1 1 0 -0 -1 -1 -1 -2 -2 -2 -3 -3 -3 -3 -3 -3 -3 -3 -2 -2 -2 -2 -2 -1 -2 -2 -2 -2 -2 -2
2 2 1 1 1 0 0 0 0 -0 -0 -0 -1 -1 -2 -3 -3 -3 -4 -4 -4 -4 -4 -3 -3 -3 -2 -2 -2 -2 -2 -2 -2 -2 -2 -3 -3 -4
1 1 0 0 0 1 1 1 0 -1 -1 -1 -1 -2 -3 -4 -4 -4 -4 -4 -4 -4 -4 -4 -4 -3 -3 -3 -3 -3 -4 -4 -3 -4 -4 -5 -6 -6
1 1 0 1 -0 0 -0 -1 -1 -1 -2 -3 -2 -3 -4 -4 -4 -4 -4 -4 -4 -5 -5 -5 -5 -5 -5 -5 -5 -5 -5 -6 -6 -7 -8 -8 -9 -9
0 0 0 -0 -1 -1 -1 -1 -2 -2 -3 -4 -4 -4 -4 -4 -4 -4 -5 -5 -5 -5 -6 -6 -6 -6 -7 -7 -7 -7 -8 -8 -9 -9 -9 -9 -10 -10
-0 -0 -1 -1 -1 -1 -2 -2 -3 -3 -4 -4 -4 -5 -4 -5 -5 -5 -5 -6 -6 -7 -7 -7 -8 -9 -9 -9 -9 -9 -10 -10 -10 -10 -10 -10 -11 -11
-1 -1 -2 -2 -1 -2 -3 -3 -3 -4 -5 -5 -5 -5 -6 -6 -6 -6 -7 -7 -6 -8 -9 -9 -10 -9 -10 -10 -10 -10 -10 -11 -11 -11 -11 -11 -11 -12
-2 -2 -2 -2 -3 -3 -3 -4 -5 -5 -5 -6 -6 -6 -6 -7 -7 -8 -8 -8 -9 -10 -9 -9 -10 -9 -10 -10 -11 -11 -11 -12 -12 -12 -12 -12 -12 -12
-3 -3 -3 -3 -4 -4 -4 -5 -6 -6 -6 -7 -7 -7 -7 -8 -8 -9 -9 -10 -10 -10 -10 -9 -10 -10 -11 -11 -11 -12 -12 -12 -12 -12 -12 -12 -12 -12
-3 -3 -3 -4 -4 -4 -5 -6 -6 -7 -7 -8 -8 -8 -9 -10 -10 -10 -10 -10 -10 -10 -11 -10 -11 -10 -10 -11 -12 -12 -13 -13 -13 -13 -13 -13 -13 -12
-3 -3 -4 -4 -5 -6 -6 -7 -8 -8 -9 -9 -9 -9 -10 -10 -10 -10 -10 -10 -10 -10 -11 -11 -11 -11 -9 -10 -11 -12 -12 -12 -12 -13 -13 -13 -13 -13
-4 -4 -5 -5 -6 -7 -8 -8 -9 -9 -10 -10 -10 -10 -10 -10 -10 -10 -10 -10 -11 -12 -12 -12 -11 -12 -11 -10 -10 -11 -12 -12 -12 -12 -13 -13 -13 -13
-4 -4 -5 -6 -8 -8 -9 -9 -9 -9 -9 -10 -10 -10 -10 -10 -10 -11 -11 -11 -11 -12 -12 -12 -12 -12 -12 -11 -11 -11 -12 -12 -12 -12 -12 -12 -12 -13
-4 -5 -7 -8 -8 -8 -9 -9 -9 -9 -9 -10 -10 -10 -10 -11 -11 -11 -11 -11 -11 -12 -13 -13 -13 -13 -12 -12 -11 -11 -12 -12 -13 -12 -12 -12 -12 -12
-5 -6 -7 -8 -8 -8 -9 -9 -10 -10 -10 -10 -10 -11 -11 -11 -11 -11 -11 -11 -11 -12 -12 -13 -12 -12 -12 -12 -12 -12 -12 -12 -12 -13 -12 -12 -12 -13
-6 -7 -8 -8 -8 -9 -9 -9 -10 -10 -10 -10 -10 -10 -10 -11 -11 -11 -12 -12 -11 -12 -11 -12 -13 -12 -12 -12 -12 -12 -12 -12 -13 -12 -12 -12 -12 -13
-7 -7 -8 -8 -9 -9 -9 -9 -9 -10 -10 -10 -10 -11 -11 -11 -12 -12 -12 -12 -12 -12 -12 -12 -12 -12 -12 -12 -13 -12 -12 -12 -12 -12 -13 -12 -11 -13
-8 -8 -8 -9 -9 -9 -10 -10 -10 -10 -11 -11 -11 -11 -11 -11 -12 -12 -12 -12 -12 -12 -12 -12 -12 -12 -11 -11 -12 -13 -13 -13 -13 -12 -13 -13 -12 -12
-8 -8 -9 -9 -9 -10 -10 -10 -10 -11 -11 -11 -11 -11 -11 -11 -12 -12 -12 -12 -12 -12 -12 -12 -13 -13 -12 -12 -11 -12 -14 -13 -13 -13 -13 -13 -13 -12
-9 -9 -9 -9 -10 -10 -10 -10 -11 -11 -11 -11 -11 -11 -12 -12 -12 -12 -12 -12 -12 -12 -12 -12 -12 -13 -12 -12 -12 -11 -12 -14 -14 -14 -13 -13 -12 -12
-9 -9 -9 -10 -10 -10 -10 -11 -11 -11 -11 -11 -12 -12 -12 -12 -12 -12 -12 -12 -12 -12 -12 -12 -12 -11 -12 -12 -12 -12 -11 -12 -13 -13 -14 -14 -14 -12
-9 -9 -9 -10 -10 -10 -11 -11 -11 -11 -12 -12 -12 -12 -12 -12 -12 -12 -12 -13 -13 -12 -12 -12 -11 -12 -12 -12 -13 -12 -12 -12 -12 -12 -13 -13 -13 -13

GFSNE_700_temp_051.txt.gz
Temp
2 1 1 1 2 2 2 1 0 1 1 1 1 0 1 -0 -0 -0 -1 -1 -1 -2 -2 -2 -2 -2 -2 -2 -2 -2 -2 -2 -2 -2 -2 -2 -1 -1
1 1 1 1 1 1 2 1 1 1 1 0 0 -0 -0 -0 -0 -0 -1 -2 -2 -1 -2 -2 -2 -3 -3 -3 -3 -3 -2 -2 -3 -3 -2 -2 -2 -2
1 1 1 1 1 1 1 1 1 0 1 0 -0 -0 -1 -1 -1 -2 -2 -3 -2 -3 -3 -3 -3 -3 -4 -3 -3 -3 -2 -3 -3 -3 -3 -3 -3 -3
0 0 0 1 0 -0 0 0 -0 1 -0 0 -2 -1 -2 -2 -2 -2 -3 -3 -4 -4 -4 -4 -5 -4 -3 -3 -3 -3 -3 -3 -3 -4 -4 -4 -4 -5
0 0 0 0 0 0 0 -0 -0 -0 -1 -0 -1 -2 -3 -3 -3 -3 -4 -4 -4 -5 -5 -5 -4 -5 -4 -4 -4 -4 -4 -5 -5 -5 -6 -6 -6 -7
-0 -0 0 0 0 0 -0 -0 -1 -1 -1 -1 -2 -3 -3 -3 -4 -5 -5 -5 -5 -5 -5 -5 -5 -5 -5 -5 -6 -6 -7 -7 -7 -7 -7 -7 -8 -8
-1 -1 -1 -1 -1 -1 -1 -1 -1 -2 -2 -2 -3 -3 -5 -5 -5 -5 -6 -5 -5 -6 -5 -6 -6 -6 -7 -8 -8 -8 -8 -8 -8 -8 -8 -8 -8 -9
-1 -2 -3 -1 -1 -1 -1 -1 -2 -2 -3 -3 -4 -5 -5 -5 -5 -6 -6 -6 -6 -7 -7 -8 -8 -8 -9 -9 -9 -9 -9 -9 -9 -9 -9 -9 -9 -9
-2 -2 -2 -2 -2 -2 -2 -3 -4 -4 -4 -4 -5 -5 -6 -6 -6 -6 -7 -8 -9 -10 -9 -9 -8 -8 -9 -9 -10 -9 -9 -10 -10 -10 -10 -10 -10 -10
-3 -3 -3 -2 -3 -3 -3 -3 -3 -4 -4 -5 -6 -6 -6 -7 -7 -8 -9 -9 -10 -9 -9 -9 -9 -9 -9 -10 -10 -10 -10 -11 -11 -10 -10 -10 -10 -10
-3 -3 -3 -3 -2 -3 -3 -4 -4 -5 -5 -6 -7 -7 -8 -9 -9 -9 -9 -9 -9 -9 -9 -9 -10 -9 -9 -10 -11 -11 -11 -12 -11 -11 -11 -11 -11 -11
-3 -3 -3 -3 -3 -3 -4 -5 -5 -6 -7 -7 -8 -9 -9 -9 -9 -9 -9 -9 -9 -10 -9 -10 -10 -10 -8 -9 -10 -10 -11 -11 -11 -11 -11 -12 -12 -11
-3 -3 -3 -3 -4 -4 -5 -6 -7 -8 -8 -8 -8 -9 -9 -9 -9 -9 -9 -9 -10 -10 -10 -10 -10 -11 -10 -9 -9 -10 -10 -11 -11 -11 -11 -11 -12 -12
-2 -2 -2 -3 -4 -5 -6 -7 -8 -8 -8 -9 -9 -9 -9 -9 -9 -9 -10 -10 -10 -11 -11 -11 -10 -11 -10 -10 -10 -10 -11 -11 -11 -11 -11 -12 -12 -12
-2 -2 -2 -4 -5 -6 -7 -7 -8 -8 -9 -9 -9 -9 -9 -10 -10 -10 -10 -10 -11 -11 -12 -12 -12 -11 -11 -11 -10 -10 -11 -11 -12 -12 -11 -11 -11 -12
-2 -2 -3 -5 -6 -7 -7 -8 -8 -9 -9 -9 -9 -10 -10 -10 -10 -10 -11 -11 -11 -11 -12 -12 -12 -12 -11 -11 -11 -11 -11 -11 -11 -12 -11 -11 -12 -13
-2 -3 -5 -6 -7 -7 -8 -8 -9 -9 -9 -10 -10 -10 -10 -10 -11 -11 -11 -11 -11 -11 -11 -12 -12 -12 -12 -12 -11 -12 -11 -11 -12 -12 -12 -11 -12 -12
-4 -5 -6 -7 -8 -8 -8 -9 -9 -9 -10 -10 -10 -10 -10 -10 -10 -11 -11 -11 -11 -12 -11 -12 -12 -12 -12 -11 -12 -11 -11 -11 -11 -12 -12 -11 -11 -12
-5 -7 -8 -8 -8 -9 -9 -9 -9 -9 -10 -10 -10 -10 -10 -11 -11 -11 -11 -11 -12 -12 -12 -12 -12 -12 -11 -11 -11 -12 -12 -12 -12 -12 -13 -13 -12 -12
-7 -8 -8 -9 -9 -9 -9 -10 -10 -10 -10 -10 -10 -11 -11 -11 -11 -11 -12 -12 -12 -12 -12 -12 -12 -13 -12 -12 -12 -12 -13 -13 -13 -13 -13 -12 -12 -13
-7 -8 -9 -9 -9 -9 -9 -10 -10 -10 -11 -11 -11 -11 -11 -11 -11 -12 -12 -12 -12 -12 -12 -12 -13 -13 -13 -13 -12 -11 -11 -13 -14 -13 -13 -12 -12 -12
-8 -9 -9 -9 -10 -10 -10 -10 -11 -11 -11 -11 -11 -11 -11 -12 -12 -12 -12 -12 -12 -12 -12 -12 -13 -13 -13 -12 -12 -11 -11 -12 -13 -14 -14 -14 -14 -11
-8 -9 -9 -10 -10 -10 -10 -10 -11 -11 -11 -11 -11 -12 -12 -12 -12 -12 -12 -12 -12 -12 -13 -13 -13 -13 -12 -12 -12 -12 -11 -11 -12 -12 -13 -14 -14 -13

GFSNE_700_temp_054.txt.gz
Temp
1 0 0 0 1 1 1 1 1 1 1 1 0 1 0 0 1 -0 -1 -1 -1 -1 -1 -1 -1 -2 -1 -1 -1 -2 -2 -2 -3 -3 -2 -3 -3 -2
-0 -0 -0 0 -0 0 0 0 0 1 1 1 -0 -0 -0 -0 -1 -1 -1 -1 -1 -1 -1 -2 -2 -2 -2 -3 -2 -2 -3 -3 -3 -3 -3 -3 -3 -3
-1 -1 -2 -1 -1 -1 -0 -0 0 0 0 1 -0 -1 -1 -1 -1 -1 -1 -1 -1 -1 -2 -3 -3 -3 -3 -4 -3 -3 -4 -4 -3 -3 -3 -3 -3 -3
-2 -1 -1 -1 -1 -1 -1 -1 -1 -1 -0 -0 -1 -1 -1 -1 -1 -2 -1 -2 -2 -3 -4 -4 -4 -4 -4 -4 -4 -4 -4 -3 -3 -3 -3 -3 -3 -4
-3 -2 -2 -1 -1 -0 -0 -0 -0 0 -1 -1 -1 -1 -2 -2 -2 -2 -3 -3 -3 -4 -5 -5 -5 -4 -4 -4 -4 -4 -4 -4 -5 -5 -5 -5 -5 -6
-4 -3 -3 -2 -1 -0 -1 -1 -1 -1 -2 -1 -1 -1 -2 -2 -2 -3 -4 -5 -5 -5 -5 -5 -5 -5 -5 -5 -5 -6 -6 -6 -6 -7 -7 -7 -7 -7
-3 -3 -3 -2 -2 -2 -3 -2 -2 -2 -2 -2 -1 -2 -3 -4 -5 -5 -5 -5 -5 -5 -5 -6 -5 -6 -6 -7 -7 -8 -8 -7 -7 -8 -7 -8 -8 -8
-4 -4 -3 -2 -2 -1 -2 -2 -1 -2 -2 -3 -3 -4 -4 -4 -4 -4 -5 -5 -6 -6 -6 -7 -7 -7 -8 -9 -8 -8 -8 -8 -8 -8 -8 -9 -8 -9
-4 -3 -3 -3 -3 -2 -2 -3 -3 -3 -3 -3 -4 -3 -4 -4 -5 -6 -6 -7 -7 -8 -7 -8 -8 -8 -9 -9 -9 -9 -9 -9 -9 -9 -9 -9 -9 -9
-3 -3 -3 -3 -3 -3 -3 -3 -2 -3 -3 -4 -4 -5 -5 -6 -6 -7 -8 -8 -9 -8 -8 -8 -8 -9 -9 -9 -10 -10 -10 -10 -10 -10 -10 -9 -9 -9
-3 -3 -2 -2 -2 -2 -2 -2 -3 -3 -3 -4 -5 -5 -6 -7 -7 -8 -8 -8 -9 -9 -8 -8 -9 -9 -9 -10 -10 -10 -11 -11 -11 -11 -11 -10 -10 -10
-2 -2 -2 -2 -2 -2 -2 -2 -3 -4 -4 -5 -6 -7 -7 -7 -8 -8 -8 -9 -9 -9 -9 -9 -10 -9 -8 -9 -10 -10 -10 -11 -11 -11 -11 -11 -11 -10
-2 -2 -2 -2 -2 -2 -2 -3 -4 -5 -5 -6 -6 -7 -7 -8 -8 -8 -9 -9 -9 -9 -9 -9 -10 -10 -9 -8 -9 -10 -10 -11 -10 -11 -11 -11 -11 -11
-1 -1 -1 -1 -1 -2 -3 -4 -5 -5 -6 -7 -7 -7 -8 -8 -8 -9 -9 -9 -9 -10 -10 -10 -10 -10 -10 -9 -9 -10 -10 -10 -11 -11 -10 -10 -11 -11
-1 -1 -1 -1 -2 -3 -4 -5 -6 -7 -7 -8 -8 -8 -8 -9 -9 -9 -9 -10 -10 -11 -11 -11 -11 -11 -11 -11 -10 -10 -10 -10 -11 -11 -11 -10 -10 -11
-2 -2 -2 -2 -3 -5 -6 -7 -7 -7 -8 -8 -8 -9 -9 -9 -10 -10 -10 -10 -10 -11 -12 -12 -12 -12 -12 -11 -11 -11 -11 -11 -11 -11 -10 -11 -11 -12
-2 -2 -3 -4 -5 -6 -7 -7 -8 -8 -8 -9 -9 -9 -10 -10 -10 -10 -10 -10 -10 -11 -12 -12 -12 -12 -12 -12 -11 -12 -11 -11 -11 -11 -11 -11 -11 -12
-3 -3 -4 -5 -6 -7 -8 -8 -9 -9 -9 -10 -10 -10 -10 -11 -11 -11 -11 -11 -11 -11 -11 -12 -12 -12 -12 -12 -12 -11 -11 -11 -11 -11 -11 -10 -10 -11
-4 -4 -5 -7 -8 -8 -9 -9 -10 -10 -10 -10 -10 -10 -10 -11 -11 -11 -11 -11 -11 -11 -12 -12 -12 -12 -12 -12 -12 -12 -12 -12 -12 -12 -12 -12 -11 -11
-5 -6 -6 -7 -8 -9 -9 -10 -10 -10 -10 -10 -11 -11 -11 -11 -11 -11 -11 -11 -12 -12 -12 -12 -13 -13 -13 -12 -12 -11 -13 -13 -13 -12 -11 -12 -12 -12
-5 -6 -7 -8 -9 -9 -9 -10 -10 -11 -11 -11 -11 -11 -11 -11 -12 -12 -12 -12 -12 -12 -12 -12 -13 -13 -13 -13 -12 -12 -12 -13 -13 -12 -12 -12 -11 -11
-6 -7 -8 -9 -9 -9 -10 -10 -11 -11 -11 -11 -12 -12 -12 -12 -12 -12 -12 -12 -12 -12 -12 -12 -13 -13 -13 -13 -12 -12 -12 -12 -12 -12 -13 -13 -13 -11
-7 -7 -8 -9 -9 -10 -10 -10 -11 -11 -12 -12 -12 -12 -12 -12 -12 -12 -12 -13 -13 -12 -13 -12 -13 -13 -13 -13 -13 -12 -12 -12 -12 -12 -12 -13 -14 -14

GFSNE_700_temp_057.txt.gz
Temp
1 0 -0 -0 -0 -0 -0 -0 0 -1 0 -0 -0 0 0 -0 -1 -1 -1 -1 -1 -1 -1 -1 -2 -2 -1 -2 -2 -2 -2 -2 -2 -2 -2 -2 -2 -2
-1 -1 -1 -1 -1 -1 -1 -1 -1 -1 -1 -0 -0 0 0 -1 -1 -1 -2 -1 -1 -1 -1 -2 -2 -2 -2 -3 -3 -3 -3 -3 -2 -3 -3 -2 -3 -3
-1 -1 -1 -1 -1 -1 -2 -2 -2 -2 -2 -1 -0 -1 -1 -1 -2 -1 -2 -1 -2 -2 -2 -3 -3 -3 -3 -3 -4 -4 -4 -3 -3 -3 -3 -3 -3 -3
-2 -3 -3 -3 -2 -2 -2 -2 -2 -2 -2 -1 -1 -2 -1 -2 -2 -2 -2 -2 -3 -3 -3 -4 -4 -5 -5 -4 -4 -4 -3 -3 -3 -3 -3 -3 -3 -3
-3 -3 -3 -3 -3 -3 -2 -2 -2 -2 -2 -2 -2 -2 -2 -2 -3 -4 -4 -4 -4 -4 -4 -4 -5 -4 -5 -5 -4 -4 -4 -4 -4 -4 -4 -4 -5 -5
-4 -4 -4 -3 -3 -3 -2 -2 -2 -3 -2 -3 -2 -2 -3 -3 -4 -4 -4 -4 -4 -4 -5 -5 -5 -5 -5 -5 -5 -5 -5 -5 -6 -6 -6 -6 -6 -7
-5 -4 -4 -3 -3 -3 -3 -2 -2 -3 -3 -3 -3 -3 -3 -3 -4 -4 -5 -5 -5 -5 -5 -6 -6 -6 -6 -6 -7 -7 -7 -7 -7 -7 -7 -7 -7 -7
-4 -4 -3 -3 -3 -4 -3 -3 -3 -3 -3 -3 -4 -3 -3 -4 -4 -4 -5 -5 -6 -6 -6 -7 -7 -8 -8 -8 -9 -8 -8 -8 -8 -8 -8 -8 -8 -8
-3 -3 -3 -4 -4 -3 -3 -3 -3 -3 -3 -3 -3 -3 -4 -4 -5 -5 -5 -6 -7 -7 -7 -8 -8 -9 -9 -9 -9 -9 -9 -9 -8 -8 -9 -9 -8 -8
-2 -2 -2 -3 -2 -2 -2 -2 -2 -2 -3 -3 -4 -4 -4 -5 -5 -6 -7 -7 -8 -8 -8 -9 -9 -9 -9 -9 -9 -9 -9 -9 -9 -9 -9 -9 -9 -9
-1 -2 -2 -1 -1 -2 -2 -2 -2 -2 -3 -3 -4 -4 -4 -5 -5 -6 -7 -7 -8 -8 -8 -8 -9 -9 -9 -10 -10 -10 -10 -10 -10 -10 -10 -10 -10 -9
-1 -1 -1 -1 -1 -1 -1 -0 -1 -2 -2 -3 -4 -5 -5 -6 -6 -7 -7 -7 -8 -8 -8 -8 -9 -9 -9 -10 -10 -11 -10 -10 -10 -10 -10 -10 -10 -9
-1 -1 -1 -1 -1 -1 -1 -1 -2 -2 -3 -4 -5 -5 -6 -6 -7 -7 -8 -8 -8 -9 -9 -9 -9 -9 -9 -9 -10 -10 -10 -10 -10 -10 -10 -10 -10 -10
-1 -1 -1 -1 -1 -1 -2 -2 -3 -4 -5 -5 -6 -6 -7 -7 -8 -8 -8 -9 -9 -9 -10 -9 -9 -9 -9 -9 -9 -10 -10 -10 -10 -11 -11 -10 -10 -10
-2 -2 -1 -1 -2 -2 -3 -4 -5 -6 -6 -7 -7 -8 -8 -8 -9 -9 -9 -9 -9 -10 -10 -10 -10 -10 -10 -10 -10 -10 -10 -10 -11 -11 -11 -10 -10 -11
-2 -2 -2 -2 -3 -3 -4 -5 -6 -7 -7 -8 -8 -8 -9 -9 -9 -9 -9 -10 -10 -10 -11 -11 -11 -10 -10 -11 -11 -11 -11 -11 -11 -11 -11 -11 -11 -11
-3 -2 -3 -3 -4 -4 -5 -7 -7 -8 -8 -9 -9 -9 -9 -9 -10 -10 -10 -10 -10 -10 -11 -11 -11 -11 -11 -11 -11 -11 -11 -11 -12 -12 -11 -11 -10 -11
-3 -3 -3 -4 -5 -6 -7 -8 -8 -9 -9 -9 -10 -10 -10 -10 -10 -11 -11 -11 -11 -11 -11 -11 -11 -12 -12 -11 -12 -12 -12 -12 -12 -12 -11 -11 -10 -11
-4 -4 -4 -5 -6 -7 -7 -8 -9 -10 -10 -10 -10 -10 -11 -11 -11 -11 -11 -11 -12 -12 -12 -12 -12 -12 -12 -11 -12 -12 -12 -12 -12 -12 -12 -11 -11 -11
-4 -4 -5 -5 -6 -7 -8 -9 -10 -10 -10 -11 -11 -11 -11 -11 -12 -12 -12 -12 -12 -12 -12 -12 -13 -12 -12 -12 -11 -11 -12 -12 -12 -12 -12 -12 -12 -12
-5 -5 -6 -6 -7 -8 -8 -9 -10 -10 -11 -11 -11 -12 -12 -12 -12 -12 -12 -12 -12 -12 -12 -12 -13 -13 -12 -12 -12 -11 -12 -13 -13 -12 -12 -12 -12 -11
-6 -6 -6 -7 -8 -8 -9 -10 -10 -11 -11 -12 -12 -12 -12 -12 -13 -13 -13 -13 -13 -13 -12 -13 -13 -13 -13 -13 -12 -12 -12 -12 -13 -13 -13 -13 -13 -11
-6 -7 -7 -8 -8 -9 -10 -10 -11 -12 -12 -12 -12 -13 -13 -13 -13 -13 -13 -13 -13 -13 -13 -13 -13 -13 -13 -13 -13 -13 -12 -12 -12 -12 -12 -13 -13 -13

GFSNE_700_temp_060.txt.gz
Temp
0 0 -0 -0 -0 -1 -1 -1 -1 -1 -2 -1 -2 -2 -1 -1 -1 -0 -1 -1 -1 -1 -2 -2 -2 -3 -2 -2 -1 -2 -2 -2 -2 -2 -2 -3 -3 -3
0 0 -1 -1 -1 -1 -1 -1 -2 -3 -2 -3 -3 -2 -2 -1 -1 -1 -1 -1 -1 -2 -2 -3 -2 -2 -2 -2 -2 -2 -2 -2 -2 -3 -3 -3 -3 -3
-0 -0 -1 -1 -2 -2 -2 -2 -2 -2 -2 -2 -2 -2 -2 -2 -2 -2 -2 -2 -2 -2 -2 -3 -3 -3 -3 -3 -3 -3 -3 -3 -3 -4 -3 -4 -4 -3
1 -0 -1 -2 -3 -3 -2 -3 -3 -3 -2 -3 -2 -3 -2 -2 -2 -2 -2 -2 -3 -3 -3 -3 -3 -3 -3 -3 -3 -4 -3 -3 -4 -4 -4 -4 -4 -4
-0 -1 -2 -3 -4 -3 -3 -3 -3 -3 -3 -3 -3 -2 -3 -2 -2 -3 -3 -3 -4 -4 -4 -4 -4 -4 -4 -4 -4 -4 -4 -4 -5 -5 -4 -4 -4 -5
-0 -1 -1 -3 -3 -3 -3 -3 -3 -3 -4 -3 -3 -3 -3 -3 -3 -3 -4 -4 -4 -4 -4 -4 -5 -5 -5 -5 -5 -5 -5 -5 -5 -5 -5 -6 -6 -6
-0 -1 -2 -3 -3 -3 -3 -4 -3 -4 -3 -3 -3 -4 -4 -4 -4 -4 -5 -5 -5 -5 -5 -5 -5 -5 -5 -6 -6 -6 -6 -7 -7 -7 -7 -7 -8 -7
-0 -1 -2 -2 -1 -2 -3 -3 -3 -3 -4 -4 -4 -4 -4 -4 -4 -4 -5 -5 -5 -5 -5 -6 -7 -7 -7 -7 -8 -8 -8 -8 -8 -8 -8 -8 -8 -8
-1 -1 -1 -1 -1 -2 -2 -2 -2 -2 -3 -2 -3 -3 -4 -4 -5 -5 -5 -5 -6 -6 -6 -7 -7 -7 -8 -8 -8 -9 -9 -8 -8 -8 -8 -8 -8 -8
-1 -1 -1 -1 -1 -1 -1 -1 -1 -2 -2 -2 -2 -3 -3 -3 -4 -4 -5 -6 -6 -6 -7 -7 -8 -8 -8 -8 -9 -9 -9 -9 -9 -9 -9 -9 -8 -8
-1 -1 -1 -1 -1 -1 -1 -1 -1 -1 -1 -2 -2 -2 -3 -4 -4 -5 -5 -6 -6 -6 -7 -8 -8 -9 -9 -9 -9 -9 -9 -9 -9 -9 -9 -9 -9 -9
-1 -1 -1 -1 -1 -1 -1 -1 -1 -1 -1 -2 -2 -3 -3 -4 -5 -5 -6 -6 -7 -7 -7 -8 -9 -9 -10 -10 -10 -10 -10 -10 -10 -10 -10 -10 -10 -9
-2 -2 -2 -2 -1 -1 -1 -1 -1 -1 -1 -2 -3 -4 -4 -5 -6 -6 -7 -7 -8 -8 -8 -9 -9 -9 -9 -9 -10 -11 -11 -11 -11 -11 -10 -10 -10 -10
-2 -2 -2 -2 -1 -1 -1 -1 -1 -2 -3 -3 -4 -5 -5 -6 -7 -7 -8 -8 -9 -9 -9 -9 -9 -9 -9 -9 -10 -10 -11 -11 -11 -11 -11 -11 -11 -10
-3 -3 -2 -2 -2 -2 -2 -2 -2 -3 -4 -5 -6 -6 -7 -7 -8 -8 -8 -9 -9 -9 -10 -10 -10 -10 -9 -9 -9 -10 -10 -11 -11 -11 -11 -11 -11 -11
-3 -3 -2 -2 -2 -2 -3 -3 -4 -5 -5 -6 -7 -7 -8 -8 -9 -9 -9 -9 -10 -10 -10 -10 -10 -10 -10 -10 -10 -10 -11 -10 -11 -11 -11 -11 -11 -11
-3 -3 -3 -3 -3 -3 -4 -4 -5 -6 -7 -7 -8 -8 -9 -9 -10 -10 -10 -10 -10 -11 -11 -11 -11 -11 -11 -10 -10 -11 -11 -11 -11 -12 -11 -11 -11 -12
-4 -3 -3 -3 -4 -4 -5 -5 -6 -7 -8 -8 -9 -9 -10 -10 -10 -11 -11 -11 -11 -11 -11 -11 -11 -11 -11 -11 -11 -11 -11 -11 -12 -12 -12 -11 -11 -12
-4 -4 -4 -4 -4 -5 -6 -6 -7 -8 -8 -9 -10 -10 -10 -11 -11 -11 -12 -12 -12 -12 -12 -12 -12 -12 -11 -11 -12 -12 -11 -12 -12 -12 -12 -12 -11 -11
-4 -4 -4 -5 -5 -6 -7 -7 -8 -9 -9 -10 -11 -11 -11 -11 -12 -12 -12 -12 -12 -12 -12 -13 -13 -13 -12 -12 -11 -11 -12 -12 -12 -12 -12 -12 -12 -12
-5 -5 -6 -6 -6 -7 -7 -8 -9 -9 -10 -11 -11 -12 -12 -12 -12 -13 -13 -13 -13 -13 -13 -13 -13 -13 -13 -12 -12 -12 -12 -13 -13 -12 -12 -12 -12 -12
-6 -6 -7 -7 -7 -8 -8 -9 -9 -10 -11 -11 -12 -12 -13 -13 -13 -13 -14 -14 -14 -14 -13 -13 -14 -14 -14 -14 -13 -13 -12 -13 -13 -13 -13 -13 -13 -12
-7 -7 -8 -8 -8 -9 -9 -10 -10 -11 -11 -12 -13 -13 -13 -13 -14 -14 -14 -14 -14 -14 -14 -14 -14 -14 -14 -14 -14 -13 -13 -13 -13 -13 -13 -14 -14 -14

GFSNE_700_temp_063.txt.gz
Temp
2 2 1 1 0 -0 -1 -2 -2 -2 -1 -1 -1 -1 -2 -2 -2 -2 -2 -2 -2 -3 -3 -3 -3 -2 -2 -2 -2 -2 -2 -2 -2 -2 -2 -2 -2 -2
2 2 1 1 0 -0 -1 -2 -2 -2 -2 -2 -2 -2 -2 -2 -2 -2 -2 -2 -2 -3 -2 -2 -2 -3 -3 -3 -3 -2 -2 -2 -3 -3 -3 -3 -2 -2
2 1 1 1 1 -0 -1 -2 -3 -3 -2 -2 -3 -3 -4 -3 -3 -3 -2 -3 -3 -3 -3 -3 -3 -3 -3 -3 -4 -3 -3 -3 -3 -3 -3 -3 -3 -3
1 1 1 0 -0 -1 -2 -3 -3 -3 -2 -3 -3 -3 -4 -3 -3 -3 -3 -3 -3 -3 -3 -3 -4 -3 -4 -4 -4 -3 -3 -3 -3 -4 -4 -4 -4 -4
1 1 1 0 -0 -1 -2 -2 -2 -3 -3 -3 -3 -3 -3 -4 -4 -3 -4 -3 -4 -3 -3 -4 -4 -4 -4 -4 -4 -4 -4 -4 -5 -5 -4 -4 -5 -5
1 1 1 1 0 -0 -1 -1 -2 -2 -2 -2 -3 -4 -3 -3 -4 -4 -4 -4 -4 -4 -4 -4 -4 -4 -4 -4 -4 -4 -4 -4 -5 -5 -5 -5 -5 -5
0 0 0 -0 -1 -1 -1 -1 -1 -1 -1 -2 -2 -3 -4 -4 -4 -4 -4 -4 -4 -4 -4 -4 -4 -5 -5 -5 -5 -5 -6 -6 -6 -6 -6 -6 -7 -7
0 0 0 0 -0 -0 -1 -0 -1 -1 -1 -1 -2 -2 -2 -2 -3 -3 -3 -4 -4 -4 -4 -5 -5 -5 -5 -6 -6 -6 -6 -7 -7 -7 -7 -8 -8 -8
0 0 0 -0 -0 -0 -1 -1 -1 -1 -1 -1 -1 -2 -2 -2 -3 -3 -3 -3 -4 -4 -4 -5 -4 -4 -5 -6 -6 -6 -7 -7 -7 -8 -8 -8 -8 -8
-0 -0 -0 -0 -1 -1 -0 -1 -1 -1 -1 -1 -1 -1 -1 -2 -2 -3 -4 -4 -5 -5 -5 -5 -5 -5 -6 -6 -7 -7 -7 -7 -8 -8 -8 -8 -9 -9
-1 -1 -1 -1 -1 -1 -1 -1 -1 -1 -0 -0 -0 -1 -1 -2 -2 -3 -3 -4 -5 -5 -6 -6 -6 -7 -7 -7 -8 -8 -8 -8 -8 -9 -9 -9 -9 -9
-1 -1 -1 -1 -1 -1 -1 -1 -1 -1 -1 -1 -1 -1 -2 -3 -3 -4 -5 -5 -6 -6 -7 -7 -8 -8 -8 -9 -9 -9 -9 -9 -9 -9 -9 -9 -9 -9
-2 -2 -2 -2 -2 -2 -2 -1 -1 -1 -1 -1 -2 -2 -3 -4 -5 -5 -6 -7 -7 -8 -8 -8 -9 -9 -9 -10 -10 -10 -10 -10 -10 -10 -10 -10 -10 -10
-2 -2 -2 -2 -2 -2 -2 -2 -1 -1 -2 -2 -3 -4 -5 -5 -6 -7 -7 -8 -8 -9 -9 -9 -9 -10 -10 -10 -10 -11 -11 -11 -11 -11 -11 -11 -11 -11
-3 -3 -3 -3 -2 -2 -2 -2 -2 -2 -3 -4 -4 -5 -6 -7 -7 -8 -8 -9 -9 -10 -10 -10 -10 -10 -10 -10 -10 -10 -10 -11 -11 -11 -12 -11 -11 -11
-3 -3 -3 -3 -3 -2 -2 -2 -3 -3 -4 -5 -6 -6 -7 -8 -8 -9 -9 -10 -10 -11 -10 -10 -10 -10 -10 -10 -10 -10 -11 -11 -11 -11 -11 -11 -11 -11
-4 -4 -3 -3 -3 -3 -3 -3 -4 -4 -5 -6 -7 -7 -8 -9 -9 -10 -10 -10 -11 -11 -12 -12 -11 -11 -11 -11 -11 -11 -11 -11 -11 -11 -11 -11 -11 -11
-4 -4 -4 -4 -4 -4 -4 -4 -5 -5 -6 -7 -7 -8 -9 -10 -10 -11 -11 -11 -11 -12 -12 -12 -12 -12 -12 -12 -12 -12 -11 -11 -12 -12 -12 -11 -11 -12
-5 -5 -5 -5 -5 -5 -5 -5 -6 -6 -7 -7 -8 -9 -10 -11 -11 -11 -12 -12 -12 -12 -13 -13 -13 -13 -12 -12 -12 -13 -12 -12 -12 -12 -12 -12 -11 -12
-6 -6 -6 -6 -6 -6 -6 -6 -7 -7 -8 -8 -9 -10 -10 -11 -12 -12 -12 -12 -13 -13 -13 -14 -14 -14 -13 -13 -12 -12 -14 -13 -13 -12 -12 -12 -12 -12
-7 -7 -7 -7 -7 -7 -7 -8 -8 -8 -9 -9 -10 -11 -11 -12 -12 -13 -13 -13 -13 -13 -13 -14 -14 -14 -14 -14 -13 -13 -13 -14 -14 -13 -13 -12 -12 -12
-8 -7 -8 -8 -8 -8 -8 -9 -9 -9 -10 -10 -11 -12 -12 -12 -13 -13 -13 -14 -14 -14 -14 -14 -15 -15 -14 -15 -14 -13 -13 -14 -14 -14 -14 -14 -14 -12
-9 -8 -8 -9 -8 -9 -9 -9 -10 -10 -11 -11 -12 -12 -13 -13 -13 -14 -14 -14 -14 -14 -15 -15 -15 -15 -15 -15 -15 -14 -14 -14 -14 -13 -14 -14 -14 -14

GFSNE_700_temp_066.txt.gz
Temp
2 2 2 2 2 1 0 -0 0 1 0 -0 -1 -2 -1 -2 -2 -2 -2 -2 -3 -3 -4 -5 -4 -3 -4 -5 -4 -4 -3 -4 -4 -3 -3 -3 -3 -3
2 2 2 2 1 1 0 0 0 -0 -1 -1 -1 -2 -2 -1 -2 -2 -3 -3 -3 -4 -5 -5 -6 -5 -4 -3 -4 -4 -4 -3 -3 -3 -3 -3 -3 -3
2 2 2 1 1 1 1 0 -0 -0 -1 -1 -1 -2 -2 -2 -2 -3 -3 -3 -3 -3 -3 -4 -4 -4 -4 -3 -3 -3 -3 -4 -4 -4 -3 -3 -4 -4
2 2 1 1 1 1 1 1 -0 -0 -1 -1 -1 -2 -2 -2 -2 -2 -2 -2 -3 -3 -3 -3 -3 -4 -4 -4 -4 -4 -4 -5 -4 -4 -4 -4 -4 -4
2 1 1 1 1 1 1 1 0 -0 -0 -1 -1 -1 -1 -2 -2 -2 -2 -3 -3 -4 -4 -4 -4 -4 -4 -6 -6 -5 -5 -4 -4 -4 -4 -5 -5 -5
1 1 1 1 1 1 0 0 -0 -1 -1 -0 -0 -1 -1 -1 -1 -1 -2 -2 -3 -3 -4 -5 -5 -5 -5 -5 -5 -5 -4 -4 -5 -5 -5 -5 -6 -6
0 0 0 0 0 0 0 -0 -0 -0 0 0 0 -0 -0 -1 -1 -1 -2 -2 -2 -3 -3 -4 -5 -5 -5 -5 -5 -5 -5 -5 -5 -5 -5 -5 -6 -6
0 0 0 0 0 0 0 0 0 0 0 -0 -0 -0 -0 -0 -0 -1 -1 -1 -2 -3 -3 -4 -4 -5 -4 -4 -4 -5 -5 -5 -6 -6 -6 -7 -7 -7
-0 0 -0 -0 -0 -0 -0 -0 -0 -0 -1 -1 -0 -0 -0 -1 -1 -1 -1 -1 -2 -2 -2 -3 -3 -2 -3 -4 -4 -4 -5 -5 -5 -6 -7 -7 -8 -8
-1 -1 -1 -1 -1 -1 -1 -1 -1 -1 -1 -1 -1 -1 -1 -1 -1 -1 -1 -2 -3 -3 -3 -3 -3 -3 -4 -4 -5 -5 -5 -6 -7 -7 -7 -8 -8 -8
-1 -1 -1 -1 -1 -1 -1 -1 -1 -1 -1 -1 -1 -1 -1 -1 -1 -2 -2 -3 -4 -4 -4 -5 -5 -5 -6 -6 -6 -6 -7 -7 -7 -8 -8 -8 -8 -9
-2 -1 -1 -1 -2 -2 -2 -2 -2 -1 -1 -1 -1 -1 -1 -2 -2 -3 -4 -4 -5 -5 -6 -6 -7 -7 -7 -7 -8 -8 -8 -8 -8 -9 -9 -9 -9 -9
-2 -2 -2 -2 -2 -2 -2 -2 -2 -2 -1 -1 -1 -2 -2 -3 -4 -4 -5 -6 -6 -6 -7 -7 -8 -8 -8 -8 -9 -9 -9 -9 -9 -9 -9 -9 -9 -9
-2 -2 -2 -3 -2 -2 -2 -2 -2 -2 -2 -2 -2 -3 -3 -4 -5 -6 -6 -7 -7 -8 -8 -8 -9 -9 -9 -9 -9 -10 -10 -10 -10 -10 -10 -10 -10 -10
-3 -3 -3 -3 -3 -3 -3 -3 -2 -2 -2 -3 -3 -4 -4 -5 -6 -7 -7 -8 -9 -9 -9 -10 -10 -10 -10 -10 -10 -11 -10 -11 -12 -12 -11 -11 -11 -11
-3 -4 -4 -4 -4 -3 -3 -3 -3 -3 -3 -4 -4 -5 -6 -6 -7 -8 -9 -9 -10 -10 -10 -11 -11 -11 -11 -11 -11 -11 -12 -11 -11 -12 -12 -12 -12 -12
-5 -5 -5 -5 -5 -4 -4 -4 -4 -4 -4 -5 -5 -6 -7 -7 -8 -9 -9 -10 -11 -11 -12 -12 -12 -12 -12 -12 -11 -12 -12 -12 -12 -12 -12 -11 -12 -12
-5 -5 -6 -6 -5 -5 -5 -5 -5 -5 -6 -6 -7 -7 -8 -8 -9 -10 -10 -11 -11 -12 -12 -13 -13 -13 -13 -13 -13 -12 -12 -13 -13 -12 -12 -12 -11 -12
-6 -6 -6 -6 -6 -6 -6 -6 -6 -7 -7 -7 -8 -8 -9 -9 -10 -11 -11 -11 -12 -13 -13 -13 -13 -14 -13 -13 -13 -13 -13 -14 -13 -13 -13 -12 -12 -12
-6 -7 -7 -7 -7 -7 -7 -7 -7 -8 -8 -8 -8 -9 -9 -10 -11 -12 -12 -12 -13 -13 -13 -14 -14 -15 -15 -15 -14 -13 -14 -14 -14 -13 -13 -13 -13 -12
-7 -7 -8 -8 -8 -8 -8 -8 -8 -8 -9 -9 -9 -10 -10 -11 -12 -12 -13 -13 -13 -13 -13 -14 -14 -14 -14 -14 -14 -14 -14 -14 -14 -14 -14 -13 -13 -13
-8 -8 -8 -8 -8 -8 -9 -9 -9 -9 -10 -10 -10 -11 -11 -11 -12 -13 -13 -13 -13 -14 -14 -14 -15 -15 -15 -15 -15 -14 -14 -14 -15 -15 -15 -15 -14 -13
-8 -9 -8 -8 -9 -9 -9 -9 -10 -10 -10 -10 -11 -11 -12 -12 -12 -13 -13 -13 -14 -14 -14 -14 -14 -15 -15 -15 -15 -14 -14 -14 -14 -14 -14 -15 -15 -14

GFSNE_700_temp_069.txt.gz
Temp
3 3 2 2 2 2 1 1 1 1 1 0 0 -1 -1 -1 -1 -1 -1 -1 -1 -2 -2 -3 -3 -3 -4 -4 -4 -4 -5 -5 -5 -5 -5 -5 -4 -4
3 3 2 2 2 2 2 1 1 0 0 0 -0 -0 -1 -1 -1 -1 -2 -2 -2 -2 -2 -3 -3 -4 -4 -4 -5 -5 -5 -4 -4 -4 -4 -4 -4 -4
3 2 2 2 2 1 1 1 1 1 0 0 0 0 -0 -0 -1 -1 -2 -2 -2 -1 -2 -2 -3 -4 -5 -5 -5 -5 -5 -4 -4 -4 -4 -4 -4 -4
2 2 2 2 1 1 1 1 1 1 0 0 -0 0 -0 -0 -0 -1 -1 -2 -2 -2 -2 -3 -3 -3 -4 -4 -4 -4 -4 -4 -5 -5 -5 -5 -4 -4
2 1 1 1 1 1 0 0 0 0 0 0 0 1 0 0 -0 -0 -1 -1 -1 -1 -2 -2 -3 -4 -4 -4 -4 -4 -4 -5 -5 -6 -6 -5 -5 -5
1 1 1 0 0 0 0 0 -0 0 0 0 1 0 0 0 0 0 0 -0 -0 -1 -1 -2 -2 -3 -3 -3 -3 -4 -4 -5 -5 -5 -5 -5 -5 -5
0 0 0 0 0 0 0 0 0 0 0 0 0 0 0 0 0 0 0 0 0 -0 -1 -1 -2 -3 -3 -3 -3 -3 -4 -4 -4 -5 -5 -5 -5 -5
0 0 0 -0 -0 -0 -0 -0 -0 -0 -0 -0 -0 -0 -0 -0 0 0 0 0 0 -0 -1 -1 -2 -2 -3 -3 -3 -4 -4 -4 -4 -4 -4 -5 -6 -6
-0 -0 -0 -0 -0 -0 -1 -1 -1 -1 -1 -1 -1 -1 -1 -1 -0 -0 -0 -0 -0 -1 -1 -2 -1 -1 -2 -3 -3 -4 -4 -4 -4 -4 -5 -6 -6 -6
-1 -1 -1 -1 -1 -1 -1 -1 -1 -1 -1 -1 -1 -1 -1 -1 -1 -1 -1 -1 -1 -1 -2 -2 -3 -3 -3 -3 -3 -4 -4 -4 -5 -6 -6 -7 -7 -7
-1 -1 -1 -1 -1 -1 -1 -1 -1 -2 -2 -2 -1 -1 -1 -1 -1 -1 -1 -2 -2 -3 -3 -4 -4 -4 -5 -5 -5 -5 -5 -5 -6 -7 -7 -7 -8 -8
-2 -2 -2 -2 -2 -2 -2 -2 -2 -2 -2 -2 -2 -1 -1 -1 -2 -2 -2 -3 -4 -4 -5 -5 -6 -6 -6 -6 -7 -7 -7 -7 -8 -8 -8 -8 -8 -8
-2 -2 -3 -2 -2 -2 -2 -2 -2 -2 -2 -2 -2 -2 -2 -2 -2 -3 -3 -4 -5 -5 -6 -6 -7 -8 -8 -8 -8 -8 -8 -9 -9 -9 -9 -9 -9 -9
-3 -3 -3 -3 -3 -3 -3 -3 -3 -3 -2 -2 -2 -2 -3 -3 -3 -4 -5 -5 -6 -6 -7 -7 -8 -9 -9 -9 -9 -10 -10 -10 -9 -10 -10 -10 -10 -9
-4 -4 -4 -4 -4 -4 -4 -4 -3 -3 -3 -3 -3 -3 -4 -4 -5 -5 -6 -6 -7 -7 -8 -8 -9 -10 -10 -10 -10 -10 -11 -11 -11 -11 -10 -10 -10 -10
-4 -4 -4 -4 -4 -5 -5 -4 -4 -4 -4 -4 -4 -5 -5 -5 -6 -6 -7 -7 -8 -9 -9 -9 -10 -11 -11 -11 -11 -11 -12 -11 -12 -12 -12 -12 -12 -11
-4 -5 -5 -5 -5 -5 -6 -5 -5 -5 -5 -5 -5 -6 -6 -7 -7 -7 -8 -8 -9 -10 -10 -10 -10 -11 -12 -12 -12 -12 -12 -12 -12 -13 -12 -12 -12 -12
-5 -5 -5 -5 -6 -6 -6 -6 -6 -6 -6 -6 -7 -7 -7 -8 -8 -8 -9 -9 -10 -11 -11 -11 -12 -12 -12 -12 -13 -13 -13 -13 -13 -13 -13 -13 -12 -13
-5 -6 -6 -6 -6 -6 -6 -7 -7 -7 -7 -7 -8 -8 -8 -8 -9 -9 -10 -10 -11 -12 -12 -12 -13 -13 -12 -12 -13 -13 -14 -14 -14 -14 -14 -14 -13 -13
-6 -6 -6 -7 -7 -7 -7 -7 -7 -8 -8 -8 -8 -9 -9 -9 -10 -10 -11 -11 -12 -12 -12 -13 -14 -13 -13 -13 -12 -14 -15 -14 -14 -14 -14 -14 -13 -13
-7 -7 -7 -7 -7 -7 -8 -8 -8 -8 -9 -9 -9 -9 -10 -10 -10 -11 -12 -12 -12 -13 -13 -13 -14 -14 -14 -13 -12 -13 -14 -15 -15 -15 -15 -14 -14 -14
-7 -7 -7 -7 -8 -8 -8 -8 -9 -9 -9 -9 -10 -10 -10 -11 -11 -12 -12 -12 -13 -13 -13 -14 -14 -14 -14 -14 -13 -13 -13 -14 -15 -15 -15 -15 -14 -13
-7 -7 -7 -8 -8 -8 -9 -9 -9 -10 -10 -10 -10 -11 -11 -11 -11 -12 -12 -13 -13 -13 -14 -13 -14 -14 -14 -14 -14 -14 -14 -14 -14 -14 -14 -15 -15 -15

GFSNE_700_temp_072.txt.gz
Temp
4 4 3 3 3 2 2 2 1 1 1 1 1 1 0 0 0 -1 -1 -1 -1 -1 -1 -1 -2 -2 -1 -3 -3 -3 -3 -3 -4 -4 -4 -4 -4 -5
3 3 3 3 2 2 2 1 1 1 1 1 1 1 0 0 -0 -0 -1 -1 -1 -1 -1 -1 -2 -1 -1 -3 -3 -3 -4 -4 -4 -4 -4 -4 -4 -4
3 3 2 2 2 2 1 1 1 1 1 1 1 1 0 0 0 0 -0 -0 -0 -1 -1 -1 -2 -2 -2 -3 -4 -3 -4 -4 -4 -4 -5 -5 -4 -4
3 2 2 2 1 1 1 1 1 1 1 1 1 0 0 0 0 0 -0 -0 -0 -1 -1 -1 -1 -2 -2 -3 -3 -3 -3 -4 -5 -5 -4 -4 -4 -4
2 2 1 1 1 1 1 0 0 0 0 0 1 1 0 1 1 1 1 0 0 0 -0 -0 -1 -1 -1 -2 -3 -3 -4 -5 -5 -5 -5 -5 -5 -5
1 1 1 1 0 1 1 1 1 0 0 1 1 1 1 1 1 0 0 0 0 0 0 -0 -0 -1 -1 -1 -2 -2 -3 -3 -4 -4 -5 -5 -5 -5
1 1 1 1 0 0 0 0 0 0 0 0 -0 -0 -0 -0 -0 -0 -0 0 0 0 0 -0 -0 -1 -1 -1 -2 -3 -3 -3 -3 -4 -4 -4 -4 -5
0 0 0 0 0 -0 -0 -0 -0 -0 -0 -0 -0 -1 -1 -1 -1 -1 -0 -0 -0 -0 -0 -0 -0 -0 -0 -1 -2 -2 -2 -3 -3 -3 -3 -4 -4 -5
-0 -0 -0 -1 -1 -1 -1 -1 -1 -1 -1 -1 -1 -1 -1 -1 -1 -1 -1 -1 -0 -0 -0 -1 -1 -1 -1 -1 -2 -2 -2 -3 -3 -3 -3 -3 -4 -4
-1 -1 -1 -1 -1 -1 -1 -1 -1 -1 -1 -1 -1 -1 -1 -1 -1 -1 -1 -1 -1 -1 -1 -1 -2 -2 -2 -2 -3 -3 -3 -3 -4 -4 -4 -4 -5 -5
-1 -1 -1 -1 -2 -1 -1 -1 -1 -1 -1 -2 -2 -1 -1 -1 -1 -1 -1 -1 -1 -2 -2 -3 -3 -3 -3 -4 -4 -4 -4 -4 -5 -5 -6 -6 -6 -7
-2 -2 -2 -2 -2 -2 -2 -2 -2 -2 -2 -2 -2 -2 -2 -2 -2 -2 -2 -2 -2 -3 -3 -4 -4 -4 -5 -5 -6 -6 -6 -6 -6 -7 -7 -7 -8 -8
-2 -2 -2 -2 -2 -3 -3 -3 -3 -3 -3 -3 -3 -2 -2 -2 -3 -3 -3 -3 -3 -4 -4 -5 -5 -5 -6 -7 -7 -7 -7 -8 -8 -8 -8 -8 -8 -8
-3 -3 -3 -3 -3 -3 -3 -3 -4 -4 -3 -3 -3 -3 -3 -3 -3 -4 -4 -5 -5 -5 -5 -6 -6 -7 -7 -8 -9 -9 -9 -9 -9 -9 -9 -10 -9 -9
-3 -4 -4 -4 -4 -4 -4 -4 -4 -4 -4 -4 -4 -4 -4 -4 -5 -5 -5 -6 -6 -6 -6 -7 -7 -8 -9 -9 -10 -10 -10 -10 -11 -11 -10 -10 -10 -10
-4 -4 -4 -4 -4 -4 -4 -4 -5 -5 -5 -5 -5 -5 -5 -5 -6 -6 -7 -7 -7 -7 -7 -8 -8 -9 -10 -10 -11 -11 -11 -11 -11 -12 -12 -12 -12 -11
-4 -4 -4 -4 -5 -5 -5 -5 -5 -5 -5 -5 -5 -6 -6 -6 -7 -7 -7 -8 -8 -8 -9 -9 -9 -10 -11 -11 -11 -12 -12 -12 -12 -12 -12 -12 -12 -13
-5 -5 -5 -5 -5 -5 -5 -6 -6 -6 -6 -6 -6 -6 -7 -7 -7 -8 -8 -8 -9 -9 -10 -10 -11 -11 -12 -12 -12 -12 -13 -13 -13 -13 -13 -13 -13 -13
-5 -5 -5 -5 -6 -6 -6 -6 -7 -7 -7 -7 -7 -7 -8 -8 -8 -9 -9 -9 -10 -10 -11 -11 -12 -12 -12 -12 -12 -13 -14 -14 -13 -13 -14 -13 -13 -13
-6 -6 -6 -6 -7 -7 -7 -7 -7 -7 -7 -7 -8 -8 -8 -9 -9 -10 -10 -10 -10 -11 -11 -12 -12 -13 -13 -13 -12 -13 -14 -14 -14 -13 -14 -14 -13 -14
-6 -6 -7 -7 -7 -8 -8 -8 -8 -8 -8 -8 -8 -9 -9 -9 -10 -10 -10 -11 -11 -11 -12 -13 -13 -13 -13 -13 -13 -13 -14 -14 -14 -14 -14 -14 -14 -14
-6 -6 -6 -7 -7 -8 -8 -8 -9 -9 -9 -9 -9 -9 -9 -10 -10 -11 -11 -11 -12 -12 -12 -13 -13 -13 -14 -13 -13 -13 -13 -14 -14 -14 -14 -14 -14 -13
-6 -7 -7 -7 -7 -8 -8 -9 -9 -9 -9 -9 -9 -10 -10 -10 -11 -11 -11 -12 -12 -12 -13 -13 -13 -14 -14 -14 -13 -13 -13 -14 -14 -14 -14 -15 -14 -14

GFSNE_700_temp_075.txt.gz
Temp
4 4 4 3 3 2 2 2 1 1 1 2 1 1 1 1 1 1 1 1 0 -0 0 -1 -1 -0 -1 -1 -1 -2 -2 -2 -3 -3 -3 -4 -4 -4
3 3 3 3 2 2 2 2 1 1 1 1 1 1 1 1 1 1 0 0 0 0 0 -0 -0 -0 -1 -1 -1 -3 -3 -3 -3 -3 -3 -4 -4 -4
3 3 3 2 2 2 1 1 1 1 1 1 1 1 1 1 1 1 0 0 0 1 1 0 -0 -0 -1 -2 -2 -3 -3 -3 -4 -4 -4 -4 -4 -4
2 2 2 2 1 1 1 1 1 1 1 1 1 1 1 1 1 1 1 1 1 1 1 1 1 0 -0 -1 -2 -2 -2 -4 -4 -4 -4 -4 -5 -5
2 2 2 2 1 1 1 0 0 1 1 1 1 1 1 1 1 1 1 1 1 1 1 1 1 1 0 0 -0 -2 -2 -3 -3 -3 -4 -4 -5 -4
1 1 1 1 1 0 1 0 1 1 1 1 1 0 1 0 0 0 1 0 0 0 0 0 0 0 0 0 0 -0 -1 -2 -3 -4 -5 -5 -6 -6
0 0 0 0 1 0 0 0 0 0 0 0 0 -0 -0 -0 -0 -0 -0 -0 -0 -0 -0 0 0 0 0 0 -0 -1 -1 -1 -2 -3 -3 -4 -4 -4
-0 -0 0 0 0 0 -0 -0 -0 -0 -0 -0 -0 -0 -1 -1 -1 -1 -1 -1 -0 -0 -0 -0 -0 -0 -0 -0 -0 -1 -1 -2 -2 -2 -2 -3 -3 -4
-0 -1 -0 -0 -1 -1 -1 -1 -1 -1 -1 -1 -1 -1 -1 -1 -1 -1 -1 -1 -1 -1 -1 -0 -0 -0 -1 -1 -1 -1 -2 -2 -3 -3 -3 -3 -3 -3
-1 -1 -1 -1 -1 -1 -1 -1 -1 -1 -1 -1 -1 -1 -1 -1 -1 -1 -1 -1 -1 -1 -1 -1 -1 -1 -1 -2 -2 -2 -2 -3 -3 -3 -4 -4 -4 -4
-1 -1 -2 -1 -1 -1 -1 -1 -1 -1 -1 -2 -2 -2 -2 -2 -2 -2 -1 -1 -2 -2 -2 -2 -2 -2 -2 -3 -3 -3 -4 -4 -4 -4 -4 -5 -5 -5
-2 -2 -2 -2 -2 -2 -2 -2 -2 -2 -2 -2 -2 -2 -2 -2 -2 -2 -2 -2 -2 -2 -3 -3 -3 -4 -4 -4 -4 -5 -5 -5 -5 -5 -6 -6 -6 -7
-2 -2 -2 -3 -3 -3 -3 -3 -3 -3 -3 -3 -3 -3 -3 -3 -3 -3 -3 -3 -3 -3 -4 -4 -4 -5 -5 -6 -6 -6 -6 -7 -7 -7 -7 -7 -8 -8
-3 -3 -3 -3 -3 -3 -3 -3 -3 -3 -3 -4 -4 -4 -4 -4 -4 -4 -4 -4 -4 -4 -5 -5 -5 -6 -6 -7 -7 -8 -8 -8 -8 -8 -8 -9 -9 -9
-3 -3 -4 -3 -3 -4 -4 -4 -4 -4 -4 -4 -4 -4 -4 -4 -4 -5 -5 -5 -5 -6 -6 -6 -6 -7 -7 -7 -8 -8 -9 -10 -10 -10 -10 -10 -10 -10
-4 -4 -4 -4 -4 -4 -4 -4 -4 -4 -4 -4 -5 -5 -5 -5 -5 -5 -6 -6 -6 -7 -7 -7 -7 -8 -8 -8 -9 -10 -10 -10 -11 -11 -11 -11 -11 -11
-4 -4 -4 -4 -4 -5 -5 -5 -5 -5 -5 -5 -5 -5 -5 -6 -6 -6 -7 -7 -7 -7 -8 -8 -8 -8 -9 -10 -10 -11 -11 -11 -12 -12 -12 -12 -12 -12
-4 -5 -5 -5 -5 -5 -5 -5 -6 -6 -6 -6 -6 -6 -6 -6 -7 -7 -7 -8 -8 -8 -8 -9 -9 -9 -10 -10 -11 -11 -12 -12 -13 -12 -12 -12 -12 -13
-5 -5 -5 -5 -5 -6 -6 -6 -6 -6 -7 -6 -7 -7 -7 -7 -7 -8 -8 -8 -9 -9 -9 -10 -10 -10 -10 -11 -11 -12 -13 -14 -13 -13 -13 -12 -12 -13
-5 -6 -6 -6 -6 -6 -6 -6 -7 -7 -7 -7 -7 -7 -8 -8 -8 -9 -9 -9 -10 -10 -10 -10 -11 -11 -11 -11 -11 -12 -13 -13 -13 -13 -13 -13 -13 -13
-7 -6 -6 -6 -6 -6 -6 -7 -7 -8 -8 -8 -8 -8 -8 -8 -9 -9 -10 -10 -10 -11 -11 -11 -12 -12 -12 -12 -12 -12 -13 -14 -14 -13 -13 -13 -13 -13
-5 -6 -6 -6 -6 -7 -7 -7 -8 -8 -8 -8 -9 -9 -9 -9 -9 -10 -10 -11 -11 -11 -11 -12 -12 -12 -12 -13 -13 -13 -13 -13 -14 -14 -13 -14 -13 -12
-6 -6 -6 -6 -7 -7 -7 -8 -8 -8 -8 -9 -9 -9 -10 -10 -10 -11 -11 -11 -12 -12 -12 -12 -12 -13 -13 -13 -14 -13 -13 -13 -14 -14 -14 -15 -14 -14

GFSNE_700_temp_078.txt.gz
Temp
4 4 3 3 3 3 3 2 2 2 1 2 2 1 2 1 2 2 1 1 1 1 1 1 1 1 0 0 0 0 -0 -1 -2 -2 -3 -3 -3 -4
3 3 3 3 3 3 2 2 2 2 1 1 1 1 1 1 1 1 1 1 1 0 1 1 1 1 0 0 1 0 0 -1 -2 -3 -2 -3 -3 -4
3 3 3 3 2 2 2 1 1 1 1 1 1 1 1 1 1 1 1 1 0 1 1 1 1 1 1 1 0 0 -1 -1 -2 -3 -3 -3 -3 -3
3 3 2 2 2 1 1 1 1 1 1 1 1 0 1 1 1 1 0 1 1 1 1 1 1 1 1 1 0 -0 -1 -2 -4 -4 -4 -3 -3 -4
2 2 2 1 1 1 1 1 1 1 1 1 0 0 0 1 1 1 1 0 0 0 0 0 1 1 1 0 0 0 -0 -1 -2 -3 -4 -4 -4 -4
1 1 1 1 1 1 1 0 1 1 0 0 0 0 0 0 0 -0 0 0 -0 -0 -0 -0 0 0 0 0 0 -0 -0 -0 -1 -2 -3 -3 -4 -4
1 0 0 0 0 0 0 0 0 0 -0 -0 -0 0 -0 -0 -0 -0 -0 -0 -0 -0 -0 -0 -0 -0 0 -0 -0 -0 -0 -1 -1 -1 -1 -2 -4 -3
-0 -0 -0 -0 -0 -0 -0 -0 -0 -0 -0 -1 -0 -0 -0 -0 -0 -0 -1 -1 -0 -1 -0 -0 -0 -0 -0 -0 -0 -0 -1 -1 -1 -2 -2 -2 -2 -3
-1 -1 -1 -1 -1 -1 -1 -1 -1 -1 -1 -1 -1 -1 -1 -1 -1 -1 -1 -1 -1 -1 -1 -1 -1 -1 -1 -1 -1 -1 -1 -2 -2 -3 -3 -3 -3 -3
-1 -1 -1 -1 -1 -1 -1 -1 -1 -1 -1 -1 -1 -1 -1 -1 -1 -1 -1 -1 -1 -1 -1 -1 -1 -1 -2 -2 -2 -2 -2 -2 -3 -3 -3 -4 -4 -4
-2 -2 -1 -1 -1 -2 -2 -1 -2 -2 -2 -2 -2 -2 -2 -2 -2 -2 -2 -2 -2 -2 -2 -2 -2 -2 -2 -3 -3 -3 -3 -3 -4 -4 -4 -5 -5 -5
-2 -2 -2 -2 -2 -2 -2 -2 -2 -3 -2 -2 -2 -3 -3 -3 -3 -3 -3 -2 -3 -3 -3 -3 -3 -3 -3 -4 -4 -4 -4 -4 -5 -5 -5 -6 -6 -6
-3 -3 -3 -2 -2 -3 -3 -3 -3 -3 -3 -3 -3 -3 -3 -3 -3 -3 -3 -3 -3 -3 -3 -4 -4 -4 -5 -5 -5 -5 -5 -5 -6 -6 -6 -7 -7 -8
-3 -3 -3 -3 -3 -3 -3 -3 -4 -4 -4 -3 -4 -4 -3 -4 -4 -4 -4 -4 -4 -4 -4 -5 -5 -5 -5 -6 -6 -6 -6 -6 -7 -7 -7 -8 -9 -9
-3 -3 -3 -3 -3 -4 -4 -4 -4 -4 -4 -4 -4 -4 -4 -4 -4 -4 -4 -5 -5 -5 -5 -5 -6 -6 -6 -6 -7 -7 -8 -8 -8 -8 -9 -9 -10 -10
-4 -4 -4 -4 -4 -4 -4 -4 -5 -5 -5 -5 -5 -5 -5 -4 -5 -5 -5 -5 -6 -6 -6 -6 -7 -7 -7 -7 -8 -8 -8 -9 -9 -9 -10 -11 -11 -11
-4 -4 -4 -4 -4 -5 -5 -5 -5 -5 -5 -5 -5 -5 -5 -5 -5 -6 -6 -6 -6 -7 -7 -7 -8 -8 -8 -8 -9 -9 -9 -10 -10 -10 -11 -11 -11 -12
-4 -5 -5 -5 -5 -5 -5 -6 -6 -6 -6 -6 -6 -6 -6 -6 -6 -6 -7 -7 -7 -8 -8 -8 -8 -9 -9 -9 -10 -10 -11 -11 -11 -11 -12 -12 -12 -12
-5 -6 -6 -5 -6 -6 -6 -6 -7 -7 -7 -7 -7 -7 -7 -7 -7 -7 -7 -8 -8 -8 -9 -9 -9 -9 -9 -10 -10 -10 -11 -12 -12 -12 -12 -12 -11 -12
-5 -6 -6 -6 -7 -7 -6 -7 -6 -7 -7 -7 -7 -7 -7 -7 -8 -8 -8 -9 -9 -9 -9 -10 -10 -10 -10 -10 -10 -11 -12 -12 -12 -12 -13 -13 -13 -12
-6 -7 -7 -7 -7 -7 -6 -6 -7 -7 -7 -7 -8 -8 -8 -8 -9 -9 -9 -9 -9 -10 -10 -11 -11 -11 -11 -11 -11 -12 -12 -13 -13 -13 -13 -13 -13 -12
-6 -6 -7 -7 -7 -7 -6 -7 -7 -7 -7 -8 -8 -8 -8 -9 -9 -9 -10 -10 -10 -10 -11 -11 -11 -11 -11 -11 -12 -12 -12 -13 -14 -14 -14 -13 -13 -12
-6 -6 -7 -7 -7 -7 -7 -7 -7 -8 -8 -8 -8 -9 -9 -9 -10 -10 -10 -10 -11 -11 -11 -11 -12 -12 -12 -12 -12 -13 -13 -13 -14 -14 -14 -15 -14 -14

GFSNE_700_temp_081.txt.gz
Temp
4 4 4 3 3 3 3 2 2 3 2 2 1 1 1 1 1 1 2 1 1 1 1 1 1 1 1 1 1 0 1 0 0 -1 -2 -2 -2 -3
3 3 3 3 3 3 2 2 2 2 2 1 1 1 1 1 1 1 1 1 1 1 0 0 1 1 1 1 1 1 1 1 0 -1 -2 -2 -2 -3
3 3 3 3 3 2 2 2 2 1 1 1 1 0 0 0 1 1 1 1 0 0 1 1 1 1 1 1 1 1 1 1 0 -1 -2 -3 -2 -3
2 2 2 2 2 2 2 1 1 1 1 1 0 0 0 0 0 1 1 1 1 1 1 1 1 1 0 0 0 0 0 0 0 0 -2 -3 -3 -3
2 2 2 2 2 2 1 1 1 1 0 0 0 0 0 0 0 0 0 0 0 0 0 0 0 0 0 0 0 0 -0 -0 -1 -2 -2 -3 -5 -4
1 1 1 1 1 1 1 1 0 0 0 0 0 -0 -0 -0 -0 -0 -0 -0 -0 -0 -0 -0 -0 -0 -0 -0 -0 0 0 -0 -0 -1 -1 -2 -4 -5
1 0 0 0 0 0 -0 -0 0 -0 0 -0 -0 -0 -1 -1 -1 -1 -1 -0 -1 -1 -0 -1 -0 -0 -0 -0 -0 -0 -0 -0 -0 -1 -1 -1 -2 -3
-0 -1 -1 -1 -1 -1 -0 -0 -0 -1 -0 -1 -1 -1 -1 -1 -1 -1 -1 -1 -1 -1 -1 -1 -1 -1 -1 -1 -1 -1 -1 -1 -1 -1 -1 -1 -1 -2
-1 -1 -1 -1 -1 -1 -1 -1 -1 -1 -1 -1 -1 -1 -1 -1 -1 -1 -1 -1 -1 -1 -1 -1 -1 -1 -1 -1 -1 -1 -1 -2 -2 -2 -2 -2 -2 -2
-2 -2 -2 -2 -2 -1 -2 -2 -2 -2 -2 -1 -1 -2 -1 -1 -2 -2 -2 -2 -2 -2 -2 -2 -2 -2 -2 -2 -2 -2 -2 -2 -3 -3 -3 -3 -3 -3
-3 -3 -3 -2 -2 -2 -2 -2 -2 -2 -2 -2 -2 -2 -2 -2 -2 -3 -3 -3 -2 -3 -2 -2 -2 -3 -3 -2 -3 -3 -3 -3 -3 -3 -4 -4 -4 -4
-3 -3 -3 -3 -3 -3 -3 -3 -3 -3 -3 -2 -2 -3 -3 -3 -3 -3 -3 -3 -3 -3 -3 -3 -3 -3 -3 -3 -4 -4 -4 -4 -4 -4 -5 -5 -5 -5
-3 -3 -3 -3 -3 -3 -3 -3 -3 -3 -3 -3 -3 -3 -3 -3 -3 -3 -3 -4 -4 -4 -4 -4 -4 -4 -4 -4 -4 -5 -5 -5 -5 -5 -6 -6 -6 -6
-4 -4 -4 -4 -4 -4 -4 -4 -4 -4 -4 -4 -4 -3 -3 -4 -4 -4 -4 -4 -4 -4 -4 -5 -5 -5 -5 -6 -6 -6 -6 -6 -6 -6 -6 -7 -7 -7
-4 -4 -4 -4 -4 -4 -4 -4 -4 -4 -4 -4 -4 -4 -4 -4 -4 -4 -4 -4 -5 -5 -5 -5 -5 -6 -6 -6 -7 -7 -7 -7 -7 -7 -7 -8 -8 -9
-4 -4 -4 -4 -4 -4 -5 -5 -5 -5 -5 -5 -5 -5 -5 -5 -5 -5 -5 -5 -5 -5 -6 -6 -6 -7 -7 -7 -7 -8 -8 -8 -8 -8 -8 -9 -9 -10
-4 -4 -5 -5 -5 -5 -5 -5 -5 -5 -5 -6 -6 -6 -6 -6 -6 -6 -6 -6 -6 -6 -6 -7 -7 -8 -8 -8 -8 -8 -8 -9 -9 -9 -9 -10 -11 -11
-4 -5 -5 -5 -6 -6 -6 -7 -7 -6 -6 -7 -6 -7 -6 -6 -6 -7 -7 -7 -7 -7 -7 -7 -8 -8 -9 -9 -9 -9 -9 -10 -10 -10 -10 -10 -11 -12
-5 -5 -6 -6 -6 -7 -7 -8 -8 -8 -7 -7 -6 -7 -7 -7 -7 -7 -7 -7 -8 -8 -8 -8 -9 -9 -9 -9 -10 -10 -10 -10 -10 -11 -11 -11 -11 -12
-6 -6 -6 -6 -7 -7 -7 -8 -8 -7 -7 -7 -7 -7 -7 -7 -8 -8 -8 -8 -8 -9 -9 -9 -10 -10 -10 -10 -10 -11 -11 -11 -11 -11 -12 -12 -12 -12
-7 -7 -6 -7 -7 -7 -8 -8 -7 -7 -7 -8 -7 -7 -7 -8 -8 -8 -9 -9 -9 -9 -10 -10 -10 -10 -10 -11 -11 -11 -12 -12 -12 -12 -12 -12 -13 -13
-7 -7 -7 -7 -7 -7 -7 -7 -7 -7 -7 -7 -7 -8 -8 -8 -9 -9 -9 -9 -10 -10 -10 -11 -11 -11 -11 -11 -11 -11 -12 -12 -12 -13 -13 -13 -13 -12
-7 -7 -7 -7 -7 -7 -7 -7 -7 -7 -7 -8 -8 -8 -8 -9 -9 -9 -10 -10 -10 -10 -11 -11 -12 -12 -12 -12 -12 -12 -12 -13 -13 -13 -14 -15 -14 -14

GFSNE_700_temp_084.txt.gz
Temp
4 4 3 3 3 3 3 2 2 2 2 2 1 1 1 0 0 0 1 1 1 1 1 1 1 1 1 1 1 1 1 1 0 -0 -0 -1 -1 -2
3 3 3 3 3 2 2 2 2 2 2 2 2 1 1 0 0 0 1 1 1 1 1 1 1 1 1 1 1 1 1 1 1 1 -0 -1 -1 -2
3 3 2 2 2 2 2 2 1 1 1 1 1 1 0 0 0 0 1 1 0 0 1 1 1 1 1 1 1 1 1 1 1 1 -0 -2 -2 -3
2 2 2 2 2 1 2 1 1 1 1 1 0 0 -0 -0 -0 -0 0 0 0 0 0 0 1 0 0 0 1 1 1 1 0 0 -0 -1 -3 -2
2 2 1 2 1 1 1 1 1 0 0 0 -0 -0 -0 -0 0 0 -0 -0 -0 -0 -0 -0 -0 -0 -0 -0 0 -0 0 0 0 0 -1 -2 -3 -3
1 1 1 1 0 0 -0 0 0 -0 -0 -1 -1 -0 -0 -0 -0 -0 -0 -1 -1 -0 -0 -0 -0 -0 -0 -0 -0 -0 -0 -0 -0 -1 -1 -1 -2 -2
1 1 1 0 0 -1 -1 -0 -1 -1 -1 -1 -1 -1 -1 -0 -0 -0 -0 -1 -1 -1 -1 -1 -0 -0 -0 -0 -0 -0 -0 -0 -0 -1 -1 -1 -1 -2
0 -0 -0 -0 0 -1 -1 -1 -1 -1 -1 -1 -1 -1 -1 -1 -1 -1 -1 -1 -1 -1 -1 -1 -1 -1 -1 -1 -1 -1 -1 -1 -1 -1 -1 -1 -1 -1
-1 -1 -2 -2 -2 -2 -2 -2 -1 -2 -2 -1 -1 -2 -2 -2 -2 -1 -1 -1 -1 -2 -2 -1 -1 -1 -1 -1 -1 -1 -1 -1 -1 -1 -1 -2 -2 -2
-2 -2 -3 -3 -3 -3 -2 -2 -2 -2 -2 -2 -2 -2 -2 -2 -2 -2 -2 -2 -2 -2 -2 -2 -2 -2 -2 -2 -2 -2 -2 -2 -2 -2 -2 -3 -3 -3
-3 -3 -3 -3 -3 -3 -2 -3 -2 -2 -3 -3 -3 -2 -2 -2 -2 -2 -2 -3 -3 -3 -3 -3 -3 -2 -3 -3 -3 -3 -3 -3 -3 -3 -3 -3 -4 -4
-4 -4 -3 -3 -3 -3 -3 -3 -3 -3 -3 -3 -3 -3 -3 -3 -3 -3 -3 -3 -3 -3 -3 -3 -3 -3 -3 -3 -3 -3 -3 -4 -4 -4 -4 -5 -5 -5
-4 -4 -3 -3 -3 -4 -4 -4 -4 -4 -4 -4 -4 -3 -3 -3 -3 -3 -3 -4 -4 -3 -4 -4 -4 -4 -4 -4 -4 -4 -4 -5 -5 -5 -6 -6 -6 -6
-5 -4 -4 -4 -4 -4 -4 -4 -4 -4 -4 -4 -4 -4 -4 -4 -4 -4 -4 -4 -4 -4 -4 -4 -4 -4 -4 -5 -5 -5 -5 -5 -6 -6 -6 -7 -7 -7
-5 -4 -4 -4 -4 -4 -4 -4 -4 -4 -4 -5 -5 -5 -5 -5 -5 -5 -5 -5 -5 -4 -4 -5 -5 -5 -5 -5 -6 -6 -6 -6 -7 -7 -7 -7 -7 -7
-4 -4 -4 -5 -5 -5 -5 -5 -5 -5 -5 -5 -5 -5 -6 -6 -6 -6 -6 -6 -5 -5 -5 -5 -6 -6 -6 -6 -7 -7 -7 -8 -8 -8 -8 -8 -8 -8
-4 -5 -5 -5 -5 -5 -5 -5 -6 -6 -6 -6 -7 -7 -8 -7 -7 -6 -7 -6 -6 -6 -6 -6 -6 -6 -7 -7 -8 -8 -8 -8 -8 -8 -9 -9 -9 -9
-5 -5 -5 -5 -6 -5 -6 -6 -6 -6 -6 -7 -7 -8 -8 -7 -7 -8 -7 -7 -7 -7 -7 -7 -7 -7 -7 -8 -8 -9 -9 -9 -9 -9 -9 -10 -10 -10
-5 -6 -6 -6 -6 -6 -6 -6 -6 -6 -7 -8 -8 -8 -8 -7 -7 -7 -7 -7 -7 -8 -8 -8 -8 -8 -8 -9 -9 -9 -10 -10 -10 -10 -10 -10 -10 -11
-6 -6 -6 -7 -7 -7 -6 -6 -7 -7 -7 -8 -8 -7 -8 -8 -7 -7 -7 -8 -8 -8 -8 -8 -9 -9 -9 -9 -10 -10 -10 -10 -11 -11 -11 -11 -11 -11
-8 -8 -8 -8 -8 -7 -7 -7 -8 -8 -8 -8 -8 -8 -8 -8 -8 -8 -8 -8 -8 -9 -9 -9 -9 -9 -10 -10 -10 -11 -11 -11 -11 -12 -12 -11 -11 -12
-7 -7 -7 -7 -8 -8 -8 -7 -7 -7 -7 -7 -8 -8 -8 -8 -8 -8 -8 -9 -9 -9 -10 -10 -10 -10 -10 -11 -11 -11 -12 -12 -12 -12 -12 -12 -12 -12
-7 -7 -7 -7 -7 -7 -7 -8 -8 -8 -8 -8 -8 -8 -8 -8 -9 -9 -9 -10 -10 -10 -10 -11 -11 -11 -11 -11 -11 -12 -12 -12 -13 -13 -13 -13 -13 -13

GFSNE_700_temp_087.txt.gz
Temp
3 3 3 3 2 2 2 2 2 1 1 1 1 1 0 -0 0 0 0 0 1 1 1 1 1 1 1 1 1 1 1 1 1 1 1 0 -0 -1
2 2 2 2 2 2 2 2 1 1 1 1 1 1 1 -0 -0 -0 0 -0 0 0 1 0 0 1 1 1 1 1 1 1 2 1 1 0 -1 -1
2 2 2 2 2 1 1 1 1 1 0 1 0 0 0 0 -0 -1 -1 -0 0 0 0 0 1 1 1 1 1 1 1 1 1 1 1 0 -1 -2
1 2 2 1 1 1 1 1 0 0 0 0 -0 -0 -1 -0 -0 -1 -1 -0 0 0 0 0 0 1 1 1 0 1 0 0 1 1 1 0 -0 -2
1 1 1 1 1 1 1 0 0 0 -0 -0 -1 -1 -1 -1 -1 -0 -0 -0 -0 -0 -0 -0 -0 0 -0 0 0 -0 0 0 0 0 -0 -1 -2 -2
1 1 1 1 1 0 -0 0 -0 -0 -0 -1 -1 -1 -1 -2 -1 -1 -1 -1 -1 -0 -1 -1 -1 -0 -0 -0 -0 -0 -0 -0 -0 -0 -1 -0 -2 -2
0 0 0 0 -0 -1 -1 -1 -1 -1 -1 -1 -2 -2 -1 -2 -1 -1 -1 -1 -1 -1 -1 -1 -1 -1 -1 -0 -0 -0 -0 -1 -1 -1 -1 -1 -1 -1
0 0 0 -0 -1 -1 -1 -2 -2 -2 -2 -2 -2 -2 -2 -2 -2 -1 -1 -1 -1 -1 -1 -1 -1 -1 -1 -1 -1 -1 -1 -1 -1 -1 -1 -1 -1 -1
-0 -0 -1 -2 -2 -2 -2 -2 -2 -2 -3 -2 -2 -2 -2 -2 -2 -2 -2 -2 -1 -2 -2 -2 -2 -1 -1 -1 -1 -1 -1 -1 -1 -2 -2 -2 -2 -2
-1 -2 -2 -3 -3 -3 -3 -3 -2 -3 -3 -2 -2 -2 -2 -2 -2 -2 -2 -2 -2 -2 -2 -2 -2 -2 -2 -2 -2 -2 -2 -2 -2 -2 -2 -2 -2 -2
-2 -3 -3 -3 -4 -3 -3 -3 -3 -3 -3 -3 -3 -3 -3 -3 -3 -3 -3 -3 -3 -3 -3 -3 -3 -3 -3 -3 -3 -3 -3 -3 -3 -3 -3 -3 -3 -3
-3 -4 -4 -4 -4 -4 -4 -4 -4 -3 -3 -3 -3 -3 -3 -3 -3 -3 -3 -3 -3 -3 -3 -3 -3 -3 -3 -3 -3 -3 -3 -3 -3 -4 -4 -4 -4 -4
-4 -4 -4 -4 -4 -5 -5 -4 -4 -4 -4 -3 -4 -4 -4 -4 -4 -4 -4 -4 -4 -4 -4 -4 -4 -4 -4 -4 -4 -4 -4 -4 -4 -5 -5 -5 -5 -5
-5 -5 -5 -4 -5 -5 -4 -4 -4 -4 -4 -4 -4 -4 -4 -4 -4 -4 -4 -4 -4 -5 -5 -4 -4 -4 -4 -4 -4 -4 -4 -5 -5 -6 -6 -6 -6 -6
-5 -5 -5 -5 -5 -5 -5 -5 -5 -5 -4 -5 -5 -5 -5 -5 -5 -5 -5 -5 -5 -5 -5 -6 -5 -5 -5 -5 -5 -5 -5 -5 -6 -6 -7 -7 -7 -7
-5 -5 -5 -5 -5 -5 -5 -5 -5 -5 -5 -5 -5 -5 -6 -6 -6 -6 -6 -6 -6 -6 -6 -6 -6 -5 -6 -6 -6 -6 -6 -6 -7 -7 -7 -7 -7 -8
-5 -5 -5 -5 -5 -5 -5 -5 -5 -5 -5 -5 -6 -6 -6 -6 -6 -7 -7 -7 -7 -6 -7 -6 -6 -6 -6 -7 -7 -7 -7 -7 -7 -8 -8 -8 -8 -8
-5 -5 -6 -6 -6 -6 -6 -6 -6 -6 -6 -6 -6 -7 -7 -8 -8 -8 -8 -7 -7 -7 -7 -7 -7 -7 -7 -7 -8 -8 -8 -8 -8 -8 -8 -9 -9 -9
-5 -6 -6 -6 -6 -6 -6 -6 -6 -6 -6 -6 -7 -7 -7 -8 -8 -8 -8 -8 -7 -7 -7 -7 -7 -7 -7 -8 -8 -8 -9 -9 -9 -9 -9 -9 -10 -10
-7 -6 -7 -7 -7 -6 -6 -6 -7 -6 -6 -7 -7 -8 -8 -9 -8 -8 -8 -8 -8 -8 -8 -8 -8 -8 -9 -9 -9 -10 -10 -10 -10 -10 -10 -10 -10 -11
-7 -7 -8 -9 -8 -8 -7 -7 -8 -9 -7 -8 -8 -8 -8 -8 -8 -8 -8 -8 -8 -8 -8 -8 -8 -9 -9 -9 -10 -10 -10 -10 -10 -11 -11 -11 -11 -11
-7 -7 -7 -7 -7 -8 -8 -8 -8 -8 -8 -8 -8 -8 -8 -8 -8 -8 -8 -8 -9 -9 -9 -9 -10 -10 -10 -10 -10 -11 -11 -11 -11 -11 -11 -11 -12 -11
-7 -7 -7 -7 -7 -8 -8 -8 -8 -8 -8 -8 -8 -8 -8 -9 -9 -9 -9 -9 -9 -10 -10 -10 -10 -10 -11 -11 -11 -11 -12 -12 -12 -12 -12 -12 -12 -12

GFSNE_700_temp_090.txt.gz
Temp
1 2 1 2 2 2 2 2 2 2 2 2 1 1 0 1 -0 -1 0 -0 -0 0 1 1 1 0 0 0 1 1 1 1 1 1 1 0 0 -0
1 1 2 2 2 2 2 2 1 1 1 1 1 0 0 0 -0 -1 -1 -1 -1 -0 -0 0 0 -0 -0 -0 1 1 1 1 1 1 1 1 -0 -0
1 1 1 1 1 1 1 1 1 1 1 1 0 -0 -0 -0 -0 -1 -1 -1 -1 -1 -0 -0 -0 -0 -0 0 1 1 1 1 1 1 1 1 0 -0
1 1 1 1 1 1 1 1 1 0 1 0 -0 -0 -1 -1 -1 -1 -1 -1 -1 -1 -0 -0 -0 -0 0 0 1 1 0 0 1 1 1 1 0 -1
0 0 1 1 1 1 1 1 0 -0 -0 -0 -1 -1 -1 -1 -1 -1 -1 -1 -1 -1 -1 -1 -1 -1 -0 -0 0 0 0 -0 0 0 0 0 -0 -1
0 0 0 0 1 1 1 1 0 -0 -0 -1 -1 -2 -2 -2 -2 -2 -2 -1 -1 -1 -1 -1 -1 -1 -1 -1 -0 -0 -0 -0 -0 -0 -0 -0 -1 -1
0 0 0 0 0 1 0 0 -0 -1 -1 -2 -2 -2 -3 -3 -2 -2 -2 -1 -1 -1 -1 -1 -1 -1 -1 -1 -1 -1 -1 -1 -0 -0 -1 -0 -1 -1
0 0 0 0 -0 -0 -1 -1 -1 -2 -2 -2 -3 -3 -3 -2 -2 -2 -2 -2 -2 -2 -2 -2 -1 -1 -1 -1 -1 -1 -1 -1 -1 -1 -1 -1 -1 -1
-0 -0 -0 -0 -1 -1 -2 -2 -3 -3 -3 -3 -3 -3 -3 -2 -2 -2 -2 -2 -2 -2 -2 -2 -2 -2 -2 -2 -1 -1 -1 -1 -1 -1 -1 -1 -1 -1
-1 -1 -1 -1 -2 -2 -3 -3 -3 -3 -3 -3 -3 -3 -3 -3 -3 -3 -3 -2 -3 -3 -2 -3 -3 -3 -2 -2 -2 -2 -2 -2 -2 -2 -2 -2 -2 -2
-1 -1 -2 -2 -3 -3 -3 -3 -4 -4 -3 -3 -4 -3 -4 -4 -3 -3 -3 -3 -3 -3 -3 -3 -3 -3 -3 -3 -3 -3 -3 -3 -3 -3 -3 -3 -3 -3
-1 -2 -3 -3 -4 -4 -4 -4 -4 -4 -4 -4 -5 -4 -4 -4 -4 -3 -3 -4 -4 -4 -4 -4 -4 -4 -4 -4 -4 -4 -4 -4 -3 -4 -3 -3 -4 -4
-2 -2 -3 -4 -4 -4 -4 -4 -4 -4 -4 -4 -5 -5 -4 -4 -4 -4 -4 -4 -4 -4 -4 -4 -4 -4 -5 -4 -4 -4 -4 -4 -4 -4 -4 -4 -4 -5
-3 -3 -4 -4 -5 -4 -5 -5 -5 -5 -5 -5 -5 -5 -4 -4 -4 -5 -4 -4 -4 -4 -5 -5 -5 -5 -5 -5 -5 -5 -5 -5 -5 -5 -5 -5 -6 -6
-3 -4 -5 -5 -5 -5 -5 -5 -5 -5 -5 -5 -5 -5 -5 -5 -5 -5 -5 -5 -5 -5 -6 -6 -6 -5 -5 -6 -5 -5 -5 -5 -5 -6 -6 -6 -6 -6
-4 -5 -5 -5 -5 -5 -5 -5 -5 -5 -5 -5 -5 -5 -5 -6 -6 -6 -6 -6 -7 -7 -7 -6 -6 -6 -6 -6 -6 -6 -6 -6 -6 -6 -7 -7 -7 -7
-5 -5 -5 -5 -5 -5 -5 -5 -6 -5 -6 -6 -6 -6 -6 -6 -6 -7 -7 -7 -8 -7 -7 -7 -7 -6 -6 -6 -7 -7 -7 -7 -7 -7 -7 -7 -7 -7
-5 -6 -6 -6 -6 -6 -6 -6 -6 -6 -6 -6 -6 -6 -6 -7 -7 -7 -7 -8 -8 -8 -8 -7 -7 -7 -7 -7 -7 -7 -7 -8 -8 -8 -8 -8 -8 -8
-6 -6 -7 -6 -6 -6 -6 -6 -6 -6 -6 -6 -6 -7 -7 -7 -7 -8 -9 -9 -9 -9 -8 -8 -8 -8 -7 -7 -8 -8 -8 -8 -8 -8 -8 -8 -9 -10
-6 -8 -7 -7 -7 -7 -7 -7 -7 -7 -7 -7 -7 -7 -8 -8 -8 -8 -8 -8 -8 -8 -8 -8 -8 -8 -7 -8 -8 -9 -9 -9 -9 -9 -9 -9 -9 -10
-7 -7 -7 -8 -9 -8 -8 -8 -8 -8 -8 -8 -8 -8 -8 -9 -8 -8 -8 -8 -8 -8 -8 -9 -9 -8 -9 -9 -9 -9 -10 -9 -10 -10 -10 -10 -10 -11
-7 -7 -7 -7 -7 -7 -8 -8 -8 -8 -8 -8 -8 -8 -8 -8 -8 -8 -9 -9 -9 -9 -9 -9 -9 -9 -9 -9 -10 -10 -10 -10 -10 -10 -10 -10 -11 -11
-7 -7 -7 -7 -7 -7 -7 -7 -8 -8 -8 -8 -8 -8 -8 -8 -8 -9 -9 -9 -9 -9 -9 -10 -10 -10 -10 -10 -11 -11 -11 -11 -11 -11 -11 -12 -11 -12

GFSNE_700_temp_093.txt.gz
Temp
1 1 1 1 0 1 2 2 2 2 2 2 2 1 1 1 1 0 1 -0 0 -1 -0 0 0 0 0 0 0 1 1 1 0 1 1 1 0 -0
1 1 1 1 2 2 2 2 1 1 1 2 1 1 1 0 -0 -0 0 -0 -0 -0 -1 -1 -0 -0 -0 -0 0 0 0 1 1 1 1 1 1 0
1 1 1 1 1 1 1 1 1 1 1 1 1 0 0 -0 -1 -1 -1 -1 -1 -1 -1 -1 -1 -1 -1 -0 -0 -0 0 1 1 1 1 1 0 0
0 1 1 1 1 1 1 1 1 1 1 1 1 0 -0 -1 -1 -1 -2 -2 -2 -2 -1 -1 -1 -1 -1 -0 0 0 0 1 1 1 1 1 1 0
0 1 1 1 1 1 1 1 1 1 1 0 0 -0 -1 -1 -1 -1 -2 -2 -2 -2 -2 -1 -1 -1 -1 -1 -0 -0 -0 -0 -0 -0 0 1 1 0
0 0 0 1 1 1 1 1 0 0 0 0 -1 -1 -2 -2 -2 -2 -2 -2 -2 -2 -2 -2 -1 -1 -1 -1 -1 -1 -1 -1 -1 -1 -0 0 0 -0
0 0 0 1 1 1 0 0 0 0 -0 -0 -1 -2 -2 -2 -3 -2 -2 -2 -2 -2 -2 -2 -2 -2 -1 -2 -1 -1 -1 -1 -1 -1 -1 -1 -0 -0
-0 0 0 0 0 -0 -0 -0 -0 -1 -1 -1 -2 -2 -2 -3 -3 -3 -3 -2 -3 -3 -3 -2 -2 -2 -2 -2 -2 -1 -1 -1 -1 -1 -1 -1 -1 -1
-0 -0 -0 -0 -0 -0 -0 -1 -1 -2 -2 -2 -3 -3 -3 -3 -3 -3 -3 -3 -3 -3 -3 -3 -2 -2 -2 -2 -2 -2 -2 -2 -1 -1 -1 -1 -1 -1
-1 -1 -1 -1 -1 -1 -1 -2 -2 -3 -3 -3 -3 -3 -3 -3 -3 -3 -3 -4 -3 -3 -3 -3 -3 -3 -3 -3 -2 -2 -2 -2 -2 -2 -2 -2 -2 -2
-1 -1 -1 -1 -1 -2 -2 -3 -3 -3 -3 -4 -4 -4 -4 -4 -4 -4 -4 -4 -4 -5 -5 -4 -4 -4 -4 -4 -3 -3 -3 -3 -3 -3 -2 -2 -2 -2
-2 -2 -2 -2 -2 -3 -3 -3 -4 -4 -4 -4 -4 -4 -4 -5 -5 -4 -4 -4 -5 -4 -5 -5 -4 -4 -4 -4 -4 -4 -4 -4 -3 -3 -3 -3 -3 -3
-2 -2 -2 -2 -3 -3 -4 -4 -4 -4 -4 -4 -4 -4 -5 -5 -4 -4 -5 -5 -5 -5 -5 -5 -5 -5 -5 -5 -4 -4 -4 -4 -4 -4 -4 -4 -4 -4
-3 -3 -3 -3 -4 -4 -4 -5 -5 -5 -5 -5 -4 -5 -5 -5 -5 -5 -5 -5 -5 -5 -5 -5 -5 -6 -6 -5 -5 -5 -5 -5 -5 -5 -4 -5 -5 -5
-3 -4 -4 -4 -4 -5 -5 -5 -5 -5 -5 -5 -5 -5 -5 -5 -5 -5 -5 -6 -6 -6 -6 -6 -6 -6 -6 -6 -6 -5 -5 -6 -6 -5 -5 -5 -5 -5
-4 -4 -4 -4 -5 -5 -5 -5 -5 -5 -5 -5 -5 -5 -5 -6 -6 -6 -6 -6 -7 -7 -7 -7 -7 -7 -7 -7 -6 -6 -6 -6 -6 -6 -6 -6 -6 -6
-5 -5 -5 -5 -6 -6 -6 -6 -5 -5 -5 -5 -5 -6 -6 -6 -6 -6 -6 -7 -7 -7 -8 -8 -8 -8 -7 -7 -7 -6 -6 -7 -6 -7 -7 -7 -7 -7
-4 -5 -5 -6 -7 -7 -6 -6 -6 -6 -6 -6 -6 -6 -6 -6 -6 -7 -7 -7 -7 -8 -8 -8 -8 -8 -8 -7 -7 -8 -7 -7 -7 -7 -7 -7 -7 -7
-5 -6 -6 -6 -7 -8 -8 -6 -6 -6 -6 -6 -6 -6 -7 -7 -7 -7 -8 -8 -8 -8 -8 -8 -8 -8 -8 -8 -8 -8 -8 -8 -8 -8 -8 -8 -8 -9
-6 -6 -6 -6 -7 -8 -7 -7 -7 -7 -7 -7 -7 -7 -7 -8 -8 -8 -8 -8 -9 -9 -8 -8 -8 -8 -8 -8 -8 -8 -8 -8 -8 -8 -8 -9 -9 -9
-6 -6 -7 -7 -7 -7 -8 -8 -8 -8 -9 -8 -8 -9 -9 -9 -8 -8 -8 -9 -9 -8 -8 -9 -8 -8 -8 -8 -8 -9 -9 -9 -9 -9 -9 -9 -10 -10
-7 -7 -7 -7 -7 -8 -8 -8 -7 -8 -8 -8 -9 -8 -8 -8 -8 -8 -8 -9 -9 -9 -9 -9 -9 -9 -9 -9 -9 -9 -9 -10 -10 -10 -10 -10 -10 -10
-7 -7 -7 -7 -7 -7 -7 -7 -7 -8 -8 -8 -8 -8 -8 -8 -8 -8 -8 -8 -9 -9 -9 -9 -10 -9 -9 -9 -10 -10 -10 -10 -10 -11 -11 -11 -11 -11

GFSNE_700_temp_096.txt.gz
Temp
1 1 1 1 1 1 1 1 1 2 2 3 2 2 1 1 1 1 1 0 -2 -1 -1 -1 -1 -1 -1 -0 0 -0 -0 -0 0 1 1 0 0 -0
-0 -0 -0 -0 0 1 1 1 1 1 2 2 2 2 1 1 0 0 -0 -0 -1 -0 -1 -2 -1 -1 -1 -1 -0 -1 -0 -0 -0 0 0 0 0 0
-0 -0 0 0 1 1 1 1 1 1 1 2 2 1 1 1 0 -0 -0 -1 -1 -1 -1 -2 -2 -2 -1 -1 -1 -1 -1 -0 0 0 0 0 0 0
-0 0 0 0 1 1 1 1 1 1 1 1 1 1 1 0 -0 -1 -1 -2 -2 -2 -2 -2 -2 -2 -1 -1 -1 -1 -1 -0 0 0 1 1 1 0
0 -0 -0 0 0 0 1 1 1 1 1 1 1 1 1 0 -1 -1 -1 -2 -2 -3 -3 -2 -2 -2 -2 -1 -1 -1 -1 -1 -0 -0 0 0 0 0
-1 -0 -0 0 0 1 1 1 1 1 1 1 1 0 -0 -1 -1 -2 -2 -2 -2 -3 -3 -3 -2 -2 -2 -1 -1 -1 -1 -1 -1 -1 -0 -1 -0 -1
-0 -0 -0 -0 0 0 1 1 0 0 0 0 0 -0 -1 -2 -2 -2 -3 -3 -3 -3 -2 -2 -2 -2 -2 -2 -2 -2 -2 -1 -1 -1 -1 -1 -1 -2
-0 -0 -0 -0 0 -0 0 0 -0 -0 -0 0 -0 -1 -2 -2 -3 -3 -3 -3 -3 -3 -3 -2 -2 -2 -2 -2 -2 -2 -2 -2 -2 -2 -2 -2 -2 -2
-1 -1 -1 -1 -0 -0 -0 -0 -0 -0 -1 -1 -1 -2 -3 -3 -3 -3 -3 -3 -3 -3 -3 -3 -3 -3 -3 -3 -2 -2 -2 -2 -2 -2 -2 -2 -2 -2
-1 -1 -1 -1 -1 -1 -1 -1 -1 -1 -2 -2 -2 -3 -3 -3 -3 -3 -4 -4 -4 -4 -3 -3 -3 -3 -3 -3 -2 -2 -2 -2 -2 -2 -2 -2 -2 -2
-2 -1 -1 -1 -1 -1 -1 -1 -2 -2 -3 -3 -3 -3 -4 -3 -4 -4 -4 -4 -4 -4 -4 -4 -4 -4 -3 -3 -3 -3 -3 -3 -3 -3 -3 -3 -3 -3
-2 -2 -2 -1 -1 -2 -2 -2 -2 -3 -3 -4 -4 -4 -4 -4 -4 -4 -4 -4 -5 -5 -5 -5 -5 -5 -5 -4 -4 -4 -4 -4 -3 -3 -3 -3 -3 -3
-2 -2 -2 -2 -2 -2 -2 -2 -3 -4 -4 -4 -4 -4 -4 -5 -5 -5 -5 -5 -5 -5 -5 -6 -6 -6 -5 -5 -5 -4 -4 -4 -4 -4 -4 -4 -4 -4
-3 -3 -2 -2 -2 -3 -3 -3 -4 -4 -5 -5 -5 -5 -5 -5 -5 -5 -5 -5 -5 -6 -6 -6 -6 -6 -5 -5 -5 -5 -5 -5 -5 -4 -5 -4 -4 -4
-3 -3 -3 -3 -3 -4 -4 -4 -4 -5 -5 -5 -5 -5 -5 -5 -5 -5 -5 -5 -5 -6 -6 -6 -6 -6 -6 -5 -6 -6 -6 -6 -5 -5 -5 -5 -5 -5
-4 -4 -3 -3 -4 -4 -5 -5 -5 -5 -5 -5 -5 -5 -5 -5 -5 -5 -5 -6 -6 -6 -6 -7 -7 -7 -7 -7 -7 -7 -6 -6 -6 -6 -6 -6 -6 -6
-4 -4 -4 -4 -5 -5 -5 -5 -5 -5 -6 -5 -5 -5 -5 -6 -6 -6 -6 -6 -6 -6 -7 -7 -7 -8 -8 -8 -8 -7 -7 -7 -7 -7 -6 -6 -6 -6
-4 -5 -5 -5 -5 -5 -6 -6 -6 -6 -6 -6 -6 -6 -6 -6 -6 -6 -6 -7 -7 -7 -7 -7 -8 -8 -8 -8 -8 -8 -7 -7 -7 -7 -7 -7 -7 -7
-5 -6 -5 -5 -6 -6 -6 -7 -8 -7 -8 -8 -7 -6 -7 -7 -7 -7 -7 -7 -7 -7 -8 -8 -9 -8 -8 -8 -8 -8 -8 -7 -7 -7 -7 -7 -7 -7
-6 -6 -6 -6 -6 -6 -6 -7 -9 -9 -9 -7 -7 -7 -7 -7 -7 -7 -7 -8 -8 -8 -8 -8 -9 -8 -8 -8 -8 -8 -8 -8 -8 -8 -8 -7 -7 -8
-6 -6 -6 -6 -6 -6 -7 -7 -8 -9 -9 -8 -8 -8 -9 -8 -8 -8 -9 -9 -9 -9 -9 -9 -9 -8 -8 -8 -8 -9 -8 -8 -8 -8 -8 -8 -8 -8
-6 -6 -6 -7 -6 -6 -7 -7 -8 -8 -9 -9 -9 -9 -9 -9 -9 -9 -9 -9 -9 -9 -9 -9 -9 -9 -9 -9 -9 -9 -9 -9 -9 -8 -9 -9 -9 -9
-7 -7 -7 -7 -7 -7 -7 -7 -7 -8 -8 -8 -8 -9 -8 -8 -8 -8 -8 -8 -8 -8 -9 -9 -9 -9 -9 -9 -9 -9 -9 -9 -9 -9 -10 -10 -10 -10

GFSNE_700_temp_099.txt.gz
Temp
2 1 0 0 0 0 1 1 1 1 1 2 2 2 2 2 1 1 1 1 1 0 -0 0 0 -0 -1 -1 -1 -1 -0 -0 -0 0 0 -0 0 0
-0 0 0 0 0 0 1 1 1 1 2 1 2 1 1 2 1 1 1 1 0 0 0 -0 -0 -1 -1 -1 -1 -1 -1 -1 -1 -0 0 -0 -0 -0
-0 0 -0 0 0 1 1 1 1 1 1 1 1 2 1 1 1 1 1 0 0 -0 -0 -0 -1 -2 -2 -2 -1 -1 -1 -1 -1 -0 -0 -0 -0 -0
-0 -1 -0 -0 0 0 1 1 1 1 1 1 1 1 1 1 1 1 0 0 -0 -0 -1 -1 -2 -2 -2 -2 -2 -2 -2 -1 -1 -0 -0 0 -0 -0
-0 -1 -1 -0 -0 0 0 0 0 1 1 1 1 1 1 1 1 0 -0 -0 -1 -1 -1 -2 -3 -2 -2 -2 -2 -1 -2 -1 -1 -1 -0 -0 -0 -0
-1 -1 -1 -0 -0 0 0 -0 0 0 1 1 1 1 0 0 0 -0 -1 -1 -2 -2 -2 -3 -3 -3 -2 -2 -2 -2 -1 -1 -1 -1 -1 -1 -0 -0
-1 -1 -1 -0 -0 -0 -0 -0 0 1 1 1 0 -0 -0 -0 -0 -1 -1 -2 -2 -3 -3 -2 -2 -2 -2 -2 -2 -2 -1 -2 -2 -2 -2 -2 -2 -1
-1 -1 -1 -1 -0 -0 -0 -0 -0 -0 0 -0 -0 -0 -1 -1 -1 -2 -2 -3 -3 -3 -3 -3 -3 -3 -2 -2 -2 -2 -2 -2 -2 -2 -2 -3 -2 -3
-1 -1 -1 -1 -1 -0 -0 -0 -0 -0 -1 -1 -1 -1 -1 -2 -2 -3 -3 -3 -3 -3 -3 -3 -3 -3 -3 -3 -3 -2 -2 -2 -2 -2 -2 -3 -2 -3
-2 -2 -1 -1 -1 -1 -1 -1 -1 -1 -1 -1 -1 -2 -2 -2 -3 -3 -3 -3 -3 -3 -3 -3 -3 -3 -3 -3 -3 -3 -3 -3 -2 -2 -2 -2 -3 -3
-2 -2 -2 -2 -2 -1 -1 -1 -1 -1 -1 -2 -2 -2 -3 -3 -3 -3 -3 -4 -4 -4 -4 -4 -4 -4 -4 -4 -4 -4 -4 -3 -3 -3 -3 -3 -2 -3
-3 -3 -2 -2 -2 -2 -1 -1 -2 -2 -2 -2 -3 -3 -3 -4 -4 -4 -4 -4 -4 -4 -4 -5 -5 -5 -5 -5 -5 -5 -4 -4 -4 -3 -3 -3 -3 -3
-3 -3 -3 -2 -2 -2 -2 -2 -2 -3 -3 -3 -3 -4 -4 -4 -4 -4 -5 -4 -5 -5 -5 -5 -5 -5 -5 -5 -5 -5 -5 -5 -4 -4 -4 -4 -4 -4
-4 -3 -3 -3 -3 -3 -2 -2 -3 -3 -3 -4 -4 -4 -4 -4 -5 -5 -5 -5 -5 -5 -5 -5 -6 -6 -5 -5 -5 -5 -5 -5 -5 -5 -5 -5 -4 -4
-4 -4 -4 -3 -3 -3 -3 -3 -3 -4 -4 -4 -4 -5 -5 -5 -5 -5 -5 -5 -5 -5 -5 -5 -6 -6 -6 -6 -5 -5 -5 -5 -6 -6 -5 -5 -5 -5
-4 -4 -4 -3 -3 -3 -3 -4 -4 -5 -5 -5 -5 -5 -5 -5 -5 -5 -5 -5 -5 -5 -6 -6 -6 -6 -6 -6 -6 -6 -6 -6 -6 -6 -6 -6 -6 -5
-4 -4 -4 -4 -4 -4 -4 -4 -5 -5 -5 -5 -5 -6 -5 -5 -5 -5 -6 -6 -6 -6 -6 -6 -7 -7 -7 -7 -7 -7 -7 -7 -7 -7 -7 -6 -6 -6
-5 -5 -4 -4 -4 -4 -4 -5 -5 -5 -7 -6 -6 -6 -6 -6 -6 -6 -6 -6 -6 -6 -6 -6 -7 -7 -7 -7 -7 -7 -7 -7 -7 -7 -7 -7 -7 -7
-5 -5 -5 -5 -5 -5 -5 -5 -6 -6 -7 -7 -6 -7 -7 -8 -8 -6 -6 -6 -7 -7 -7 -7 -7 -7 -7 -7 -8 -8 -7 -7 -7 -7 -7 -7 -7 -7
-6 -6 -6 -6 -6 -6 -6 -6 -6 -6 -7 -8 -8 -8 -9 -8 -8 -7 -7 -7 -7 -7 -7 -7 -8 -8 -7 -8 -8 -8 -8 -7 -7 -7 -7 -7 -7 -7
-6 -6 -6 -6 -6 -6 -6 -6 -6 -7 -7 -8 -9 -9 -10 -9 -8 -8 -8 -8 -8 -8 -8 -9 -9 -8 -8 -8 -8 -8 -8 -8 -8 -8 -8 -8 -8 -8
-7 -6 -6 -6 -7 -7 -6 -6 -7 -7 -7 -9 -10 -10 -9 -9 -9 -9 -9 -9 -9 -9 -9 -9 -9 -8 -8 -8 -8 -8 -8 -9 -9 -9 -8 -8 -8 -8
-7 -7 -7 -7 -7 -7 -7 -7 -7 -7 -8 -9 -10 -9 -9 -10 -9 -9 -9 -9 -9 -9 -9 -9 -8 -8 -8 -8 -8 -8 -9 -9 -9 -9 -9 -9 -9 -9

GFSNE_700_temp_102.txt.gz
Temp
2 1 1 1 0 0 0 -0 0 1 1 1 1 1 1 1 2 2 2 2 1 1 1 1 1 0 0 0 0 -0 -1 -1 -0 -0 0 -0 -0 0
1 1 1 -0 0 0 -0 0 0 0 1 1 1 1 1 1 1 1 1 1 1 1 1 1 1 -0 -0 -0 -0 -1 -1 -1 -1 -1 -1 -1 -0 -0
1 1 -0 0 0 -0 -0 -0 -0 0 1 1 1 1 1 1 1 1 1 1 1 1 0 0 -0 -0 -1 -1 -1 -2 -1 -1 -1 -1 -1 -1 -0 -0
1 0 0 -0 -1 -0 -0 -0 -0 0 1 1 1 1 1 1 1 1 1 1 1 0 0 -0 -1 -1 -2 -2 -2 -2 -2 -2 -1 -1 -1 -1 -0 -0
1 0 -0 -1 -1 -1 -1 -0 -0 0 0 1 1 1 1 1 1 1 1 1 0 0 -0 -1 -2 -2 -2 -2 -2 -2 -2 -2 -1 -1 -1 -0 -0 -0
0 -0 -0 -1 -1 -1 -1 -0 -0 -0 -0 0 0 1 0 0 1 1 1 1 1 -0 -1 -1 -2 -2 -2 -3 -2 -2 -2 -2 -2 -1 -1 -1 -0 -0
-0 -0 -1 -1 -1 -1 -1 -1 -0 -1 -0 -0 0 0 0 1 0 0 0 -0 -1 -1 -2 -2 -2 -3 -3 -3 -2 -2 -2 -2 -2 -1 -2 -1 -1 -1
-1 -1 -1 -1 -1 -1 -1 -1 -1 -1 -1 -1 -0 0 0 -0 -0 -0 -0 -1 -2 -2 -2 -3 -3 -3 -2 -3 -3 -2 -2 -2 -2 -2 -2 -3 -3 -2
-1 -2 -2 -2 -2 -2 -2 -1 -1 -1 -1 -1 -1 -1 -1 -1 -1 -1 -1 -2 -2 -3 -3 -3 -3 -3 -3 -3 -3 -3 -2 -2 -2 -2 -2 -2 -2 -3
-2 -2 -2 -2 -2 -2 -2 -1 -1 -1 -1 -1 -1 -1 -1 -1 -2 -2 -2 -3 -3 -3 -3 -3 -4 -4 -4 -4 -3 -3 -3 -3 -2 -3 -3 -3 -3 -3
-3 -3 -3 -3 -3 -2 -2 -2 -2 -2 -1 -1 -2 -2 -2 -2 -2 -3 -3 -3 -3 -4 -4 -4 -4 -4 -4 -4 -4 -4 -3 -3 -3 -3 -3 -3 -3 -3
-3 -3 -3 -3 -3 -3 -3 -3 -2 -2 -2 -2 -2 -2 -3 -3 -3 -3 -3 -4 -4 -4 -4 -5 -5 -5 -5 -5 -5 -5 -4 -4 -4 -4 -4 -4 -3 -3
-4 -3 -3 -4 -3 -3 -3 -3 -2 -2 -2 -2 -3 -3 -3 -3 -4 -4 -4 -4 -5 -5 -5 -5 -5 -5 -5 -6 -5 -6 -5 -5 -5 -4 -4 -4 -4 -4
-4 -4 -4 -4 -4 -4 -3 -3 -3 -3 -3 -3 -4 -3 -3 -4 -4 -4 -4 -5 -5 -5 -5 -5 -5 -5 -5 -5 -5 -5 -5 -5 -5 -4 -5 -5 -5 -4
-4 -4 -4 -4 -4 -4 -4 -3 -3 -3 -3 -4 -4 -4 -4 -4 -5 -5 -5 -5 -5 -5 -5 -5 -5 -5 -5 -6 -6 -5 -5 -5 -5 -5 -5 -5 -5 -5
-5 -4 -4 -4 -4 -4 -4 -4 -4 -4 -4 -4 -5 -5 -5 -5 -5 -5 -5 -5 -5 -5 -5 -6 -6 -6 -6 -6 -6 -6 -6 -6 -6 -6 -6 -6 -6 -6
-6 -5 -5 -4 -4 -4 -4 -4 -4 -4 -4 -5 -5 -6 -5 -5 -6 -6 -5 -5 -5 -6 -6 -6 -6 -6 -6 -6 -6 -6 -6 -6 -6 -6 -6 -6 -6 -6
-6 -5 -6 -5 -5 -5 -5 -5 -4 -4 -5 -6 -6 -6 -6 -6 -6 -6 -6 -6 -6 -6 -6 -6 -6 -6 -7 -7 -7 -7 -7 -7 -7 -7 -7 -7 -6 -6
-6 -6 -6 -6 -6 -5 -5 -5 -5 -5 -6 -5 -6 -7 -7 -6 -6 -7 -7 -7 -7 -7 -7 -6 -6 -7 -7 -7 -7 -7 -8 -7 -7 -7 -7 -7 -7 -7
-6 -6 -6 -7 -6 -6 -6 -6 -6 -6 -6 -6 -6 -7 -9 -8 -7 -8 -8 -8 -8 -7 -7 -7 -7 -8 -7 -7 -8 -8 -8 -8 -7 -7 -7 -7 -7 -7
-7 -7 -7 -7 -7 -6 -6 -6 -6 -6 -6 -6 -7 -7 -9 -9 -9 -9 -9 -9 -9 -8 -8 -8 -8 -8 -8 -8 -8 -9 -8 -8 -8 -8 -8 -8 -8 -8
-7 -7 -7 -7 -7 -7 -7 -7 -6 -6 -7 -7 -7 -7 -9 -10 -10 -10 -10 -10 -9 -9 -9 -9 -9 -9 -9 -9 -9 -8 -8 -8 -8 -8 -8 -8 -8 -8
-8 -8 -8 -8 -8 -7 -7 -7 -7 -7 -7 -7 -7 -8 -10 -10 -11 -10 -10 -10 -10 -11 -10 -9 -9 -9 -9 -9 -9 -9 -8 -8 -9 -8 -8 -8 -8 -8

GFSNE_700_temp_105.txt.gz
Temp
1 2 2 1 1 1 1 1 1 1 0 0 0 1 1 1 1 1 2 2 2 1 1 1 1 1 1 1 1 0 0 0 -0 0 0 0 0 -0
2 2 2 2 1 1 1 1 0 -0 -0 -0 0 0 1 1 1 1 1 1 1 1 1 1 1 1 1 1 -0 -0 -0 -0 -1 -1 -1 -0 -1 -1
2 2 2 1 1 0 0 0 -0 -0 -0 -0 -0 0 0 1 1 1 1 1 1 1 1 1 1 0 0 0 -1 -1 -1 -1 -1 -1 -1 -1 -1 -0
2 1 1 1 1 0 0 -0 -0 -0 -1 -1 -0 -0 0 0 0 0 1 1 1 1 1 1 0 0 -0 -1 -1 -1 -2 -1 -2 -1 -1 -1 -1 -1
1 1 1 1 0 -0 -1 -0 -1 -1 -1 -1 -0 0 0 0 0 0 0 0 0 0 0 0 -0 -0 -0 -1 -2 -2 -2 -2 -2 -2 -1 -1 -1 -0
1 1 0 0 -0 -0 -1 -1 -1 -1 -1 -1 -0 -0 -0 0 0 -0 -0 -0 -0 0 -0 -1 -1 -1 -1 -2 -2 -2 -2 -2 -2 -2 -1 -1 -1 -1
0 -0 -0 -0 -0 -0 -1 -1 -1 -1 -1 -1 -1 -0 -0 -0 -0 -1 -1 -0 -0 -0 -1 -1 -2 -2 -2 -2 -2 -2 -2 -2 -2 -2 -2 -1 -1 -1
-0 -1 -1 -1 -0 -1 -1 -1 -1 -1 -1 -1 -1 -1 -1 -1 -1 -1 -1 -1 -1 -1 -2 -2 -2 -2 -2 -3 -3 -3 -3 -2 -2 -2 -2 -2 -3 -3
-2 -3 -2 -2 -2 -2 -2 -2 -2 -2 -2 -2 -1 -1 -1 -1 -1 -1 -1 -1 -2 -2 -2 -2 -3 -3 -3 -3 -3 -3 -3 -3 -2 -2 -2 -2 -4 -4
-2 -2 -2 -2 -2 -2 -2 -2 -2 -2 -2 -2 -1 -1 -1 -1 -1 -2 -2 -2 -3 -3 -3 -3 -3 -3 -4 -4 -3 -3 -3 -3 -3 -3 -3 -3 -3 -4
-2 -2 -3 -3 -3 -3 -3 -3 -3 -3 -2 -2 -2 -2 -2 -2 -2 -2 -3 -3 -3 -3 -3 -4 -4 -4 -4 -4 -4 -4 -4 -3 -3 -3 -3 -3 -3 -3
-3 -4 -4 -4 -4 -4 -3 -3 -3 -3 -3 -2 -2 -2 -2 -2 -3 -3 -3 -3 -4 -4 -4 -4 -5 -5 -5 -5 -5 -5 -5 -4 -4 -4 -3 -4 -3 -3
-5 -5 -5 -4 -4 -3 -3 -3 -4 -3 -3 -3 -2 -2 -2 -3 -3 -3 -4 -4 -4 -4 -4 -5 -5 -5 -5 -5 -6 -6 -6 -5 -5 -5 -4 -4 -4 -4
-5 -4 -4 -4 -4 -4 -4 -4 -4 -4 -3 -3 -3 -3 -3 -4 -4 -4 -4 -4 -4 -5 -5 -5 -5 -5 -5 -5 -5 -5 -5 -5 -5 -4 -4 -4 -4 -4
-5 -5 -5 -4 -4 -4 -4 -4 -4 -5 -4 -4 -4 -4 -4 -4 -4 -4 -4 -4 -5 -5 -5 -5 -5 -5 -5 -5 -5 -6 -5 -5 -5 -5 -5 -5 -5 -5
-6 -6 -6 -5 -5 -5 -5 -5 -5 -4 -5 -4 -5 -5 -4 -4 -4 -5 -5 -5 -5 -5 -6 -6 -5 -6 -6 -6 -6 -6 -6 -6 -6 -6 -6 -6 -6 -6
-7 -6 -6 -5 -5 -5 -5 -5 -5 -5 -4 -4 -5 -5 -5 -5 -5 -5 -5 -5 -5 -6 -6 -6 -6 -6 -6 -6 -6 -6 -6 -6 -6 -6 -6 -6 -6 -6
-8 -7 -6 -6 -6 -6 -6 -6 -6 -5 -5 -5 -5 -5 -5 -5 -6 -6 -6 -6 -6 -6 -6 -6 -6 -6 -6 -6 -6 -7 -7 -7 -7 -7 -7 -7 -7 -7
-7 -7 -6 -6 -7 -6 -6 -6 -6 -6 -6 -5 -5 -5 -6 -6 -7 -6 -6 -6 -6 -6 -7 -7 -7 -6 -7 -7 -7 -7 -7 -7 -7 -7 -7 -7 -7 -7
-7 -7 -7 -7 -7 -7 -7 -7 -7 -7 -6 -6 -6 -6 -6 -7 -8 -8 -7 -7 -7 -8 -8 -7 -7 -8 -7 -8 -7 -8 -8 -7 -8 -8 -8 -8 -8 -7
-8 -8 -7 -7 -7 -7 -7 -8 -8 -7 -7 -6 -6 -7 -7 -7 -7 -9 -9 -8 -9 -9 -9 -8 -10 -8 -8 -8 -9 -9 -8 -8 -8 -8 -8 -8 -8 -8
-9 -9 -8 -8 -8 -8 -8 -8 -8 -7 -7 -7 -7 -7 -7 -7 -7 -10 -10 -10 -10 -10 -10 -10 -10 -9 -9 -9 -9 -9 -9 -9 -9 -8 -8 -8 -8 -8
-9 -9 -9 -8 -8 -8 -8 -8 -8 -8 -7 -7 -7 -7 -7 -8 -8 -10 -11 -10 -11 -11 -12 -11 -10 -10 -10 -10 -9 -9 -9 -9 -9 -8 -8 -8 -8 -8

GFSNE_700_temp_111.txt.gz
Temp
1 1 2 1 1 2 1 2 1 1 0 1 1 1 0 0 0 0 0 0 0 0 1 1 1 1 1 1 1 1 1 1 1 1 1 1 1 1
1 1 1 2 1 1 1 -0 0 1 1 1 1 0 -0 -1 -0 -0 0 0 0 0 0 1 1 1 1 1 1 1 1 1 1 1 1 1 1 0
1 1 1 1 1 1 1 -0 1 2 1 1 1 -0 -0 -0 -0 0 0 -0 -0 0 1 1 1 1 1 1 1 1 1 1 0 0 -0 0 -0 -0
1 1 1 1 1 2 1 0 1 1 1 1 -0 -0 -1 -0 -0 -0 0 0 0 0 0 1 1 1 1 1 1 1 1 0 -0 -0 -0 -0 -0 -1
1 1 2 2 2 2 1 0 -0 -0 0 -0 -1 -0 -1 -1 -1 -0 -0 -0 0 0 0 0 0 1 1 1 1 0 0 -0 -0 -1 -1 -1 -1 -1
1 1 1 1 1 1 2 0 -0 -0 -0 -0 -1 -1 -1 -1 -1 -1 -1 -1 -0 -0 0 0 0 1 1 1 0 -1 -1 -1 -1 -1 -1 -1 -1 -1
1 1 1 1 1 1 -0 -0 -0 -1 -0 -1 -1 -1 -1 -2 -2 -2 -1 -1 -1 -1 -0 0 0 0 0 0 -0 -1 -1 -2 -2 -2 -2 -2 -2 -2
1 1 1 1 0 0 -0 -1 -1 -1 -1 -1 -1 -2 -1 -2 -2 -2 -2 -1 -1 -1 -1 -0 -0 -1 -0 -1 -1 -1 -2 -2 -3 -3 -2 -2 -2 -2
-1 -1 -1 -0 -0 -0 -1 -1 -1 -1 -2 -2 -2 -2 -2 -2 -3 -2 -3 -2 -1 -1 -1 -1 -1 -1 -1 -1 -2 -2 -2 -3 -3 -3 -3 -3 -3 -3
-2 -2 -2 -2 -2 -2 -2 -2 -3 -3 -3 -3 -2 -3 -3 -2 -3 -3 -3 -2 -1 -1 -1 -1 -1 -1 -2 -2 -2 -3 -3 -3 -3 -3 -3 -3 -3 -3
-3 -3 -3 -3 -3 -4 -4 -4 -3 -4 -3 -3 -3 -3 -3 -3 -3 -3 -3 -2 -2 -2 -2 -2 -2 -2 -3 -3 -3 -4 -4 -4 -4 -4 -3 -3 -3 -3
-5 -5 -5 -5 -7 -5 -6 -5 -4 -4 -3 -4 -3 -3 -4 -3 -3 -3 -3 -3 -3 -2 -2 -2 -3 -3 -3 -4 -4 -4 -4 -4 -4 -4 -4 -4 -3 -3
-5 -6 -6 -6 -7 -6 -6 -5 -5 -5 -4 -4 -4 -4 -3 -4 -3 -3 -4 -3 -3 -3 -3 -3 -3 -4 -4 -4 -4 -5 -5 -5 -5 -5 -5 -4 -4 -4
-6 -6 -6 -6 -7 -7 -7 -6 -5 -5 -5 -5 -4 -5 -4 -4 -4 -4 -4 -4 -3 -3 -3 -4 -4 -4 -4 -5 -5 -5 -5 -5 -6 -6 -6 -5 -5 -4
-8 -8 -8 -7 -8 -9 -7 -7 -7 -6 -6 -5 -5 -5 -5 -5 -5 -4 -5 -4 -4 -4 -4 -4 -4 -4 -5 -5 -5 -5 -5 -5 -6 -5 -5 -5 -5 -5
-9 -9 -9 -9 -10 -9 -8 -7 -7 -6 -6 -6 -6 -6 -6 -6 -5 -5 -5 -5 -4 -5 -5 -5 -5 -5 -5 -5 -5 -6 -6 -6 -6 -6 -5 -5 -5 -5
-10 -9 -9 -9 -9 -9 -9 -8 -8 -7 -7 -7 -6 -6 -6 -6 -6 -6 -5 -5 -6 -6 -7 -6 -5 -5 -5 -6 -6 -6 -6 -6 -6 -6 -6 -6 -6 -5
-10 -10 -10 -10 -9 -10 -9 -9 -8 -8 -7 -7 -7 -7 -7 -7 -7 -6 -6 -5 -5 -6 -7 -7 -6 -6 -6 -6 -6 -6 -6 -6 -6 -6 -6 -6 -6 -6
-11 -10 -10 -10 -10 -10 -10 -9 -9 -8 -8 -7 -7 -7 -7 -7 -7 -7 -7 -6 -6 -6 -8 -7 -6 -6 -6 -6 -6 -6 -7 -7 -7 -7 -7 -6 -6 -6
-12 -11 -11 -11 -10 -10 -9 -9 -9 -9 -8 -7 -7 -7 -7 -7 -7 -7 -7 -7 -6 -7 -8 -7 -7 -7 -7 -8 -7 -7 -7 -7 -7 -7 -7 -7 -7 -7
-12 -11 -11 -11 -10 -10 -9 -9 -9 -8 -8 -8 -8 -8 -7 -8 -7 -8 -8 -7 -7 -8 -8 -7 -8 -8 -9 -8 -8 -8 -8 -8 -8 -8 -8 -8 -8 -8
-12 -12 -11 -11 -11 -10 -10 -9 -9 -9 -8 -8 -8 -8 -8 -8 -8 -8 -8 -7 -8 -9 -8 -9 -8 -8 -9 -9 -9 -9 -8 -8 -8 -9 -8 -9 -8 -8
-12 -12 -12 -12 -11 -10 -10 -10 -10 -9 -9 -8 -8 -8 -8 -9 -8 -8 -8 -8 -9 -10 -9 -10 -9 -9 -10 -11 -11 -9 -9 -9 -10 -10 -9 -9 -9 -9

GFSNE_700_temp_114.txt.gz
Temp
1 1 1 1 1 1 0 1 1 1 1 1 1 1 1 0 0 0 -1 -0 0 0 1 1 1 1 1 1 2 2 2 2 1 1 1 2 1 1
1 1 1 1 1 1 1 1 2 1 1 1 1 0 0 0 1 -0 -1 -1 -0 0 1 0 1 1 1 1 1 1 2 2 1 1 1 1 1 0
1 1 1 1 1 1 1 1 1 1 1 0 1 0 1 1 -0 -1 -1 -1 -1 0 0 0 0 1 1 1 1 1 1 1 1 1 1 1 0 0
1 1 1 1 1 1 1 1 2 1 1 0 1 1 0 -0 -1 -1 -1 -2 -0 -0 -0 0 -0 0 0 1 1 1 1 1 1 1 1 0 -0 -0
1 1 1 1 1 1 1 1 1 1 1 1 0 0 -0 -0 -1 -2 -1 -2 -1 -1 -1 -1 -0 -0 0 0 0 1 1 1 0 0 0 -0 -0 -0
1 1 1 1 1 1 1 1 1 1 0 0 0 -0 0 -0 -1 -2 -1 -2 -2 -2 -2 -1 -1 -1 -0 -0 -0 0 0 0 0 -0 -1 -1 -1 -1
1 1 1 1 0 0 0 1 1 0 -1 -1 -1 -1 -1 -1 -1 -1 -1 -2 -2 -2 -3 -1 -1 -1 -0 -0 -1 -1 -0 -1 -1 -1 -1 -1 -1 -2
1 0 0 0 0 0 -0 -0 -0 -1 -1 -1 -1 -1 -1 -2 -2 -2 -2 -2 -2 -3 -1 -1 -1 -1 -1 -1 -1 -1 -1 -1 -1 -2 -2 -2 -2 -2
1 1 0 -0 -0 -1 -1 -1 -1 -2 -3 -3 -2 -3 -3 -2 -3 -2 -3 -3 -2 -3 -2 -1 -1 -1 -1 -1 -1 -2 -2 -2 -2 -3 -2 -3 -3 -3
0 0 -0 -0 -2 -3 -3 -4 -4 -4 -5 -5 -3 -3 -3 -3 -3 -3 -3 -3 -3 -3 -2 -2 -2 -2 -2 -2 -2 -2 -2 -3 -3 -3 -3 -3 -3 -3
-1 -2 -2 -3 -4 -5 -5 -5 -6 -6 -5 -5 -5 -5 -4 -4 -3 -3 -3 -3 -3 -3 -3 -2 -2 -2 -2 -2 -3 -3 -3 -3 -4 -4 -4 -3 -3 -3
-3 -4 -4 -5 -5 -5 -6 -6 -6 -6 -6 -6 -5 -5 -5 -5 -4 -4 -4 -3 -3 -3 -3 -2 -3 -2 -2 -3 -3 -3 -3 -4 -4 -4 -4 -4 -4 -3
-5 -5 -6 -6 -6 -7 -7 -8 -7 -7 -6 -6 -6 -6 -5 -5 -5 -4 -4 -4 -4 -3 -4 -3 -3 -3 -3 -3 -4 -4 -4 -4 -4 -5 -5 -5 -4 -4
-7 -7 -7 -7 -7 -8 -9 -10 -8 -9 -7 -7 -7 -7 -6 -6 -6 -5 -5 -4 -5 -4 -4 -4 -4 -4 -4 -4 -4 -4 -5 -5 -5 -6 -6 -5 -5 -4
-9 -10 -9 -9 -9 -9 -9 -10 -9 -8 -9 -8 -7 -7 -7 -7 -6 -6 -5 -5 -5 -4 -5 -4 -4 -5 -4 -4 -5 -5 -5 -5 -5 -6 -6 -5 -5 -5
-9 -10 -11 -11 -10 -10 -10 -10 -10 -9 -9 -8 -7 -7 -7 -7 -6 -6 -6 -6 -5 -5 -5 -5 -5 -5 -5 -5 -5 -5 -5 -6 -6 -6 -6 -6 -5 -5
-11 -11 -11 -11 -10 -10 -10 -10 -10 -9 -8 -8 -8 -8 -7 -7 -7 -6 -6 -6 -6 -5 -5 -5 -7 -6 -6 -6 -6 -6 -6 -6 -6 -6 -6 -6 -6 -5
-11 -11 -11 -11 -11 -10 -10 -10 -10 -10 -9 -9 -9 -8 -8 -8 -8 -7 -7 -7 -6 -6 -6 -6 -8 -8 -8 -8 -7 -6 -6 -6 -6 -6 -6 -6 -6 -6
-11 -11 -12 -12 -11 -11 -11 -11 -10 -10 -10 -9 -9 -9 -8 -8 -8 -8 -7 -7 -7 -7 -7 -6 -7 -8 -8 -8 -8 -7 -7 -7 -6 -6 -6 -7 -6 -6
-12 -12 -12 -12 -12 -11 -11 -11 -10 -10 -10 -10 -9 -9 -9 -8 -7 -8 -8 -8 -8 -8 -8 -7 -7 -8 -9 -9 -9 -8 -8 -7 -8 -7 -7 -7 -7 -6
-11 -12 -12 -12 -12 -11 -11 -11 -11 -10 -10 -10 -10 -9 -9 -8 -8 -8 -8 -9 -8 -8 -8 -9 -9 -10 -10 -9 -8 -8 -8 -8 -8 -8 -8 -8 -7 -8
-12 -12 -12 -12 -12 -12 -11 -11 -11 -10 -10 -10 -9 -9 -9 -8 -8 -8 -8 -8 -8 -8 -9 -9 -9 -10 -9 -8 -8 -9 -9 -9 -8 -8 -8 -8 -9 -9
-12 -12 -12 -12 -12 -12 -11 -11 -11 -11 -10 -10 -10 -9 -9 -9 -9 -9 -9 -9 -9 -8 -9 -9 -10 -9 -9 -9 -9 -10 -10 -9 -9 -9 -9 -9 -9 -10

GFSNE_700_temp_117.txt.gz
Temp
1 -0 -0 -0 0 0 1 1 1 1 2 2 1 2 1 1 1 1 0 0 -0 -0 0 -0 0 0 0 1 1 1 1 1 2 2 2 2 2 2
0 0 0 1 1 1 1 1 1 1 1 1 1 1 1 0 1 1 0 -0 0 -0 -0 -1 0 1 1 0 0 1 1 1 2 2 2 2 1 1
0 0 1 1 1 1 1 1 1 1 1 1 1 1 1 0 0 0 0 0 -0 -0 -1 -1 -1 -0 -0 -0 0 0 1 1 1 1 2 1 1 1
1 1 1 1 1 1 1 1 1 1 1 1 1 1 1 1 1 0 -0 0 -0 -0 -1 -1 -2 -1 -1 -0 -0 0 0 0 1 1 1 1 1 1
1 1 1 1 1 1 1 1 1 1 1 1 1 1 1 0 0 0 -0 -1 -1 -1 -1 -1 -2 -2 -1 -0 -0 -0 0 -0 0 0 0 -0 0 -0
1 1 1 1 1 1 1 1 1 1 1 1 1 1 -0 -1 -1 -0 -0 -1 -1 -1 -1 -2 -1 -2 -2 -1 0 0 0 0 -0 -0 -0 -1 -1 -0
1 1 1 1 1 1 1 1 0 0 0 -0 -0 -0 -1 -2 -1 -2 -1 -2 -2 -1 -2 -2 -2 -3 -2 -1 -0 -0 -0 -1 -1 -1 -1 -1 -1 -1
2 1 1 0 0 -0 -0 -0 -1 -1 -1 -2 -2 -3 -3 -4 -2 -3 -2 -2 -2 -3 -2 -2 -3 -3 -2 -1 -1 -1 -1 -1 -2 -2 -2 -2 -2 -2
2 1 1 -0 -0 -1 -1 -2 -2 -3 -4 -4 -5 -5 -4 -4 -3 -3 -2 -3 -3 -3 -3 -3 -3 -2 -2 -1 -2 -1 -2 -1 -2 -2 -2 -2 -2 -3
1 1 1 0 -1 -1 -1 -2 -4 -4 -5 -5 -5 -5 -6 -5 -5 -4 -3 -4 -4 -3 -3 -3 -2 -3 -3 -2 -1 -2 -2 -2 -2 -2 -3 -3 -3 -3
-0 -1 -2 -2 -3 -3 -4 -4 -4 -5 -5 -6 -6 -7 -7 -6 -5 -5 -5 -4 -4 -4 -4 -3 -3 -3 -3 -2 -2 -2 -2 -3 -3 -3 -3 -3 -3 -3
-3 -4 -4 -4 -5 -5 -6 -6 -6 -6 -7 -6 -7 -8 -7 -7 -7 -6 -5 -5 -5 -4 -4 -4 -4 -4 -3 -3 -2 -2 -3 -3 -4 -4 -4 -4 -4 -3
-4 -5 -5 -6 -6 -7 -8 -8 -8 -8 -8 -8 -9 -9 -7 -8 -7 -7 -6 -6 -5 -5 -5 -4 -4 -5 -4 -3 -3 -3 -4 -4 -4 -4 -4 -4 -4 -4
-6 -6 -7 -8 -9 -9 -9 -9 -9 -9 -9 -9 -9 -9 -8 -7 -7 -7 -7 -6 -6 -6 -5 -5 -5 -5 -5 -4 -4 -4 -4 -4 -5 -5 -5 -5 -5 -4
-7 -7 -8 -9 -10 -10 -10 -10 -10 -9 -9 -10 -10 -8 -8 -9 -8 -7 -7 -7 -6 -6 -6 -6 -6 -6 -5 -4 -4 -5 -5 -5 -5 -5 -5 -6 -5 -5
-9 -9 -10 -10 -10 -10 -10 -10 -10 -10 -10 -11 -10 -9 -9 -8 -8 -8 -7 -7 -7 -7 -7 -7 -6 -6 -6 -5 -5 -5 -6 -5 -6 -5 -6 -6 -5 -5
-10 -10 -10 -10 -10 -10 -11 -11 -10 -10 -11 -11 -10 -10 -9 -9 -8 -8 -8 -7 -7 -7 -8 -7 -7 -6 -6 -7 -6 -6 -6 -6 -6 -6 -6 -6 -5 -5
-10 -10 -10 -10 -11 -11 -11 -11 -11 -11 -11 -11 -10 -10 -9 -9 -9 -9 -9 -8 -8 -8 -8 -8 -8 -7 -7 -9 -7 -6 -7 -7 -7 -7 -6 -6 -6 -6
-11 -11 -11 -11 -11 -11 -11 -11 -11 -11 -11 -11 -11 -10 -10 -10 -9 -9 -8 -9 -8 -8 -8 -8 -8 -7 -7 -10 -9 -8 -8 -8 -8 -7 -7 -7 -6 -6
-11 -11 -11 -11 -11 -11 -11 -11 -11 -11 -11 -11 -11 -10 -10 -10 -9 -9 -8 -8 -9 -9 -9 -8 -8 -9 -8 -11 -10 -8 -8 -8 -8 -8 -8 -7 -7 -7
-11 -11 -12 -12 -12 -12 -12 -12 -12 -11 -11 -11 -10 -10 -10 -10 -10 -9 -9 -9 -9 -9 -9 -9 -9 -9 -9 -9 -9 -9 -9 -9 -8 -9 -9 -8 -7 -7
-12 -12 -12 -12 -12 -12 -12 -12 -12 -11 -11 -11 -10 -10 -10 -10 -9 -9 -9 -9 -9 -9 -10 -10 -10 -10 -10 -9 -10 -10 -9 -9 -9 -10 -9 -9 -9 -9
-12 -12 -13 -13 -13 -12 -12 -12 -12 -11 -11 -11 -10 -10 -10 -10 -9 -9 -10 -10 -9 -9 -10 -10 -10 -11 -11 -10 -10 -10 -10 -10 -10 -10 -10 -10 -9 -9

GFSNE_700_temp_120.txt.gz
Temp
1 1 1 1 1 1 1 1 0 1 1 2 1 2 1 1 1 1 1 1 1 1 0 0 0 1 1 1 1 1 1 1 1 1 1 2 1 2
0 0 1 1 0 0 1 1 1 1 1 1 1 2 1 2 1 1 1 1 1 1 0 0 -0 0 1 1 1 1 2 1 1 1 1 1 1 1
0 0 1 0 0 1 1 1 1 1 1 1 1 1 1 2 1 2 1 1 0 1 0 0 -0 -0 -0 -0 -0 1 1 1 1 1 1 1 1 1
1 1 1 0 1 1 1 1 1 1 1 1 1 1 1 1 1 1 1 1 0 1 -0 -0 -0 -0 -0 -1 -1 -0 0 0 0 0 0 1 1 1
1 1 1 1 1 1 1 1 1 1 1 1 2 1 1 1 1 -0 -0 -1 -0 -0 -0 -0 -0 -1 -1 -1 -2 -1 -1 -0 1 1 0 0 1 1
2 2 2 1 1 1 1 1 1 1 1 1 1 1 1 1 -0 -1 -2 -2 -1 -1 -1 -1 -1 -1 -2 -2 -2 -1 -1 -0 0 -0 -0 -0 -0 0
2 2 2 2 1 1 1 1 1 0 0 0 0 -0 -0 -1 -1 -2 -2 -3 -2 -2 -1 -2 -2 -2 -2 -2 -2 -2 -2 -1 -1 -1 -1 -1 -1 -1
2 2 2 1 1 0 0 0 -0 -0 -0 -1 -1 -2 -2 -2 -3 -4 -4 -4 -4 -2 -2 -3 -2 -2 -3 -3 -2 -2 -2 -2 -1 -1 -1 -1 -1 -1
2 2 2 1 1 0 0 -0 -1 -2 -2 -3 -3 -4 -4 -5 -5 -4 -5 -5 -5 -4 -4 -3 -4 -3 -3 -3 -3 -3 -3 -3 -2 -2 -2 -2 -2 -2
2 2 2 1 1 0 1 0 -1 -2 -2 -3 -4 -5 -6 -6 -6 -6 -6 -6 -6 -6 -5 -4 -4 -4 -3 -3 -3 -3 -3 -2 -2 -2 -2 -3 -2 -2
1 1 0 0 -0 -2 -2 -3 -3 -4 -4 -5 -5 -6 -6 -7 -8 -8 -7 -7 -7 -6 -6 -5 -5 -4 -4 -4 -4 -4 -3 -3 -2 -3 -3 -3 -3 -3
-0 -1 -2 -3 -4 -4 -4 -5 -5 -6 -7 -7 -7 -8 -8 -7 -7 -9 -8 -8 -7 -7 -6 -6 -5 -5 -5 -4 -4 -4 -4 -3 -3 -3 -4 -3 -3 -3
-2 -3 -4 -5 -5 -6 -6 -7 -8 -9 -8 -8 -8 -8 -8 -8 -9 -9 -8 -8 -8 -8 -7 -7 -6 -6 -6 -5 -5 -4 -4 -4 -4 -4 -4 -4 -4 -4
-4 -5 -5 -6 -7 -8 -8 -9 -9 -9 -9 -9 -9 -9 -9 -9 -9 -9 -9 -8 -8 -8 -8 -7 -7 -6 -6 -6 -6 -5 -5 -4 -4 -4 -4 -4 -4 -4
-6 -7 -7 -7 -8 -9 -9 -9 -9 -10 -9 -9 -9 -9 -10 -10 -9 -9 -9 -9 -8 -8 -7 -7 -7 -7 -7 -7 -6 -6 -5 -4 -5 -5 -5 -5 -5 -5
-7 -7 -7 -8 -9 -9 -9 -10 -10 -10 -10 -10 -10 -10 -10 -10 -10 -9 -9 -8 -8 -8 -8 -8 -8 -8 -8 -7 -7 -8 -6 -5 -5 -5 -5 -5 -5 -5
-7 -8 -8 -9 -9 -9 -9 -10 -10 -11 -10 -10 -10 -10 -10 -10 -10 -9 -9 -8 -8 -8 -8 -8 -8 -8 -8 -8 -7 -8 -6 -6 -6 -6 -6 -6 -6 -6
-8 -8 -9 -10 -10 -10 -10 -10 -10 -10 -11 -11 -11 -11 -10 -10 -10 -9 -9 -9 -9 -9 -8 -9 -9 -10 -9 -9 -8 -8 -7 -7 -7 -7 -7 -6 -6 -6
-9 -10 -10 -11 -10 -10 -10 -10 -10 -11 -11 -11 -11 -11 -10 -10 -10 -9 -10 -9 -9 -9 -9 -9 -9 -10 -10 -10 -9 -10 -8 -8 -8 -8 -9 -8 -7 -6
-10 -11 -11 -11 -11 -11 -10 -10 -11 -11 -11 -11 -11 -11 -10 -10 -10 -10 -10 -10 -10 -9 -9 -10 -10 -10 -10 -10 -10 -10 -10 -8 -8 -8 -9 -8 -7 -7
-11 -11 -11 -11 -11 -11 -11 -11 -11 -11 -11 -11 -11 -11 -11 -10 -10 -10 -10 -10 -10 -10 -10 -10 -10 -10 -10 -11 -10 -10 -11 -9 -8 -9 -10 -9 -8 -7
-12 -12 -12 -12 -12 -12 -11 -12 -12 -12 -12 -11 -11 -11 -11 -10 -10 -10 -10 -10 -10 -10 -10 -10 -10 -10 -10 -10 -11 -10 -10 -10 -9 -9 -9 -9 -9 -8
-12 -12 -12 -12 -12 -12 -12 -12 -12 -12 -12 -12 -11 -11 -11 -11 -10 -10 -10 -10 -10 -10 -10 -10 -10 -10 -10 -10 -11 -11 -10 -10 -9 -9 -9 -9 -9 -9

GFSNE_700_temp_123.txt.gz
Temp
2 1 1 2 1 1 1 1 0 0 1 1 1 1 1 1 1 1 1 2 1 1 2 2 1 1 1 0 0 0 1 1 1 2 1 1 2 2
2 2 1 1 1 0 1 0 1 0 1 1 2 1 1 1 1 1 1 1 1 1 1 1 1 1 1 0 0 0 0 1 1 2 1 1 2 2
1 1 1 1 0 1 1 1 1 1 1 1 1 1 1 1 1 1 1 1 1 1 1 0 1 0 0 0 -0 -0 -0 -0 0 1 1 1 1 1
1 1 1 1 1 1 1 1 1 1 1 2 1 1 1 2 2 2 1 1 1 1 1 0 -0 -0 -0 0 0 -0 -1 -1 -0 -1 -0 0 0 0
1 1 1 1 1 1 1 1 1 1 1 1 2 2 2 1 1 1 1 1 0 -0 -1 -0 -1 -0 -0 -1 -1 -1 -1 -1 -1 -1 -1 -1 -0 0
1 1 1 1 1 1 1 2 2 2 1 1 1 1 1 1 1 0 0 -0 -0 -1 -1 -2 -2 -1 -1 -1 -2 -2 -1 -1 -2 -2 -1 -2 -1 -1
2 1 2 2 1 1 2 2 1 1 1 1 1 1 0 0 -0 -1 -1 -1 -2 -2 -2 -3 -3 -4 -3 -3 -2 -2 -2 -2 -2 -2 -2 -3 -2 -1
1 2 2 2 1 1 1 1 1 1 1 1 0 -0 -0 -1 -2 -2 -2 -3 -3 -3 -4 -3 -4 -5 -4 -3 -3 -3 -4 -3 -3 -3 -3 -3 -4 -2
1 1 1 1 1 1 1 1 0 -0 -1 -1 -1 -1 -2 -2 -3 -3 -4 -5 -5 -5 -6 -5 -5 -5 -5 -5 -4 -4 -3 -4 -4 -4 -3 -4 -4 -1
1 2 1 1 1 1 1 1 -0 -1 -1 -1 -2 -3 -4 -4 -5 -6 -6 -7 -7 -7 -7 -7 -7 -6 -6 -5 -5 -5 -4 -4 -4 -4 -4 -4 -4 -2
1 1 1 1 1 0 0 -0 -1 -2 -3 -3 -4 -4 -5 -6 -7 -7 -7 -8 -8 -8 -8 -8 -8 -7 -6 -6 -6 -5 -5 -5 -5 -4 -4 -4 -3 -3
1 0 0 -0 -1 -1 -2 -3 -3 -3 -4 -5 -5 -6 -7 -8 -8 -8 -8 -9 -11 -8 -8 -9 -8 -8 -7 -7 -6 -6 -6 -5 -5 -5 -5 -5 -3 -3
-0 -1 -1 -2 -3 -4 -4 -5 -5 -6 -6 -7 -7 -8 -8 -8 -8 -9 -9 -9 -9 -9 -9 -9 -8 -7 -7 -7 -6 -6 -7 -6 -5 -5 -5 -5 -4 -4
-2 -2 -3 -4 -4 -5 -5 -6 -7 -8 -8 -8 -9 -9 -9 -9 -9 -9 -9 -10 -10 -9 -9 -9 -8 -8 -8 -8 -7 -7 -7 -7 -6 -5 -5 -5 -4 -4
-3 -4 -4 -5 -5 -6 -7 -7 -8 -9 -9 -9 -9 -9 -9 -9 -9 -9 -9 -10 -9 -9 -8 -8 -8 -8 -9 -8 -7 -7 -7 -7 -7 -6 -7 -5 -5 -4
-4 -5 -5 -6 -7 -7 -8 -9 -9 -9 -9 -9 -9 -9 -9 -9 -10 -10 -10 -9 -8 -9 -8 -8 -8 -8 -8 -8 -8 -8 -7 -7 -7 -8 -6 -6 -5 -5
-5 -5 -6 -7 -7 -8 -9 -9 -9 -9 -9 -10 -10 -10 -10 -10 -10 -10 -10 -10 -9 -9 -9 -9 -9 -9 -9 -9 -9 -9 -8 -8 -7 -7 -7 -6 -6 -5
-6 -6 -7 -7 -8 -9 -9 -9 -9 -9 -10 -10 -10 -10 -10 -10 -10 -10 -10 -10 -10 -10 -9 -9 -9 -9 -9 -9 -10 -10 -9 -9 -9 -8 -7 -7 -7 -6
-7 -7 -7 -8 -9 -9 -10 -10 -10 -10 -10 -10 -11 -11 -11 -11 -11 -10 -10 -10 -10 -10 -9 -9 -10 -10 -10 -10 -10 -10 -10 -9 -9 -9 -8 -7 -8 -7
-8 -8 -9 -9 -10 -10 -10 -10 -10 -11 -11 -11 -11 -11 -11 -11 -11 -10 -10 -10 -10 -10 -9 -10 -10 -10 -10 -11 -11 -10 -10 -10 -10 -9 -8 -8 -9 -9
-9 -9 -10 -10 -11 -11 -11 -11 -11 -11 -11 -11 -11 -11 -11 -11 -11 -10 -10 -10 -10 -10 -10 -10 -10 -10 -10 -10 -11 -11 -10 -10 -10 -9 -9 -9 -9 -9
-9 -10 -10 -11 -12 -12 -11 -11 -11 -12 -12 -12 -12 -11 -11 -11 -11 -11 -10 -10 -10 -10 -10 -10 -10 -10 -10 -10 -11 -11 -10 -9 -10 -9 -9 -10 -9 -9
-10 -11 -12 -12 -12 -12 -12 -12 -12 -12 -12 -12 -12 -11 -12 -11 -11 -11 -11 -11 -10 -10 -10 -10 -10 -10 -10 -10 -11 -11 -11 -10 -10 -9 -9 -11 -10 -10

GFSNE_700_temp_126.txt.gz
Temp
2 2 2 1 2 1 1 2 2 1 1 1 1 1 1 1 1 1 1 1 2 1 1 1 2 2 2 2 2 1 1 1 -0 0 0 0 1 1
2 2 2 2 2 1 1 1 1 1 1 1 1 1 1 1 2 2 1 1 1 1 1 1 1 1 1 1 1 1 0 0 0 0 0 0 0 0
1 1 1 1 1 1 1 1 0 1 1 1 1 1 1 2 1 1 1 1 1 1 1 1 1 1 0 0 0 -0 0 -0 0 -1 -1 -1 -0 -0
1 1 0 1 0 0 1 0 1 1 1 1 1 1 1 1 1 1 1 1 2 1 1 1 1 1 1 1 -0 -0 -0 -0 -0 -0 -1 -1 -1 -1
1 1 1 1 1 1 1 0 0 0 0 0 1 1 1 1 2 2 2 2 2 1 1 1 0 0 0 -0 -0 -0 -1 -2 -1 -1 -1 -1 -2 -2
1 1 1 1 0 1 1 0 1 1 1 1 1 1 1 1 1 1 2 2 2 1 1 0 -0 -1 -1 -1 -2 -2 -2 -2 -2 -2 -2 -2 -2 -2
1 1 1 1 1 1 1 1 1 1 1 1 1 1 1 1 1 1 2 2 2 1 1 -0 -2 -2 -3 -3 -3 -3 -3 -3 -4 -3 -3 -3 -2 -2
1 1 1 1 1 1 1 1 1 1 1 1 1 1 1 1 1 1 1 1 2 -0 -0 -1 -3 -3 -4 -4 -4 -5 -5 -5 -5 -4 -3 -3 -3 -4
1 1 1 1 1 1 1 1 1 1 1 1 1 1 0 -0 0 0 0 -0 -1 -2 -3 -4 -4 -5 -5 -5 -6 -6 -7 -6 -5 -5 -5 -4 -4 -4
1 1 1 1 1 1 1 0 0 0 -0 -1 -1 -1 -2 -2 -2 -2 -3 -3 -4 -4 -6 -6 -7 -7 -7 -8 -8 -7 -7 -7 -6 -6 -6 -5 -5 -5
0 0 0 0 0 0 0 0 0 -0 -0 -1 -2 -3 -4 -4 -5 -5 -6 -6 -6 -6 -7 -7 -7 -8 -7 -8 -7 -7 -7 -7 -7 -6 -6 -6 -6 -5
-0 -0 -0 -0 -0 -0 -1 -1 -1 -1 -2 -3 -4 -5 -6 -6 -7 -7 -8 -8 -8 -7 -7 -8 -8 -8 -8 -7 -7 -7 -7 -6 -7 -7 -7 -6 -6 -5
-1 -1 -1 -1 -1 -2 -2 -2 -3 -3 -3 -4 -5 -6 -7 -7 -8 -8 -8 -8 -8 -7 -8 -9 -9 -9 -9 -7 -7 -7 -7 -7 -7 -7 -7 -7 -6 -6
-2 -2 -2 -3 -3 -3 -4 -4 -4 -4 -5 -6 -7 -7 -8 -8 -8 -8 -8 -9 -9 -9 -9 -9 -9 -8 -8 -7 -8 -7 -8 -7 -8 -8 -7 -7 -7 -6
-3 -3 -4 -4 -4 -5 -5 -5 -6 -6 -6 -7 -8 -8 -8 -8 -9 -9 -9 -10 -10 -10 -9 -9 -9 -8 -8 -8 -8 -8 -8 -8 -8 -8 -8 -7 -7 -6
-4 -4 -5 -5 -5 -6 -6 -7 -7 -7 -7 -8 -8 -9 -9 -9 -9 -10 -10 -10 -10 -10 -9 -9 -9 -8 -8 -8 -8 -8 -9 -9 -8 -9 -8 -8 -8 -7
-5 -6 -6 -6 -7 -7 -7 -7 -8 -8 -9 -9 -9 -9 -10 -10 -10 -10 -10 -10 -10 -10 -10 -9 -9 -9 -9 -8 -8 -9 -9 -9 -9 -9 -9 -9 -9 -7
-6 -7 -7 -7 -7 -7 -8 -8 -9 -9 -9 -10 -10 -10 -10 -10 -10 -10 -11 -11 -10 -10 -9 -9 -9 -9 -9 -8 -9 -9 -10 -10 -9 -9 -9 -8 -8 -7
-7 -7 -7 -8 -8 -8 -9 -9 -10 -10 -10 -10 -10 -10 -10 -11 -11 -10 -11 -11 -10 -10 -10 -10 -9 -9 -9 -9 -9 -10 -10 -10 -10 -9 -10 -8 -9 -8
-7 -8 -8 -8 -8 -9 -9 -10 -10 -11 -11 -11 -11 -11 -11 -11 -11 -11 -11 -11 -11 -11 -10 -10 -9 -9 -9 -10 -10 -10 -10 -11 -10 -10 -9 -8 -8 -7
-8 -9 -9 -9 -10 -10 -11 -11 -11 -11 -11 -11 -11 -12 -12 -11 -11 -11 -11 -11 -11 -11 -10 -10 -10 -9 -10 -10 -10 -11 -11 -11 -10 -10 -9 -9 -8 -8
-9 -9 -10 -10 -11 -11 -12 -12 -12 -12 -12 -12 -12 -12 -12 -12 -11 -11 -11 -11 -11 -11 -11 -10 -10 -10 -10 -10 -10 -11 -11 -11 -10 -10 -9 -9 -9 -9
-10 -10 -10 -11 -11 -12 -13 -13 -13 -13 -13 -13 -12 -12 -12 -12 -12 -12 -11 -12 -11 -11 -11 -11 -10 -10 -10 -11 -11 -11 -11 -11 -10 -10 -9 -9 -9 -9